<?xml version="1.0" encoding="utf-8"?>
<gpx xmlns:xsi="http://www.w3.org/2001/XMLSchema-instance" xmlns:xsd="http://www.w3.org/2001/XMLSchema" version="1.1" creator="Shapelink.com" xmlns="http://www.topografix.com/GPX/1/1" xmlns:gpxtpx="http://www.garmin.com/xmlschemas/TrackPointExtension/v1">
  <metadata>
    <name>Kayaking 2.25 km, 2017-07-20</name>
    <desc></desc>
    <author><name>Kim Kronberg</name></author> 
    <time>2017-07-20T10:26:39Z</time>
  </metadata>
  <trk>
    <name>Kayaking 2.25 km, 2017-07-20</name>
    <trkseg>
      <trkpt lat="60.115745529588" lon="21.526856249224">
        <ele>7.4</ele>
        <time>2017-07-20T10:26:39Z</time>
      </trkpt>
      <trkpt lat="60.115743517932" lon="21.5268565845">
        <ele>7.4</ele>
        <time>2017-07-20T10:26:40Z</time>
      </trkpt>
      <trkpt lat="60.115737985878" lon="21.526850381894">
        <ele>7.4</ele>
        <time>2017-07-20T10:26:41Z</time>
      </trkpt>
      <trkpt lat="60.115731364177" lon="21.526846861496">
        <ele>7.4</ele>
        <time>2017-07-20T10:26:42Z</time>
      </trkpt>
      <trkpt lat="60.115722898458" lon="21.526846358582">
        <ele>7</ele>
        <time>2017-07-20T10:26:43Z</time>
      </trkpt>
      <trkpt lat="60.115717366404" lon="21.526846023306">
        <ele>7</ele>
        <time>2017-07-20T10:26:44Z</time>
      </trkpt>
      <trkpt lat="60.115709655056" lon="21.526842754365">
        <ele>7</ele>
        <time>2017-07-20T10:26:45Z</time>
      </trkpt>
      <trkpt lat="60.115700770242" lon="21.526840575071">
        <ele>7</ele>
        <time>2017-07-20T10:26:46Z</time>
      </trkpt>
      <trkpt lat="60.115691131057" lon="21.526836384121">
        <ele>7</ele>
        <time>2017-07-20T10:26:47Z</time>
      </trkpt>
      <trkpt lat="60.115680569863" lon="21.526833701913">
        <ele>7</ele>
        <time>2017-07-20T10:26:48Z</time>
      </trkpt>
      <trkpt lat="60.115671433592" lon="21.526825739108">
        <ele>7</ele>
        <time>2017-07-20T10:26:49Z</time>
      </trkpt>
      <trkpt lat="60.115661040036" lon="21.526814339724">
        <ele>7</ele>
        <time>2017-07-20T10:26:50Z</time>
      </trkpt>
      <trkpt lat="60.115648467186" lon="21.526802269788">
        <ele>7</ele>
        <time>2017-07-20T10:26:51Z</time>
      </trkpt>
      <trkpt lat="60.115640839657" lon="21.526792798241">
        <ele>7</ele>
        <time>2017-07-20T10:26:52Z</time>
      </trkpt>
      <trkpt lat="60.115630781377" lon="21.526785254531">
        <ele>7</ele>
        <time>2017-07-20T10:26:53Z</time>
      </trkpt>
      <trkpt lat="60.115619968726" lon="21.526778968106">
        <ele>7</ele>
        <time>2017-07-20T10:26:54Z</time>
      </trkpt>
      <trkpt lat="60.115612257378" lon="21.526776537355">
        <ele>7</ele>
        <time>2017-07-20T10:26:55Z</time>
      </trkpt>
      <trkpt lat="60.115598846338" lon="21.52677108912">
        <ele>7</ele>
        <time>2017-07-20T10:26:56Z</time>
      </trkpt>
      <trkpt lat="60.115587363135" lon="21.526768490731">
        <ele>7</ele>
        <time>2017-07-20T10:26:57Z</time>
      </trkpt>
      <trkpt lat="60.115577640131" lon="21.526764215962">
        <ele>7</ele>
        <time>2017-07-20T10:26:58Z</time>
      </trkpt>
      <trkpt lat="60.11556263653" lon="21.526760108831">
        <ele>7</ele>
        <time>2017-07-20T10:26:59Z</time>
      </trkpt>
      <trkpt lat="60.115554170811" lon="21.526757426623">
        <ele>7</ele>
        <time>2017-07-20T10:27:00Z</time>
      </trkpt>
      <trkpt lat="60.115539251029" lon="21.526751391655">
        <ele>7</ele>
        <time>2017-07-20T10:27:01Z</time>
      </trkpt>
      <trkpt lat="60.115529528025" lon="21.526747200705">
        <ele>7</ele>
        <time>2017-07-20T10:27:02Z</time>
      </trkpt>
      <trkpt lat="60.115517625727" lon="21.526742087746">
        <ele>7</ele>
        <time>2017-07-20T10:27:03Z</time>
      </trkpt>
      <trkpt lat="60.11550480142" lon="21.526736471873">
        <ele>7</ele>
        <time>2017-07-20T10:27:04Z</time>
      </trkpt>
      <trkpt lat="60.115493988769" lon="21.526729514896">
        <ele>7</ele>
        <time>2017-07-20T10:27:05Z</time>
      </trkpt>
      <trkpt lat="60.115478314616" lon="21.526716355313">
        <ele>7</ele>
        <time>2017-07-20T10:27:06Z</time>
      </trkpt>
      <trkpt lat="60.115470351811" lon="21.526710068888">
        <ele>7</ele>
        <time>2017-07-20T10:27:07Z</time>
      </trkpt>
      <trkpt lat="60.115456018762" lon="21.526697076943">
        <ele>7</ele>
        <time>2017-07-20T10:27:08Z</time>
      </trkpt>
      <trkpt lat="60.115444116464" lon="21.526688275948">
        <ele>7</ele>
        <time>2017-07-20T10:27:09Z</time>
      </trkpt>
      <trkpt lat="60.115433303813" lon="21.526677798573">
        <ele>7</ele>
        <time>2017-07-20T10:27:10Z</time>
      </trkpt>
      <trkpt lat="60.115418216393" lon="21.526663130248">
        <ele>7</ele>
        <time>2017-07-20T10:27:11Z</time>
      </trkpt>
      <trkpt lat="60.115410253588" lon="21.526655167443">
        <ele>7</ele>
        <time>2017-07-20T10:27:12Z</time>
      </trkpt>
      <trkpt lat="60.115394914711" lon="21.526639409471">
        <ele>7</ele>
        <time>2017-07-20T10:27:13Z</time>
      </trkpt>
      <trkpt lat="60.115383599146" lon="21.526629518829">
        <ele>7</ele>
        <time>2017-07-20T10:27:14Z</time>
      </trkpt>
      <trkpt lat="60.115371696848" lon="21.52661434759">
        <ele>7</ele>
        <time>2017-07-20T10:27:15Z</time>
      </trkpt>
      <trkpt lat="60.115357447618" lon="21.526599930722">
        <ele>7</ele>
        <time>2017-07-20T10:27:16Z</time>
      </trkpt>
      <trkpt lat="60.115349903908" lon="21.526591129727">
        <ele>7</ele>
        <time>2017-07-20T10:27:17Z</time>
      </trkpt>
      <trkpt lat="60.115334481212" lon="21.526574701203">
        <ele>7</ele>
        <time>2017-07-20T10:27:18Z</time>
      </trkpt>
      <trkpt lat="60.115326434588" lon="21.526564475285">
        <ele>7</ele>
        <time>2017-07-20T10:27:19Z</time>
      </trkpt>
      <trkpt lat="60.115311682444" lon="21.526548046761">
        <ele>7</ele>
        <time>2017-07-20T10:27:20Z</time>
      </trkpt>
      <trkpt lat="60.115299696327" lon="21.526537569386">
        <ele>7</ele>
        <time>2017-07-20T10:27:21Z</time>
      </trkpt>
      <trkpt lat="60.115289051314" lon="21.526524745079">
        <ele>7</ele>
        <time>2017-07-20T10:27:22Z</time>
      </trkpt>
      <trkpt lat="60.115274718265" lon="21.526509238564">
        <ele>7</ele>
        <time>2017-07-20T10:27:23Z</time>
      </trkpt>
      <trkpt lat="60.115265833451" lon="21.526498174456">
        <ele>7</ele>
        <time>2017-07-20T10:27:24Z</time>
      </trkpt>
      <trkpt lat="60.115250913669" lon="21.526478896086">
        <ele>7</ele>
        <time>2017-07-20T10:27:25Z</time>
      </trkpt>
      <trkpt lat="60.115241861217" lon="21.526466490874">
        <ele>7</ele>
        <time>2017-07-20T10:27:26Z</time>
      </trkpt>
      <trkpt lat="60.115230378014" lon="21.526449475617">
        <ele>7</ele>
        <time>2017-07-20T10:27:27Z</time>
      </trkpt>
      <trkpt lat="60.115217218431" lon="21.526433969102">
        <ele>7</ele>
        <time>2017-07-20T10:27:28Z</time>
      </trkpt>
      <trkpt lat="60.115208836531" lon="21.526419803691">
        <ele>7</ele>
        <time>2017-07-20T10:27:29Z</time>
      </trkpt>
      <trkpt lat="60.115192743283" lon="21.526399016579">
        <ele>7</ele>
        <time>2017-07-20T10:27:30Z</time>
      </trkpt>
      <trkpt lat="60.115185031935" lon="21.526389545032">
        <ele>7</ele>
        <time>2017-07-20T10:27:31Z</time>
      </trkpt>
      <trkpt lat="60.115172291447" lon="21.526369344653">
        <ele>7</ele>
        <time>2017-07-20T10:27:32Z</time>
      </trkpt>
      <trkpt lat="60.115165083013" lon="21.526353502862">
        <ele>7</ele>
        <time>2017-07-20T10:27:33Z</time>
      </trkpt>
      <trkpt lat="60.115155779104" lon="21.526330117361">
        <ele>7</ele>
        <time>2017-07-20T10:27:34Z</time>
      </trkpt>
      <trkpt lat="60.115144295901" lon="21.526320897271">
        <ele>7</ele>
        <time>2017-07-20T10:27:35Z</time>
      </trkpt>
      <trkpt lat="60.115134572897" lon="21.526296841218">
        <ele>7</ele>
        <time>2017-07-20T10:27:36Z</time>
      </trkpt>
      <trkpt lat="60.11512342497" lon="21.526290638612">
        <ele>7</ele>
        <time>2017-07-20T10:27:37Z</time>
      </trkpt>
      <trkpt lat="60.115112025586" lon="21.526269432405">
        <ele>7</ele>
        <time>2017-07-20T10:27:38Z</time>
      </trkpt>
      <trkpt lat="60.115101548211" lon="21.52626566055">
        <ele>7</ele>
        <time>2017-07-20T10:27:39Z</time>
      </trkpt>
      <trkpt lat="60.11508905918" lon="21.526263481256">
        <ele>7</ele>
        <time>2017-07-20T10:27:40Z</time>
      </trkpt>
      <trkpt lat="60.115080090547" lon="21.526260379953">
        <ele>7</ele>
        <time>2017-07-20T10:27:41Z</time>
      </trkpt>
      <trkpt lat="60.115066679507" lon="21.526259541763">
        <ele>7</ele>
        <time>2017-07-20T10:27:42Z</time>
      </trkpt>
      <trkpt lat="60.115055112485" lon="21.526260296134">
        <ele>7</ele>
        <time>2017-07-20T10:27:43Z</time>
      </trkpt>
      <trkpt lat="60.115042707273" lon="21.526262726885">
        <ele>7</ele>
        <time>2017-07-20T10:27:44Z</time>
      </trkpt>
      <trkpt lat="60.115026614025" lon="21.526268510396">
        <ele>7</ele>
        <time>2017-07-20T10:27:45Z</time>
      </trkpt>
      <trkpt lat="60.115016052831" lon="21.526271360242">
        <ele>7</ele>
        <time>2017-07-20T10:27:46Z</time>
      </trkpt>
      <trkpt lat="60.114998367022" lon="21.526279490685">
        <ele>7</ele>
        <time>2017-07-20T10:27:47Z</time>
      </trkpt>
      <trkpt lat="60.114987554371" lon="21.526285693291">
        <ele>7</ele>
        <time>2017-07-20T10:27:48Z</time>
      </trkpt>
      <trkpt lat="60.11497590353" lon="21.526294242829">
        <ele>7</ele>
        <time>2017-07-20T10:27:49Z</time>
      </trkpt>
      <trkpt lat="60.114958972092" lon="21.526302624729">
        <ele>7</ele>
        <time>2017-07-20T10:27:50Z</time>
      </trkpt>
      <trkpt lat="60.114946985975" lon="21.526310587534">
        <ele>7</ele>
        <time>2017-07-20T10:27:51Z</time>
      </trkpt>
      <trkpt lat="60.114931395641" lon="21.526321232547">
        <ele>7</ele>
        <time>2017-07-20T10:27:52Z</time>
      </trkpt>
      <trkpt lat="60.114919241886" lon="21.526330536456">
        <ele>7</ele>
        <time>2017-07-20T10:27:53Z</time>
      </trkpt>
      <trkpt lat="60.114907004312" lon="21.526339337451">
        <ele>7</ele>
        <time>2017-07-20T10:27:54Z</time>
      </trkpt>
      <trkpt lat="60.114890659607" lon="21.526351658844">
        <ele>7</ele>
        <time>2017-07-20T10:27:55Z</time>
      </trkpt>
      <trkpt lat="60.114879930775" lon="21.526358867278">
        <ele>7</ele>
        <time>2017-07-20T10:27:56Z</time>
      </trkpt>
      <trkpt lat="60.114864256622" lon="21.526370350481">
        <ele>7</ele>
        <time>2017-07-20T10:27:57Z</time>
      </trkpt>
      <trkpt lat="60.114854868894" lon="21.526377642734">
        <ele>7</ele>
        <time>2017-07-20T10:27:58Z</time>
      </trkpt>
      <trkpt lat="60.114840284388" lon="21.526387449557">
        <ele>7</ele>
        <time>2017-07-20T10:27:59Z</time>
      </trkpt>
      <trkpt lat="60.114828298271" lon="21.526396585828">
        <ele>7</ele>
        <time>2017-07-20T10:28:00Z</time>
      </trkpt>
      <trkpt lat="60.114813378489" lon="21.526405135366">
        <ele>7</ele>
        <time>2017-07-20T10:28:01Z</time>
      </trkpt>
      <trkpt lat="60.114800135087" lon="21.526416450931">
        <ele>7</ele>
        <time>2017-07-20T10:28:02Z</time>
      </trkpt>
      <trkpt lat="60.114785885857" lon="21.526424162279">
        <ele>7</ele>
        <time>2017-07-20T10:28:03Z</time>
      </trkpt>
      <trkpt lat="60.114771971903" lon="21.526431957446">
        <ele>7</ele>
        <time>2017-07-20T10:28:04Z</time>
      </trkpt>
      <trkpt lat="60.114758979958" lon="21.526435561663">
        <ele>7</ele>
        <time>2017-07-20T10:28:05Z</time>
      </trkpt>
      <trkpt lat="60.114740791235" lon="21.526440506984">
        <ele>7</ele>
        <time>2017-07-20T10:28:06Z</time>
      </trkpt>
      <trkpt lat="60.114731068231" lon="21.526444530296">
        <ele>7</ele>
        <time>2017-07-20T10:28:07Z</time>
      </trkpt>
      <trkpt lat="60.114714220612" lon="21.526447128685">
        <ele>7</ele>
        <time>2017-07-20T10:28:08Z</time>
      </trkpt>
      <trkpt lat="60.114703072685" lon="21.526449727074">
        <ele>7</ele>
        <time>2017-07-20T10:28:09Z</time>
      </trkpt>
      <trkpt lat="60.114687901446" lon="21.526450565264">
        <ele>7</ele>
        <time>2017-07-20T10:28:10Z</time>
      </trkpt>
      <trkpt lat="60.114673065483" lon="21.526451906368">
        <ele>7</ele>
        <time>2017-07-20T10:28:11Z</time>
      </trkpt>
      <trkpt lat="60.114659738262" lon="21.526450565264">
        <ele>7</ele>
        <time>2017-07-20T10:28:12Z</time>
      </trkpt>
      <trkpt lat="60.114642471548" lon="21.526449475617">
        <ele>7</ele>
        <time>2017-07-20T10:28:13Z</time>
      </trkpt>
      <trkpt lat="60.114632077992" lon="21.526447883056">
        <ele>7</ele>
        <time>2017-07-20T10:28:14Z</time>
      </trkpt>
      <trkpt lat="60.114615062735" lon="21.52644335683">
        <ele>7</ele>
        <time>2017-07-20T10:28:15Z</time>
      </trkpt>
      <trkpt lat="60.114606429378" lon="21.526440423165">
        <ele>7</ele>
        <time>2017-07-20T10:28:16Z</time>
      </trkpt>
      <trkpt lat="60.114588827388" lon="21.526434052921">
        <ele>7</ele>
        <time>2017-07-20T10:28:17Z</time>
      </trkpt>
      <trkpt lat="60.114573739968" lon="21.526429610514">
        <ele>7</ele>
        <time>2017-07-20T10:28:18Z</time>
      </trkpt>
      <trkpt lat="60.114563011136" lon="21.526423659365">
        <ele>7</ele>
        <time>2017-07-20T10:28:19Z</time>
      </trkpt>
      <trkpt lat="60.11454507387" lon="21.526416367112">
        <ele>7</ele>
        <time>2017-07-20T10:28:20Z</time>
      </trkpt>
      <trkpt lat="60.114535099409" lon="21.526411924705">
        <ele>7</ele>
        <time>2017-07-20T10:28:21Z</time>
      </trkpt>
      <trkpt lat="60.114518670885" lon="21.52640563828">
        <ele>7</ele>
        <time>2017-07-20T10:28:22Z</time>
      </trkpt>
      <trkpt lat="60.114502493818" lon="21.526399938588">
        <ele>7</ele>
        <time>2017-07-20T10:28:23Z</time>
      </trkpt>
      <trkpt lat="60.114493860461" lon="21.526396669647">
        <ele>7</ele>
        <time>2017-07-20T10:28:24Z</time>
      </trkpt>
      <trkpt lat="60.114476509928" lon="21.526391808145">
        <ele>7</ele>
        <time>2017-07-20T10:28:25Z</time>
      </trkpt>
      <trkpt lat="60.114464439992" lon="21.526386695186">
        <ele>7</ele>
        <time>2017-07-20T10:28:26Z</time>
      </trkpt>
      <trkpt lat="60.114447424735" lon="21.52637965439">
        <ele>7</ele>
        <time>2017-07-20T10:28:27Z</time>
      </trkpt>
      <trkpt lat="60.114437282636" lon="21.526376050173">
        <ele>7</ele>
        <time>2017-07-20T10:28:28Z</time>
      </trkpt>
      <trkpt lat="60.114421943759" lon="21.526370601938">
        <ele>7</ele>
        <time>2017-07-20T10:28:29Z</time>
      </trkpt>
      <trkpt lat="60.114407694529" lon="21.526365572798">
        <ele>7</ele>
        <time>2017-07-20T10:28:30Z</time>
      </trkpt>
      <trkpt lat="60.114394115851" lon="21.526360292201">
        <ele>7</ele>
        <time>2017-07-20T10:28:31Z</time>
      </trkpt>
      <trkpt lat="60.114378357879" lon="21.526355430699">
        <ele>7</ele>
        <time>2017-07-20T10:28:32Z</time>
      </trkpt>
      <trkpt lat="60.114367796685" lon="21.526352916129">
        <ele>7</ele>
        <time>2017-07-20T10:28:33Z</time>
      </trkpt>
      <trkpt lat="60.114353044541" lon="21.526350233921">
        <ele>7</ele>
        <time>2017-07-20T10:28:34Z</time>
      </trkpt>
      <trkpt lat="60.114339633501" lon="21.526349647188">
        <ele>7</ele>
        <time>2017-07-20T10:28:35Z</time>
      </trkpt>
      <trkpt lat="60.114323959348" lon="21.52634696498">
        <ele>7</ele>
        <time>2017-07-20T10:28:36Z</time>
      </trkpt>
      <trkpt lat="60.114308871928" lon="21.526346042971">
        <ele>7</ele>
        <time>2017-07-20T10:28:37Z</time>
      </trkpt>
      <trkpt lat="60.114297221087" lon="21.526343863677">
        <ele>7</ele>
        <time>2017-07-20T10:28:38Z</time>
      </trkpt>
      <trkpt lat="60.114280960201" lon="21.526340343279">
        <ele>7</ele>
        <time>2017-07-20T10:28:39Z</time>
      </trkpt>
      <trkpt lat="60.11426930936" lon="21.526337912528">
        <ele>7</ele>
        <time>2017-07-20T10:28:40Z</time>
      </trkpt>
      <trkpt lat="60.114253048474" lon="21.526334475949">
        <ele>7</ele>
        <time>2017-07-20T10:28:41Z</time>
      </trkpt>
      <trkpt lat="60.114239721253" lon="21.526330620275">
        <ele>7</ele>
        <time>2017-07-20T10:28:42Z</time>
      </trkpt>
      <trkpt lat="60.11422656167" lon="21.526324836764">
        <ele>7</ele>
        <time>2017-07-20T10:28:43Z</time>
      </trkpt>
      <trkpt lat="60.114214659372" lon="21.526315868131">
        <ele>7</ele>
        <time>2017-07-20T10:28:44Z</time>
      </trkpt>
      <trkpt lat="60.114201080694" lon="21.526310838991">
        <ele>7</ele>
        <time>2017-07-20T10:28:45Z</time>
      </trkpt>
      <trkpt lat="60.114189262215" lon="21.526302457091">
        <ele>7</ele>
        <time>2017-07-20T10:28:46Z</time>
      </trkpt>
      <trkpt lat="60.114175767356" lon="21.526300948349">
        <ele>7</ele>
        <time>2017-07-20T10:28:47Z</time>
      </trkpt>
      <trkpt lat="60.114165206162" lon="21.526299271969">
        <ele>7</ele>
        <time>2017-07-20T10:28:48Z</time>
      </trkpt>
      <trkpt lat="60.114154644968" lon="21.526302289453">
        <ele>7</ele>
        <time>2017-07-20T10:28:49Z</time>
      </trkpt>
      <trkpt lat="60.11414274267" lon="21.526301451263">
        <ele>7</ele>
        <time>2017-07-20T10:28:50Z</time>
      </trkpt>
      <trkpt lat="60.114127152336" lon="21.526304468747">
        <ele>7</ele>
        <time>2017-07-20T10:28:51Z</time>
      </trkpt>
      <trkpt lat="60.114117680789" lon="21.526304552566">
        <ele>7</ele>
        <time>2017-07-20T10:28:52Z</time>
      </trkpt>
      <trkpt lat="60.114100246437" lon="21.526307318593">
        <ele>7</ele>
        <time>2017-07-20T10:28:53Z</time>
      </trkpt>
      <trkpt lat="60.114090691071" lon="21.526310336077">
        <ele>7</ele>
        <time>2017-07-20T10:28:54Z</time>
      </trkpt>
      <trkpt lat="60.114074262547" lon="21.526313856475">
        <ele>7</ele>
        <time>2017-07-20T10:28:55Z</time>
      </trkpt>
      <trkpt lat="60.114062444068" lon="21.526315784312">
        <ele>7</ele>
        <time>2017-07-20T10:28:56Z</time>
      </trkpt>
      <trkpt lat="60.114046686096" lon="21.526318801796">
        <ele>7</ele>
        <time>2017-07-20T10:28:57Z</time>
      </trkpt>
      <trkpt lat="60.114033358875" lon="21.526319639986">
        <ele>7</ele>
        <time>2017-07-20T10:28:58Z</time>
      </trkpt>
      <trkpt lat="60.114020283111" lon="21.526320394357">
        <ele>7</ele>
        <time>2017-07-20T10:28:59Z</time>
      </trkpt>
      <trkpt lat="60.114003938406" lon="21.526322070737">
        <ele>7</ele>
        <time>2017-07-20T10:29:00Z</time>
      </trkpt>
      <trkpt lat="60.113992203746" lon="21.526321651642">
        <ele>7</ele>
        <time>2017-07-20T10:29:01Z</time>
      </trkpt>
      <trkpt lat="60.11397594286" lon="21.526320897271">
        <ele>7</ele>
        <time>2017-07-20T10:29:02Z</time>
      </trkpt>
      <trkpt lat="60.113966555132" lon="21.526319975262">
        <ele>7</ele>
        <time>2017-07-20T10:29:03Z</time>
      </trkpt>
      <trkpt lat="60.113951719169" lon="21.526319807624">
        <ele>7</ele>
        <time>2017-07-20T10:29:04Z</time>
      </trkpt>
      <trkpt lat="60.113938727224" lon="21.526318885615">
        <ele>7</ele>
        <time>2017-07-20T10:29:05Z</time>
      </trkpt>
      <trkpt lat="60.113926070555" lon="21.526315868131">
        <ele>7</ele>
        <time>2017-07-20T10:29:06Z</time>
      </trkpt>
      <trkpt lat="60.113910061126" lon="21.52631092281">
        <ele>7</ele>
        <time>2017-07-20T10:29:07Z</time>
      </trkpt>
      <trkpt lat="60.113897153" lon="21.526319891443">
        <ele>7</ele>
        <time>2017-07-20T10:29:08Z</time>
      </trkpt>
      <trkpt lat="60.113883993417" lon="21.526314024113">
        <ele>7</ele>
        <time>2017-07-20T10:29:09Z</time>
      </trkpt>
      <trkpt lat="60.113872510214" lon="21.526324669126">
        <ele>7</ele>
        <time>2017-07-20T10:29:10Z</time>
      </trkpt>
      <trkpt lat="60.11385691988" lon="21.526327016058">
        <ele>7</ele>
        <time>2017-07-20T10:29:11Z</time>
      </trkpt>
      <trkpt lat="60.113848202704" lon="21.526339756546">
        <ele>7</ele>
        <time>2017-07-20T10:29:12Z</time>
      </trkpt>
      <trkpt lat="60.11383680332" lon="21.526348976636">
        <ele>7</ele>
        <time>2017-07-20T10:29:13Z</time>
      </trkpt>
      <trkpt lat="60.11382842142" lon="21.526363896418">
        <ele>7</ele>
        <time>2017-07-20T10:29:14Z</time>
      </trkpt>
      <trkpt lat="60.113820207158" lon="21.526375295802">
        <ele>7</ele>
        <time>2017-07-20T10:29:15Z</time>
      </trkpt>
      <trkpt lat="60.11381249581" lon="21.526390718498">
        <ele>7</ele>
        <time>2017-07-20T10:29:16Z</time>
      </trkpt>
      <trkpt lat="60.113807801946" lon="21.526401531149">
        <ele>7</ele>
        <time>2017-07-20T10:29:17Z</time>
      </trkpt>
      <trkpt lat="60.113797492209" lon="21.52642324027">
        <ele>7</ele>
        <time>2017-07-20T10:29:18Z</time>
      </trkpt>
      <trkpt lat="60.113790199956" lon="21.526431705989">
        <ele>7</ele>
        <time>2017-07-20T10:29:19Z</time>
      </trkpt>
      <trkpt lat="60.113781398961" lon="21.52644251864">
        <ele>7</ele>
        <time>2017-07-20T10:29:20Z</time>
      </trkpt>
      <trkpt lat="60.113771927414" lon="21.526454169481">
        <ele>7</ele>
        <time>2017-07-20T10:29:21Z</time>
      </trkpt>
      <trkpt lat="60.11376471898" lon="21.526473950765">
        <ele>7</ele>
        <time>2017-07-20T10:29:22Z</time>
      </trkpt>
      <trkpt lat="60.113754912157" lon="21.526481829751">
        <ele>7</ele>
        <time>2017-07-20T10:29:23Z</time>
      </trkpt>
      <trkpt lat="60.113746949352" lon="21.526498425913">
        <ele>7</ele>
        <time>2017-07-20T10:29:24Z</time>
      </trkpt>
      <trkpt lat="60.113736555796" lon="21.526509490021">
        <ele>7</ele>
        <time>2017-07-20T10:29:25Z</time>
      </trkpt>
      <trkpt lat="60.113727168068" lon="21.52652801402">
        <ele>7</ele>
        <time>2017-07-20T10:29:26Z</time>
      </trkpt>
      <trkpt lat="60.113718786168" lon="21.526540922146">
        <ele>7</ele>
        <time>2017-07-20T10:29:27Z</time>
      </trkpt>
      <trkpt lat="60.11371191301" lon="21.52656237981">
        <ele>7</ele>
        <time>2017-07-20T10:29:28Z</time>
      </trkpt>
      <trkpt lat="60.11370520749" lon="21.526578808334">
        <ele>7</ele>
        <time>2017-07-20T10:29:29Z</time>
      </trkpt>
      <trkpt lat="60.113700094531" lon="21.52660177474">
        <ele>7</ele>
        <time>2017-07-20T10:29:30Z</time>
      </trkpt>
      <trkpt lat="60.113694813934" lon="21.526615437237">
        <ele>7</ele>
        <time>2017-07-20T10:29:31Z</time>
      </trkpt>
      <trkpt lat="60.113689030423" lon="21.526644690068">
        <ele>7</ele>
        <time>2017-07-20T10:29:32Z</time>
      </trkpt>
      <trkpt lat="60.11368509093" lon="21.526660783316">
        <ele>7</ele>
        <time>2017-07-20T10:29:33Z</time>
      </trkpt>
      <trkpt lat="60.113679558876" lon="21.526686348111">
        <ele>7</ele>
        <time>2017-07-20T10:29:34Z</time>
      </trkpt>
      <trkpt lat="60.113675451745" lon="21.52670990125">
        <ele>7</ele>
        <time>2017-07-20T10:29:35Z</time>
      </trkpt>
      <trkpt lat="60.113669584415" lon="21.526735130769">
        <ele>7</ele>
        <time>2017-07-20T10:29:36Z</time>
      </trkpt>
      <trkpt lat="60.11366413618" lon="21.526754660596">
        <ele>7</ele>
        <time>2017-07-20T10:29:37Z</time>
      </trkpt>
      <trkpt lat="60.11365575428" lon="21.52677695645">
        <ele>7</ele>
        <time>2017-07-20T10:29:38Z</time>
      </trkpt>
      <trkpt lat="60.113654161719" lon="21.526798581752">
        <ele>7</ele>
        <time>2017-07-20T10:29:39Z</time>
      </trkpt>
      <trkpt lat="60.113645193086" lon="21.526821212882">
        <ele>7</ele>
        <time>2017-07-20T10:29:40Z</time>
      </trkpt>
      <trkpt lat="60.113643516706" lon="21.52684317346">
        <ele>7</ele>
        <time>2017-07-20T10:29:41Z</time>
      </trkpt>
      <trkpt lat="60.113636392091" lon="21.526870079359">
        <ele>7</ele>
        <time>2017-07-20T10:29:42Z</time>
      </trkpt>
      <trkpt lat="60.113635972996" lon="21.526890782652">
        <ele>7</ele>
        <time>2017-07-20T10:29:43Z</time>
      </trkpt>
      <trkpt lat="60.113632536417" lon="21.526920789854">
        <ele>7</ele>
        <time>2017-07-20T10:29:44Z</time>
      </trkpt>
      <trkpt lat="60.113632452598" lon="21.526945348821">
        <ele>7</ele>
        <time>2017-07-20T10:29:45Z</time>
      </trkpt>
      <trkpt lat="60.113633709883" lon="21.526972338539">
        <ele>7</ele>
        <time>2017-07-20T10:29:46Z</time>
      </trkpt>
      <trkpt lat="60.113635386263" lon="21.526994466755">
        <ele>7</ele>
        <time>2017-07-20T10:29:47Z</time>
      </trkpt>
      <trkpt lat="60.113636559729" lon="21.52701835517">
        <ele>7</ele>
        <time>2017-07-20T10:29:48Z</time>
      </trkpt>
      <trkpt lat="60.11363899048" lon="21.527042159766">
        <ele>7</ele>
        <time>2017-07-20T10:29:49Z</time>
      </trkpt>
      <trkpt lat="60.113642427059" lon="21.527073005158">
        <ele>7</ele>
        <time>2017-07-20T10:29:50Z</time>
      </trkpt>
      <trkpt lat="60.11364653419" lon="21.527104018188">
        <ele>7</ele>
        <time>2017-07-20T10:29:51Z</time>
      </trkpt>
      <trkpt lat="60.113649132579" lon="21.527130253535">
        <ele>7</ele>
        <time>2017-07-20T10:29:52Z</time>
      </trkpt>
      <trkpt lat="60.113654748452" lon="21.527162775307">
        <ele>7</ele>
        <time>2017-07-20T10:29:53Z</time>
      </trkpt>
      <trkpt lat="60.113656508651" lon="21.527185490256">
        <ele>7</ele>
        <time>2017-07-20T10:29:54Z</time>
      </trkpt>
      <trkpt lat="60.113663549447" lon="21.527219772227">
        <ele>7</ele>
        <time>2017-07-20T10:29:55Z</time>
      </trkpt>
      <trkpt lat="60.113666064017" lon="21.527241900443">
        <ele>7</ele>
        <time>2017-07-20T10:29:56Z</time>
      </trkpt>
      <trkpt lat="60.113674362098" lon="21.527275595681">
        <ele>7</ele>
        <time>2017-07-20T10:29:57Z</time>
      </trkpt>
      <trkpt lat="60.113678720686" lon="21.527297304802">
        <ele>7</ele>
        <time>2017-07-20T10:29:58Z</time>
      </trkpt>
      <trkpt lat="60.113685845301" lon="21.527326557633">
        <ele>7</ele>
        <time>2017-07-20T10:29:59Z</time>
      </trkpt>
      <trkpt lat="60.113692886097" lon="21.527353379713">
        <ele>7</ele>
        <time>2017-07-20T10:30:00Z</time>
      </trkpt>
      <trkpt lat="60.113699843074" lon="21.52738129144">
        <ele>7</ele>
        <time>2017-07-20T10:30:01Z</time>
      </trkpt>
      <trkpt lat="60.113707889698" lon="21.527408867891">
        <ele>7</ele>
        <time>2017-07-20T10:30:02Z</time>
      </trkpt>
      <trkpt lat="60.113713337933" lon="21.527434181229">
        <ele>7</ele>
        <time>2017-07-20T10:30:03Z</time>
      </trkpt>
      <trkpt lat="60.113721552195" lon="21.527460668033">
        <ele>7</ele>
        <time>2017-07-20T10:30:04Z</time>
      </trkpt>
      <trkpt lat="60.113727503344" lon="21.527485310819">
        <ele>7</ele>
        <time>2017-07-20T10:30:05Z</time>
      </trkpt>
      <trkpt lat="60.113737310167" lon="21.527516491487">
        <ele>7</ele>
        <time>2017-07-20T10:30:06Z</time>
      </trkpt>
      <trkpt lat="60.113742339307" lon="21.527537949151">
        <ele>7</ele>
        <time>2017-07-20T10:30:07Z</time>
      </trkpt>
      <trkpt lat="60.113749380103" lon="21.52756736962">
        <ele>7</ele>
        <time>2017-07-20T10:30:08Z</time>
      </trkpt>
      <trkpt lat="60.113756001804" lon="21.527590084569">
        <ele>7</ele>
        <time>2017-07-20T10:30:09Z</time>
      </trkpt>
      <trkpt lat="60.113762372048" lon="21.52761682283">
        <ele>7</ele>
        <time>2017-07-20T10:30:10Z</time>
      </trkpt>
      <trkpt lat="60.113771089224" lon="21.527645908023">
        <ele>7</ele>
        <time>2017-07-20T10:30:11Z</time>
      </trkpt>
      <trkpt lat="60.113775280174" lon="21.527667784782">
        <ele>7</ele>
        <time>2017-07-20T10:30:12Z</time>
      </trkpt>
      <trkpt lat="60.113783242979" lon="21.527699300726">
        <ele>7</ele>
        <time>2017-07-20T10:30:13Z</time>
      </trkpt>
      <trkpt lat="60.113787853024" lon="21.527721764218">
        <ele>7</ele>
        <time>2017-07-20T10:30:14Z</time>
      </trkpt>
      <trkpt lat="60.113792546888" lon="21.527751100868">
        <ele>7</ele>
        <time>2017-07-20T10:30:15Z</time>
      </trkpt>
      <trkpt lat="60.113795312915" lon="21.527777252396">
        <ele>7</ele>
        <time>2017-07-20T10:30:16Z</time>
      </trkpt>
      <trkpt lat="60.113797827485" lon="21.527812372557">
        <ele>7</ele>
        <time>2017-07-20T10:30:17Z</time>
      </trkpt>
      <trkpt lat="60.113800928788" lon="21.527835255144">
        <ele>7</ele>
        <time>2017-07-20T10:30:18Z</time>
      </trkpt>
      <trkpt lat="60.113804197729" lon="21.527863334509">
        <ele>7</ele>
        <time>2017-07-20T10:30:19Z</time>
      </trkpt>
      <trkpt lat="60.113808221041" lon="21.527888983123">
        <ele>7</ele>
        <time>2017-07-20T10:30:20Z</time>
      </trkpt>
      <trkpt lat="60.113812663448" lon="21.52792192399">
        <ele>7</ele>
        <time>2017-07-20T10:30:21Z</time>
      </trkpt>
      <trkpt lat="60.113818446959" lon="21.527941034722">
        <ele>7</ele>
        <time>2017-07-20T10:30:22Z</time>
      </trkpt>
      <trkpt lat="60.113826242126" lon="21.527965174594">
        <ele>7</ele>
        <time>2017-07-20T10:30:23Z</time>
      </trkpt>
      <trkpt lat="60.113833366741" lon="21.527984201507">
        <ele>7</ele>
        <time>2017-07-20T10:30:24Z</time>
      </trkpt>
      <trkpt lat="60.113838647338" lon="21.528005240076">
        <ele>7</ele>
        <time>2017-07-20T10:30:25Z</time>
      </trkpt>
      <trkpt lat="60.113848286523" lon="21.528030804871">
        <ele>7</ele>
        <time>2017-07-20T10:30:26Z</time>
      </trkpt>
      <trkpt lat="60.113854656767" lon="21.52805016706">
        <ele>7</ele>
        <time>2017-07-20T10:30:27Z</time>
      </trkpt>
      <trkpt lat="60.113861194649" lon="21.52807279819">
        <ele>7</ele>
        <time>2017-07-20T10:30:28Z</time>
      </trkpt>
      <trkpt lat="60.113867564893" lon="21.528094507311">
        <ele>7</ele>
        <time>2017-07-20T10:30:29Z</time>
      </trkpt>
      <trkpt lat="60.11387452187" lon="21.528117892812">
        <ele>7</ele>
        <time>2017-07-20T10:30:30Z</time>
      </trkpt>
      <trkpt lat="60.113880221562" lon="21.528139099019">
        <ele>7</ele>
        <time>2017-07-20T10:30:31Z</time>
      </trkpt>
      <trkpt lat="60.113885753616" lon="21.52816248452">
        <ele>7</ele>
        <time>2017-07-20T10:30:32Z</time>
      </trkpt>
      <trkpt lat="60.113890196023" lon="21.528183523089">
        <ele>7</ele>
        <time>2017-07-20T10:30:33Z</time>
      </trkpt>
      <trkpt lat="60.113893884059" lon="21.528200035432">
        <ele>7</ele>
        <time>2017-07-20T10:30:34Z</time>
      </trkpt>
      <trkpt lat="60.113896817724" lon="21.528219313802">
        <ele>7</ele>
        <time>2017-07-20T10:30:35Z</time>
      </trkpt>
      <trkpt lat="60.113899248475" lon="21.528240855285">
        <ele>7</ele>
        <time>2017-07-20T10:30:36Z</time>
      </trkpt>
      <trkpt lat="60.113907462737" lon="21.528259882198">
        <ele>7</ele>
        <time>2017-07-20T10:30:37Z</time>
      </trkpt>
      <trkpt lat="60.113906289271" lon="21.528278909111">
        <ele>7</ele>
        <time>2017-07-20T10:30:38Z</time>
      </trkpt>
      <trkpt lat="60.113911988963" lon="21.528294750902">
        <ele>7</ele>
        <time>2017-07-20T10:30:39Z</time>
      </trkpt>
      <trkpt lat="60.113917521017" lon="21.528309335408">
        <ele>7</ele>
        <time>2017-07-20T10:30:40Z</time>
      </trkpt>
      <trkpt lat="60.113920706139" lon="21.528319645145">
        <ele>7</ele>
        <time>2017-07-20T10:30:41Z</time>
      </trkpt>
      <trkpt lat="60.11392481327" lon="21.52833515166">
        <ele>7</ele>
        <time>2017-07-20T10:30:42Z</time>
      </trkpt>
      <trkpt lat="60.113929339496" lon="21.528350071442">
        <ele>7</ele>
        <time>2017-07-20T10:30:43Z</time>
      </trkpt>
      <trkpt lat="60.113933446627" lon="21.528363063387">
        <ele>7</ele>
        <time>2017-07-20T10:30:44Z</time>
      </trkpt>
      <trkpt lat="60.113940571242" lon="21.528378821359">
        <ele>7</ele>
        <time>2017-07-20T10:30:45Z</time>
      </trkpt>
      <trkpt lat="60.113945600382" lon="21.528391478028">
        <ele>7</ele>
        <time>2017-07-20T10:30:46Z</time>
      </trkpt>
      <trkpt lat="60.113948701685" lon="21.528400698118">
        <ele>7</ele>
        <time>2017-07-20T10:30:47Z</time>
      </trkpt>
      <trkpt lat="60.113958927603" lon="21.528407906552">
        <ele>7</ele>
        <time>2017-07-20T10:30:48Z</time>
      </trkpt>
      <trkpt lat="60.113962280363" lon="21.528419138298">
        <ele>7</ele>
        <time>2017-07-20T10:30:49Z</time>
      </trkpt>
      <trkpt lat="60.113966890408" lon="21.528432214062">
        <ele>7</ele>
        <time>2017-07-20T10:30:50Z</time>
      </trkpt>
      <trkpt lat="60.113971165177" lon="21.528442020885">
        <ele>7</ele>
        <time>2017-07-20T10:30:51Z</time>
      </trkpt>
      <trkpt lat="60.113974685575" lon="21.528448894043">
        <ele>7</ele>
        <time>2017-07-20T10:30:52Z</time>
      </trkpt>
      <trkpt lat="60.113980888181" lon="21.528461047798">
        <ele>7</ele>
        <time>2017-07-20T10:30:53Z</time>
      </trkpt>
      <trkpt lat="60.113985079131" lon="21.52846842387">
        <ele>7</ele>
        <time>2017-07-20T10:30:54Z</time>
      </trkpt>
      <trkpt lat="60.11399019209" lon="21.528474877933">
        <ele>7</ele>
        <time>2017-07-20T10:30:55Z</time>
      </trkpt>
      <trkpt lat="60.113993209574" lon="21.528481583453">
        <ele>7</ele>
        <time>2017-07-20T10:30:56Z</time>
      </trkpt>
      <trkpt lat="60.114001507655" lon="21.528492228466">
        <ele>7</ele>
        <time>2017-07-20T10:30:57Z</time>
      </trkpt>
      <trkpt lat="60.114008129356" lon="21.528503208755">
        <ele>7</ele>
        <time>2017-07-20T10:30:58Z</time>
      </trkpt>
      <trkpt lat="60.114014751057" lon="21.528509411361">
        <ele>7</ele>
        <time>2017-07-20T10:30:59Z</time>
      </trkpt>
      <trkpt lat="60.114020618387" lon="21.528519637279">
        <ele>7</ele>
        <time>2017-07-20T10:31:00Z</time>
      </trkpt>
      <trkpt lat="60.114025060794" lon="21.528532210129">
        <ele>7</ele>
        <time>2017-07-20T10:31:01Z</time>
      </trkpt>
      <trkpt lat="60.114030173753" lon="21.528552410508">
        <ele>7</ele>
        <time>2017-07-20T10:31:02Z</time>
      </trkpt>
      <trkpt lat="60.114038890929" lon="21.528559199847">
        <ele>7</ele>
        <time>2017-07-20T10:31:03Z</time>
      </trkpt>
      <trkpt lat="60.114044003888" lon="21.52856984486">
        <ele>7</ele>
        <time>2017-07-20T10:31:04Z</time>
      </trkpt>
      <trkpt lat="60.114055151815" lon="21.528583172081">
        <ele>7</ele>
        <time>2017-07-20T10:31:05Z</time>
      </trkpt>
      <trkpt lat="60.114060097136" lon="21.52859247599">
        <ele>7</ele>
        <time>2017-07-20T10:31:06Z</time>
      </trkpt>
      <trkpt lat="60.114073340538" lon="21.528606306125">
        <ele>7</ele>
        <time>2017-07-20T10:31:07Z</time>
      </trkpt>
      <trkpt lat="60.114080465153" lon="21.528616615862">
        <ele>7</ele>
        <time>2017-07-20T10:31:08Z</time>
      </trkpt>
      <trkpt lat="60.114092870365" lon="21.52863103273">
        <ele>7</ele>
        <time>2017-07-20T10:31:09Z</time>
      </trkpt>
      <trkpt lat="60.114106532862" lon="21.528647461254">
        <ele>7</ele>
        <time>2017-07-20T10:31:10Z</time>
      </trkpt>
      <trkpt lat="60.114126481784" lon="21.528666320529">
        <ele>7</ele>
        <time>2017-07-20T10:31:12Z</time>
      </trkpt>
      <trkpt lat="60.114138467901" lon="21.528682497596">
        <ele>7</ele>
        <time>2017-07-20T10:31:13Z</time>
      </trkpt>
      <trkpt lat="60.114151040751" lon="21.528692807333">
        <ele>7</ele>
        <time>2017-07-20T10:31:14Z</time>
      </trkpt>
      <trkpt lat="60.114162188678" lon="21.528707056563">
        <ele>7</ele>
        <time>2017-07-20T10:31:15Z</time>
      </trkpt>
      <trkpt lat="60.114176437908" lon="21.528720299965">
        <ele>7</ele>
        <time>2017-07-20T10:31:16Z</time>
      </trkpt>
      <trkpt lat="60.114185909455" lon="21.528733459548">
        <ele>7</ele>
        <time>2017-07-20T10:31:17Z</time>
      </trkpt>
      <trkpt lat="60.114203343807" lon="21.528747876416">
        <ele>7</ele>
        <time>2017-07-20T10:31:18Z</time>
      </trkpt>
      <trkpt lat="60.11421231244" lon="21.528758018515">
        <ele>7</ele>
        <time>2017-07-20T10:31:19Z</time>
      </trkpt>
      <trkpt lat="60.114229579154" lon="21.528772267745">
        <ele>7</ele>
        <time>2017-07-20T10:31:20Z</time>
      </trkpt>
      <trkpt lat="60.114240056529" lon="21.528781990749">
        <ele>7</ele>
        <time>2017-07-20T10:31:21Z</time>
      </trkpt>
      <trkpt lat="60.114254557216" lon="21.528794228323">
        <ele>7</ele>
        <time>2017-07-20T10:31:22Z</time>
      </trkpt>
      <trkpt lat="60.114263944944" lon="21.528801352938">
        <ele>7</ele>
        <time>2017-07-20T10:31:23Z</time>
      </trkpt>
      <trkpt lat="60.114280960201" lon="21.528814009607">
        <ele>7</ele>
        <time>2017-07-20T10:31:24Z</time>
      </trkpt>
      <trkpt lat="60.114293952146" lon="21.528823900249">
        <ele>7</ele>
        <time>2017-07-20T10:31:25Z</time>
      </trkpt>
      <trkpt lat="60.114306692634" lon="21.528835802547">
        <ele>7</ele>
        <time>2017-07-20T10:31:26Z</time>
      </trkpt>
      <trkpt lat="60.11432043895" lon="21.528846279922">
        <ele>7</ele>
        <time>2017-07-20T10:31:27Z</time>
      </trkpt>
      <trkpt lat="60.114331838334" lon="21.5288598586">
        <ele>7</ele>
        <time>2017-07-20T10:31:28Z</time>
      </trkpt>
      <trkpt lat="60.114345249374" lon="21.528873185821">
        <ele>7</ele>
        <time>2017-07-20T10:31:29Z</time>
      </trkpt>
      <trkpt lat="60.114356313482" lon="21.528887183594">
        <ele>7</ele>
        <time>2017-07-20T10:31:30Z</time>
      </trkpt>
      <trkpt lat="60.114370143617" lon="21.528905875231">
        <ele>7</ele>
        <time>2017-07-20T10:31:31Z</time>
      </trkpt>
      <trkpt lat="60.114378357879" lon="21.528919789185">
        <ele>7</ele>
        <time>2017-07-20T10:31:32Z</time>
      </trkpt>
      <trkpt lat="60.114391433643" lon="21.528941246849">
        <ele>7</ele>
        <time>2017-07-20T10:31:33Z</time>
      </trkpt>
      <trkpt lat="60.114398139163" lon="21.528955160803">
        <ele>7</ele>
        <time>2017-07-20T10:31:34Z</time>
      </trkpt>
      <trkpt lat="60.114409790004" lon="21.528980055046">
        <ele>7</ele>
        <time>2017-07-20T10:31:35Z</time>
      </trkpt>
      <trkpt lat="60.114418171904" lon="21.528998746683">
        <ele>7</ele>
        <time>2017-07-20T10:31:36Z</time>
      </trkpt>
      <trkpt lat="60.114425715614" lon="21.529021461632">
        <ele>7</ele>
        <time>2017-07-20T10:31:37Z</time>
      </trkpt>
      <trkpt lat="60.114435690075" lon="21.529047696979">
        <ele>7</ele>
        <time>2017-07-20T10:31:38Z</time>
      </trkpt>
      <trkpt lat="60.114440467758" lon="21.529066723892">
        <ele>7</ele>
        <time>2017-07-20T10:31:39Z</time>
      </trkpt>
      <trkpt lat="60.114448849658" lon="21.52909790456">
        <ele>7</ele>
        <time>2017-07-20T10:31:40Z</time>
      </trkpt>
      <trkpt lat="60.114453459703" lon="21.529116763835">
        <ele>7</ele>
        <time>2017-07-20T10:31:41Z</time>
      </trkpt>
      <trkpt lat="60.114458237386" lon="21.529145010838">
        <ele>7</ele>
        <time>2017-07-20T10:31:42Z</time>
      </trkpt>
      <trkpt lat="60.114460332861" lon="21.529173174022">
        <ele>7</ele>
        <time>2017-07-20T10:31:43Z</time>
      </trkpt>
      <trkpt lat="60.114465529639" lon="21.529199744645">
        <ele>7</ele>
        <time>2017-07-20T10:31:44Z</time>
      </trkpt>
      <trkpt lat="60.114467373657" lon="21.529223800698">
        <ele>7</ele>
        <time>2017-07-20T10:31:45Z</time>
      </trkpt>
      <trkpt lat="60.114471564607" lon="21.529245928914">
        <ele>7</ele>
        <time>2017-07-20T10:31:46Z</time>
      </trkpt>
      <trkpt lat="60.114475923195" lon="21.529275852297">
        <ele>7</ele>
        <time>2017-07-20T10:31:47Z</time>
      </trkpt>
      <trkpt lat="60.114483550724" lon="21.529304266938">
        <ele>7</ele>
        <time>2017-07-20T10:31:48Z</time>
      </trkpt>
      <trkpt lat="60.114488412226" lon="21.529320192548">
        <ele>7</ele>
        <time>2017-07-20T10:31:49Z</time>
      </trkpt>
      <trkpt lat="60.114498470506" lon="21.529341482574">
        <ele>7</ele>
        <time>2017-07-20T10:31:50Z</time>
      </trkpt>
      <trkpt lat="60.114503751103" lon="21.529355815623">
        <ele>7</ele>
        <time>2017-07-20T10:31:51Z</time>
      </trkpt>
      <trkpt lat="60.114512971193" lon="21.529376518916">
        <ele>7</ele>
        <time>2017-07-20T10:31:52Z</time>
      </trkpt>
      <trkpt lat="60.114521856007" lon="21.529392779802">
        <ele>7</ele>
        <time>2017-07-20T10:31:53Z</time>
      </trkpt>
      <trkpt lat="60.114529818812" lon="21.529411219982">
        <ele>7</ele>
        <time>2017-07-20T10:31:54Z</time>
      </trkpt>
      <trkpt lat="60.114541302015" lon="21.529431671818">
        <ele>7</ele>
        <time>2017-07-20T10:31:55Z</time>
      </trkpt>
      <trkpt lat="60.114547169345" lon="21.529445585772">
        <ele>7</ele>
        <time>2017-07-20T10:31:56Z</time>
      </trkpt>
      <trkpt lat="60.114559826014" lon="21.529470228558">
        <ele>7</ele>
        <time>2017-07-20T10:31:57Z</time>
      </trkpt>
      <trkpt lat="60.114567872638" lon="21.529486405625">
        <ele>7</ele>
        <time>2017-07-20T10:31:58Z</time>
      </trkpt>
      <trkpt lat="60.114575500167" lon="21.529507360375">
        <ele>7</ele>
        <time>2017-07-20T10:31:59Z</time>
      </trkpt>
      <trkpt lat="60.114582540963" lon="21.529530662057">
        <ele>7</ele>
        <time>2017-07-20T10:32:00Z</time>
      </trkpt>
      <trkpt lat="60.114587486284" lon="21.529561507449">
        <ele>7</ele>
        <time>2017-07-20T10:32:01Z</time>
      </trkpt>
      <trkpt lat="60.114596790193" lon="21.529578355068">
        <ele>7</ele>
        <time>2017-07-20T10:32:02Z</time>
      </trkpt>
      <trkpt lat="60.114601064962" lon="21.529610290107">
        <ele>7</ele>
        <time>2017-07-20T10:32:03Z</time>
      </trkpt>
      <trkpt lat="60.114609027767" lon="21.529626550993">
        <ele>7</ele>
        <time>2017-07-20T10:32:04Z</time>
      </trkpt>
      <trkpt lat="60.114616068563" lon="21.529657731661">
        <ele>7</ele>
        <time>2017-07-20T10:32:05Z</time>
      </trkpt>
      <trkpt lat="60.114624618101" lon="21.529677345307">
        <ele>7</ele>
        <time>2017-07-20T10:32:06Z</time>
      </trkpt>
      <trkpt lat="60.114635179295" lon="21.529698300057">
        <ele>7</ele>
        <time>2017-07-20T10:32:07Z</time>
      </trkpt>
      <trkpt lat="60.114642220091" lon="21.529714644762">
        <ele>7</ele>
        <time>2017-07-20T10:32:08Z</time>
      </trkpt>
      <trkpt lat="60.114651104905" lon="21.529735180417">
        <ele>7</ele>
        <time>2017-07-20T10:32:09Z</time>
      </trkpt>
      <trkpt lat="60.114660576452" lon="21.529756638081">
        <ele>7</ele>
        <time>2017-07-20T10:32:10Z</time>
      </trkpt>
      <trkpt lat="60.114667030515" lon="21.529776922279">
        <ele>7</ele>
        <time>2017-07-20T10:32:11Z</time>
      </trkpt>
      <trkpt lat="60.114679435727" lon="21.529803241445">
        <ele>7</ele>
        <time>2017-07-20T10:32:12Z</time>
      </trkpt>
      <trkpt lat="60.11468588979" lon="21.529820675797">
        <ele>7</ele>
        <time>2017-07-20T10:32:13Z</time>
      </trkpt>
      <trkpt lat="60.114697121536" lon="21.529846324411">
        <ele>7</ele>
        <time>2017-07-20T10:32:14Z</time>
      </trkpt>
      <trkpt lat="60.114704162332" lon="21.529864513134">
        <ele>7</ele>
        <time>2017-07-20T10:32:15Z</time>
      </trkpt>
      <trkpt lat="60.114713382422" lon="21.529889407377">
        <ele>7</ele>
        <time>2017-07-20T10:32:16Z</time>
      </trkpt>
      <trkpt lat="60.114723692159" lon="21.529913547249">
        <ele>7</ele>
        <time>2017-07-20T10:32:17Z</time>
      </trkpt>
      <trkpt lat="60.114730481498" lon="21.529935675465">
        <ele>7</ele>
        <time>2017-07-20T10:32:18Z</time>
      </trkpt>
      <trkpt lat="60.11474037214" lon="21.52996207845">
        <ele>7</ele>
        <time>2017-07-20T10:32:19Z</time>
      </trkpt>
      <trkpt lat="60.114746658565" lon="21.529983536114">
        <ele>7</ele>
        <time>2017-07-20T10:32:20Z</time>
      </trkpt>
      <trkpt lat="60.114756381569" lon="21.530012537488">
        <ele>7</ele>
        <time>2017-07-20T10:32:21Z</time>
      </trkpt>
      <trkpt lat="60.114762500356" lon="21.530031145306">
        <ele>7</ele>
        <time>2017-07-20T10:32:22Z</time>
      </trkpt>
      <trkpt lat="60.114770295523" lon="21.530057883567">
        <ele>7</ele>
        <time>2017-07-20T10:32:23Z</time>
      </trkpt>
      <trkpt lat="60.114778425966" lon="21.530082610172">
        <ele>7</ele>
        <time>2017-07-20T10:32:24Z</time>
      </trkpt>
      <trkpt lat="60.114784963848" lon="21.530108594062">
        <ele>7</ele>
        <time>2017-07-20T10:32:25Z</time>
      </trkpt>
      <trkpt lat="60.114793513386" lon="21.530134913228">
        <ele>7</ele>
        <time>2017-07-20T10:32:26Z</time>
      </trkpt>
      <trkpt lat="60.114798291069" lon="21.530158298729">
        <ele>7</ele>
        <time>2017-07-20T10:32:27Z</time>
      </trkpt>
      <trkpt lat="60.114806337693" lon="21.530188892664">
        <ele>7</ele>
        <time>2017-07-20T10:32:28Z</time>
      </trkpt>
      <trkpt lat="60.114810696281" lon="21.530209512138">
        <ele>7</ele>
        <time>2017-07-20T10:32:29Z</time>
      </trkpt>
      <trkpt lat="60.114814635774" lon="21.530240776625">
        <ele>7</ele>
        <time>2017-07-20T10:32:30Z</time>
      </trkpt>
      <trkpt lat="60.114816815068" lon="21.530271789655">
        <ele>7</ele>
        <time>2017-07-20T10:32:31Z</time>
      </trkpt>
      <trkpt lat="60.114823604407" lon="21.530298947011">
        <ele>7</ele>
        <time>2017-07-20T10:32:32Z</time>
      </trkpt>
      <trkpt lat="60.114823520588" lon="21.530326020548">
        <ele>7</ele>
        <time>2017-07-20T10:32:33Z</time>
      </trkpt>
      <trkpt lat="60.114828633547" lon="21.530351166248">
        <ele>7</ele>
        <time>2017-07-20T10:32:34Z</time>
      </trkpt>
      <trkpt lat="60.114832153945" lon="21.530379077975">
        <ele>7</ele>
        <time>2017-07-20T10:32:35Z</time>
      </trkpt>
      <trkpt lat="60.114839027103" lon="21.530407408797">
        <ele>7</ele>
        <time>2017-07-20T10:32:36Z</time>
      </trkpt>
      <trkpt lat="60.114841541673" lon="21.530425429882">
        <ele>7</ele>
        <time>2017-07-20T10:32:37Z</time>
      </trkpt>
      <trkpt lat="60.114847576641" lon="21.530453090152">
        <ele>7</ele>
        <time>2017-07-20T10:32:38Z</time>
      </trkpt>
      <trkpt lat="60.114852102867" lon="21.530473541988">
        <ele>7</ele>
        <time>2017-07-20T10:32:39Z</time>
      </trkpt>
      <trkpt lat="60.114858221654" lon="21.530500866982">
        <ele>7</ele>
        <time>2017-07-20T10:32:40Z</time>
      </trkpt>
      <trkpt lat="60.114864759536" lon="21.530524252483">
        <ele>7</ele>
        <time>2017-07-20T10:32:41Z</time>
      </trkpt>
      <trkpt lat="60.114870543047" lon="21.530551158382">
        <ele>7</ele>
        <time>2017-07-20T10:32:42Z</time>
      </trkpt>
      <trkpt lat="60.114878338214" lon="21.53057898629">
        <ele>7</ele>
        <time>2017-07-20T10:32:43Z</time>
      </trkpt>
      <trkpt lat="60.114881942431" lon="21.530598432298">
        <ele>7</ele>
        <time>2017-07-20T10:32:44Z</time>
      </trkpt>
      <trkpt lat="60.114889989055" lon="21.530631456984">
        <ele>7</ele>
        <time>2017-07-20T10:32:45Z</time>
      </trkpt>
      <trkpt lat="60.114893593272" lon="21.530651405906">
        <ele>7</ele>
        <time>2017-07-20T10:32:46Z</time>
      </trkpt>
      <trkpt lat="60.114896946032" lon="21.530683005669">
        <ele>7</ele>
        <time>2017-07-20T10:32:47Z</time>
      </trkpt>
      <trkpt lat="60.114899376783" lon="21.530711923224">
        <ele>7</ele>
        <time>2017-07-20T10:32:48Z</time>
      </trkpt>
      <trkpt lat="60.114904992656" lon="21.530740589322">
        <ele>7</ele>
        <time>2017-07-20T10:32:49Z</time>
      </trkpt>
      <trkpt lat="60.114906082303" lon="21.53076757904">
        <ele>7</ele>
        <time>2017-07-20T10:32:50Z</time>
      </trkpt>
      <trkpt lat="60.114912452547" lon="21.530795574586">
        <ele>7</ele>
        <time>2017-07-20T10:32:51Z</time>
      </trkpt>
      <trkpt lat="60.11491303928" lon="21.530821642295">
        <ele>7</ele>
        <time>2017-07-20T10:32:52Z</time>
      </trkpt>
      <trkpt lat="60.114918822791" lon="21.530845865986">
        <ele>7</ele>
        <time>2017-07-20T10:32:53Z</time>
      </trkpt>
      <trkpt lat="60.114926282682" lon="21.530868413297">
        <ele>7</ele>
        <time>2017-07-20T10:32:54Z</time>
      </trkpt>
      <trkpt lat="60.114935754229" lon="21.530890122418">
        <ele>7</ele>
        <time>2017-07-20T10:32:55Z</time>
      </trkpt>
      <trkpt lat="60.114939442265" lon="21.530906970037">
        <ele>7</ele>
        <time>2017-07-20T10:32:56Z</time>
      </trkpt>
      <trkpt lat="60.114950087278" lon="21.530931696642">
        <ele>7</ele>
        <time>2017-07-20T10:32:57Z</time>
      </trkpt>
      <trkpt lat="60.11495578697" lon="21.530946867881">
        <ele>7</ele>
        <time>2017-07-20T10:32:58Z</time>
      </trkpt>
      <trkpt lat="60.114964671784" lon="21.530966984441">
        <ele>7</ele>
        <time>2017-07-20T10:32:59Z</time>
      </trkpt>
      <trkpt lat="60.114974478607" lon="21.530987017182">
        <ele>7</ele>
        <time>2017-07-20T10:33:00Z</time>
      </trkpt>
      <trkpt lat="60.114981435584" lon="21.531005708819">
        <ele>7</ele>
        <time>2017-07-20T10:33:01Z</time>
      </trkpt>
      <trkpt lat="60.114993170244" lon="21.531027920854">
        <ele>7</ele>
        <time>2017-07-20T10:33:02Z</time>
      </trkpt>
      <trkpt lat="60.114999121393" lon="21.531044014102">
        <ele>7</ele>
        <time>2017-07-20T10:33:03Z</time>
      </trkpt>
      <trkpt lat="60.115009934044" lon="21.531065220309">
        <ele>7</ele>
        <time>2017-07-20T10:33:04Z</time>
      </trkpt>
      <trkpt lat="60.115017310116" lon="21.531082906118">
        <ele>7</ele>
        <time>2017-07-20T10:33:05Z</time>
      </trkpt>
      <trkpt lat="60.11503038588" lon="21.531108219456">
        <ele>7</ele>
        <time>2017-07-20T10:33:06Z</time>
      </trkpt>
      <trkpt lat="60.115038264866" lon="21.531123893609">
        <ele>7</ele>
        <time>2017-07-20T10:33:07Z</time>
      </trkpt>
      <trkpt lat="60.11504882606" lon="21.531148704033">
        <ele>7</ele>
        <time>2017-07-20T10:33:08Z</time>
      </trkpt>
      <trkpt lat="60.115058297607" lon="21.531169155869">
        <ele>7</ele>
        <time>2017-07-20T10:33:09Z</time>
      </trkpt>
      <trkpt lat="60.115065422222" lon="21.53119170318">
        <ele>7</ele>
        <time>2017-07-20T10:33:10Z</time>
      </trkpt>
      <trkpt lat="60.115075480502" lon="21.531218860536">
        <ele>7</ele>
        <time>2017-07-20T10:33:11Z</time>
      </trkpt>
      <trkpt lat="60.115082102203" lon="21.531238809458">
        <ele>7</ele>
        <time>2017-07-20T10:33:12Z</time>
      </trkpt>
      <trkpt lat="60.115091741388" lon="21.531271666506">
        <ele>7</ele>
        <time>2017-07-20T10:33:13Z</time>
      </trkpt>
      <trkpt lat="60.115096770528" lon="21.531286586288">
        <ele>7</ele>
        <time>2017-07-20T10:33:14Z</time>
      </trkpt>
      <trkpt lat="60.115104900971" lon="21.531318772784">
        <ele>7</ele>
        <time>2017-07-20T10:33:15Z</time>
      </trkpt>
      <trkpt lat="60.115108505188" lon="21.531344002303">
        <ele>7</ele>
        <time>2017-07-20T10:33:16Z</time>
      </trkpt>
      <trkpt lat="60.115113199052" lon="21.531365376148">
        <ele>7</ele>
        <time>2017-07-20T10:33:17Z</time>
      </trkpt>
      <trkpt lat="60.115114791613" lon="21.531395970083">
        <ele>7</ele>
        <time>2017-07-20T10:33:18Z</time>
      </trkpt>
      <trkpt lat="60.115122502961" lon="21.53141801448">
        <ele>7</ele>
        <time>2017-07-20T10:33:19Z</time>
      </trkpt>
      <trkpt lat="60.11512342497" lon="21.531444333646">
        <ele>7</ele>
        <time>2017-07-20T10:33:20Z</time>
      </trkpt>
      <trkpt lat="60.115129459938" lon="21.531473251201">
        <ele>7</ele>
        <time>2017-07-20T10:33:21Z</time>
      </trkpt>
      <trkpt lat="60.115131387775" lon="21.531493954494">
        <ele>7</ele>
        <time>2017-07-20T10:33:22Z</time>
      </trkpt>
      <trkpt lat="60.115137758019" lon="21.531524799886">
        <ele>7</ele>
        <time>2017-07-20T10:33:23Z</time>
      </trkpt>
      <trkpt lat="60.115139099123" lon="21.531544664989">
        <ele>7</ele>
        <time>2017-07-20T10:33:24Z</time>
      </trkpt>
      <trkpt lat="60.115143792987" lon="21.531579114598">
        <ele>7</ele>
        <time>2017-07-20T10:33:25Z</time>
      </trkpt>
      <trkpt lat="60.115147816299" lon="21.53159571076">
        <ele>7</ele>
        <time>2017-07-20T10:33:26Z</time>
      </trkpt>
      <trkpt lat="60.115150749964" lon="21.531627981075">
        <ele>7</ele>
        <time>2017-07-20T10:33:27Z</time>
      </trkpt>
      <trkpt lat="60.11515695257" lon="21.531645834522">
        <ele>7</ele>
        <time>2017-07-20T10:33:28Z</time>
      </trkpt>
      <trkpt lat="60.115160221511" lon="21.531677434285">
        <ele>7</ele>
        <time>2017-07-20T10:33:29Z</time>
      </trkpt>
      <trkpt lat="60.115169860696" lon="21.531700065415">
        <ele>7</ele>
        <time>2017-07-20T10:33:30Z</time>
      </trkpt>
      <trkpt lat="60.115176650035" lon="21.531720852527">
        <ele>7</ele>
        <time>2017-07-20T10:33:31Z</time>
      </trkpt>
      <trkpt lat="60.115184696659" lon="21.53174155582">
        <ele>7</ele>
        <time>2017-07-20T10:33:32Z</time>
      </trkpt>
      <trkpt lat="60.115187881781" lon="21.531756894697">
        <ele>7</ele>
        <time>2017-07-20T10:33:33Z</time>
      </trkpt>
      <trkpt lat="60.115196598957" lon="21.531782459492">
        <ele>7</ele>
        <time>2017-07-20T10:33:34Z</time>
      </trkpt>
      <trkpt lat="60.115201879554" lon="21.531800899672">
        <ele>7</ele>
        <time>2017-07-20T10:33:35Z</time>
      </trkpt>
      <trkpt lat="60.115210764368" lon="21.531826883562">
        <ele>7</ele>
        <time>2017-07-20T10:33:36Z</time>
      </trkpt>
      <trkpt lat="60.115218643354" lon="21.53184800595">
        <ele>7</ele>
        <time>2017-07-20T10:33:37Z</time>
      </trkpt>
      <trkpt lat="60.115225097417" lon="21.53186728432">
        <ele>7</ele>
        <time>2017-07-20T10:33:38Z</time>
      </trkpt>
      <trkpt lat="60.11523574243" lon="21.5318941064">
        <ele>7</ele>
        <time>2017-07-20T10:33:39Z</time>
      </trkpt>
      <trkpt lat="60.115241442122" lon="21.531910618743">
        <ele>7</ele>
        <time>2017-07-20T10:33:40Z</time>
      </trkpt>
      <trkpt lat="60.115250746031" lon="21.531936770271">
        <ele>7</ele>
        <time>2017-07-20T10:33:41Z</time>
      </trkpt>
      <trkpt lat="60.115258457379" lon="21.531959401401">
        <ele>7</ele>
        <time>2017-07-20T10:33:42Z</time>
      </trkpt>
      <trkpt lat="60.115264827623" lon="21.531981445798">
        <ele>7</ele>
        <time>2017-07-20T10:33:43Z</time>
      </trkpt>
      <trkpt lat="60.11527513736" lon="21.532011285362">
        <ele>7</ele>
        <time>2017-07-20T10:33:44Z</time>
      </trkpt>
      <trkpt lat="60.115280585595" lon="21.532027294791">
        <ele>7</ele>
        <time>2017-07-20T10:33:45Z</time>
      </trkpt>
      <trkpt lat="60.115289470409" lon="21.532053781595">
        <ele>7</ele>
        <time>2017-07-20T10:33:46Z</time>
      </trkpt>
      <trkpt lat="60.115297181757" lon="21.53207599363">
        <ele>7</ele>
        <time>2017-07-20T10:33:47Z</time>
      </trkpt>
      <trkpt lat="60.115304390191" lon="21.53209694838">
        <ele>7</ele>
        <time>2017-07-20T10:33:48Z</time>
      </trkpt>
      <trkpt lat="60.11531620867" lon="21.532127290858">
        <ele>7</ele>
        <time>2017-07-20T10:33:49Z</time>
      </trkpt>
      <trkpt lat="60.115324339113" lon="21.532148161789">
        <ele>7</ele>
        <time>2017-07-20T10:33:50Z</time>
      </trkpt>
      <trkpt lat="60.115331379909" lon="21.532168445987">
        <ele>7</ele>
        <time>2017-07-20T10:33:51Z</time>
      </trkpt>
      <trkpt lat="60.115343282207" lon="21.532198704646">
        <ele>7</ele>
        <time>2017-07-20T10:33:52Z</time>
      </trkpt>
      <trkpt lat="60.115349987727" lon="21.532215636084">
        <ele>7</ele>
        <time>2017-07-20T10:33:53Z</time>
      </trkpt>
      <trkpt lat="60.115357866713" lon="21.532240949422">
        <ele>7</ele>
        <time>2017-07-20T10:33:54Z</time>
      </trkpt>
      <trkpt lat="60.115367757355" lon="21.532270621348">
        <ele>7</ele>
        <time>2017-07-20T10:33:55Z</time>
      </trkpt>
      <trkpt lat="60.115373289409" lon="21.53228637932">
        <ele>7</ele>
        <time>2017-07-20T10:33:56Z</time>
      </trkpt>
      <trkpt lat="60.11538326387" lon="21.532319571644">
        <ele>7</ele>
        <time>2017-07-20T10:33:57Z</time>
      </trkpt>
      <trkpt lat="60.115390388485" lon="21.532339939661">
        <ele>7</ele>
        <time>2017-07-20T10:33:58Z</time>
      </trkpt>
      <trkpt lat="60.115396591091" lon="21.532360726773">
        <ele>7</ele>
        <time>2017-07-20T10:33:59Z</time>
      </trkpt>
      <trkpt lat="60.115406984647" lon="21.532395008744">
        <ele>7</ele>
        <time>2017-07-20T10:34:00Z</time>
      </trkpt>
      <trkpt lat="60.11541260052" lon="21.532411688725">
        <ele>7</ele>
        <time>2017-07-20T10:34:01Z</time>
      </trkpt>
      <trkpt lat="60.115420814782" lon="21.532441193013">
        <ele>7</ele>
        <time>2017-07-20T10:34:02Z</time>
      </trkpt>
      <trkpt lat="60.115429196682" lon="21.532467595998">
        <ele>7</ele>
        <time>2017-07-20T10:34:03Z</time>
      </trkpt>
      <trkpt lat="60.115434896374" lon="21.532485952359">
        <ele>7</ele>
        <time>2017-07-20T10:34:04Z</time>
      </trkpt>
      <trkpt lat="60.115446211939" lon="21.532521407796">
        <ele>7</ele>
        <time>2017-07-20T10:34:05Z</time>
      </trkpt>
      <trkpt lat="60.115452163088" lon="21.5325395127">
        <ele>7</ele>
        <time>2017-07-20T10:34:06Z</time>
      </trkpt>
      <trkpt lat="60.115460209712" lon="21.532568262617">
        <ele>7</ele>
        <time>2017-07-20T10:34:07Z</time>
      </trkpt>
      <trkpt lat="60.115469513621" lon="21.532599443285">
        <ele>7</ele>
        <time>2017-07-20T10:34:08Z</time>
      </trkpt>
      <trkpt lat="60.115474794218" lon="21.532615704171">
        <ele>7</ele>
        <time>2017-07-20T10:34:09Z</time>
      </trkpt>
      <trkpt lat="60.115485355412" lon="21.532651746341">
        <ele>7</ele>
        <time>2017-07-20T10:34:10Z</time>
      </trkpt>
      <trkpt lat="60.115491641837" lon="21.532671611444">
        <ele>7</ele>
        <time>2017-07-20T10:34:11Z</time>
      </trkpt>
      <trkpt lat="60.115499437004" lon="21.53270128337">
        <ele>7</ele>
        <time>2017-07-20T10:34:12Z</time>
      </trkpt>
      <trkpt lat="60.115508573275" lon="21.532732966952">
        <ele>7</ele>
        <time>2017-07-20T10:34:13Z</time>
      </trkpt>
      <trkpt lat="60.115513602415" lon="21.532752748236">
        <ele>7</ele>
        <time>2017-07-20T10:34:14Z</time>
      </trkpt>
      <trkpt lat="60.115520894668" lon="21.532788622768">
        <ele>7</ele>
        <time>2017-07-20T10:34:15Z</time>
      </trkpt>
      <trkpt lat="60.115526259084" lon="21.532808655509">
        <ele>7</ele>
        <time>2017-07-20T10:34:16Z</time>
      </trkpt>
      <trkpt lat="60.115529695663" lon="21.532834974675">
        <ele>7</ele>
        <time>2017-07-20T10:34:17Z</time>
      </trkpt>
      <trkpt lat="60.115535060079" lon="21.532866993533">
        <ele>7</ele>
        <time>2017-07-20T10:34:18Z</time>
      </trkpt>
      <trkpt lat="60.115538161382" lon="21.532889373206">
        <ele>7</ele>
        <time>2017-07-20T10:34:19Z</time>
      </trkpt>
      <trkpt lat="60.115538999572" lon="21.532920972969">
        <ele>7</ele>
        <time>2017-07-20T10:34:20Z</time>
      </trkpt>
      <trkpt lat="60.115542184694" lon="21.532948717058">
        <ele>7</ele>
        <time>2017-07-20T10:34:21Z</time>
      </trkpt>
      <trkpt lat="60.115544280169" lon="21.532963133926">
        <ele>7</ele>
        <time>2017-07-20T10:34:22Z</time>
      </trkpt>
      <trkpt lat="60.115545118359" lon="21.532988614902">
        <ele>7</ele>
        <time>2017-07-20T10:34:23Z</time>
      </trkpt>
      <trkpt lat="60.115546543282" lon="21.533009318195">
        <ele>7</ele>
        <time>2017-07-20T10:34:24Z</time>
      </trkpt>
      <trkpt lat="60.115550818051" lon="21.533027674556">
        <ele>7</ele>
        <time>2017-07-20T10:34:25Z</time>
      </trkpt>
      <trkpt lat="60.115550566594" lon="21.533047036745">
        <ele>7</ele>
        <time>2017-07-20T10:34:26Z</time>
      </trkpt>
      <trkpt lat="60.115554170811" lon="21.533068075314">
        <ele>7</ele>
        <time>2017-07-20T10:34:27Z</time>
      </trkpt>
      <trkpt lat="60.115553584078" lon="21.533092801919">
        <ele>7</ele>
        <time>2017-07-20T10:34:28Z</time>
      </trkpt>
      <trkpt lat="60.115553500259" lon="21.533110068633">
        <ele>7</ele>
        <time>2017-07-20T10:34:29Z</time>
      </trkpt>
      <trkpt lat="60.115552494431" lon="21.53312876027">
        <ele>7</ele>
        <time>2017-07-20T10:34:30Z</time>
      </trkpt>
      <trkpt lat="60.115550231318" lon="21.533143931509">
        <ele>7</ele>
        <time>2017-07-20T10:34:31Z</time>
      </trkpt>
      <trkpt lat="60.115548471119" lon="21.53316396425">
        <ele>7</ele>
        <time>2017-07-20T10:34:32Z</time>
      </trkpt>
      <trkpt lat="60.115548135843" lon="21.533179470765">
        <ele>7</ele>
        <time>2017-07-20T10:34:33Z</time>
      </trkpt>
      <trkpt lat="60.115547884386" lon="21.533195396375">
        <ele>7</ele>
        <time>2017-07-20T10:34:34Z</time>
      </trkpt>
      <trkpt lat="60.115547381472" lon="21.533213333641">
        <ele>7</ele>
        <time>2017-07-20T10:34:35Z</time>
      </trkpt>
      <trkpt lat="60.115547297653" lon="21.533230600355">
        <ele>7</ele>
        <time>2017-07-20T10:34:36Z</time>
      </trkpt>
      <trkpt lat="60.115547130015" lon="21.533248369983">
        <ele>7</ele>
        <time>2017-07-20T10:34:37Z</time>
      </trkpt>
      <trkpt lat="60.115549728404" lon="21.533268738">
        <ele>7</ele>
        <time>2017-07-20T10:34:38Z</time>
      </trkpt>
      <trkpt lat="60.115550985689" lon="21.533285920895">
        <ele>7</ele>
        <time>2017-07-20T10:34:39Z</time>
      </trkpt>
      <trkpt lat="60.115553081164" lon="21.533293380786">
        <ele>7</ele>
        <time>2017-07-20T10:34:40Z</time>
      </trkpt>
      <trkpt lat="60.115554338449" lon="21.533316598649">
        <ele>7</ele>
        <time>2017-07-20T10:34:41Z</time>
      </trkpt>
      <trkpt lat="60.115556266286" lon="21.533338056313">
        <ele>7</ele>
        <time>2017-07-20T10:34:42Z</time>
      </trkpt>
      <trkpt lat="60.115557439752" lon="21.533349036602">
        <ele>7</ele>
        <time>2017-07-20T10:34:43Z</time>
      </trkpt>
      <trkpt lat="60.115560373417" lon="21.533372170646">
        <ele>7</ele>
        <time>2017-07-20T10:34:44Z</time>
      </trkpt>
      <trkpt lat="60.115564648186" lon="21.533395137052">
        <ele>7</ele>
        <time>2017-07-20T10:34:45Z</time>
      </trkpt>
      <trkpt lat="60.115567833308" lon="21.533416929992">
        <ele>7</ele>
        <time>2017-07-20T10:34:46Z</time>
      </trkpt>
      <trkpt lat="60.115570934611" lon="21.533436543638">
        <ele>7</ele>
        <time>2017-07-20T10:34:47Z</time>
      </trkpt>
      <trkpt lat="60.115575125561" lon="21.533463114261">
        <ele>7</ele>
        <time>2017-07-20T10:34:48Z</time>
      </trkpt>
      <trkpt lat="60.115579316511" lon="21.533488259961">
        <ele>7</ele>
        <time>2017-07-20T10:34:49Z</time>
      </trkpt>
      <trkpt lat="60.115584010375" lon="21.5335118131">
        <ele>7</ele>
        <time>2017-07-20T10:34:50Z</time>
      </trkpt>
      <trkpt lat="60.115586692583" lon="21.533527235796">
        <ele>7</ele>
        <time>2017-07-20T10:34:51Z</time>
      </trkpt>
      <trkpt lat="60.115592643732" lon="21.533554476971">
        <ele>7</ele>
        <time>2017-07-20T10:34:52Z</time>
      </trkpt>
      <trkpt lat="60.11559784051" lon="21.533577024282">
        <ele>7</ele>
        <time>2017-07-20T10:34:53Z</time>
      </trkpt>
      <trkpt lat="60.115602282917" lon="21.533601918525">
        <ele>7</ele>
        <time>2017-07-20T10:34:54Z</time>
      </trkpt>
      <trkpt lat="60.115609658989" lon="21.533632596279">
        <ele>7</ele>
        <time>2017-07-20T10:34:55Z</time>
      </trkpt>
      <trkpt lat="60.115612676473" lon="21.533655311228">
        <ele>7</ele>
        <time>2017-07-20T10:34:56Z</time>
      </trkpt>
      <trkpt lat="60.115619968726" lon="21.533687581543">
        <ele>7</ele>
        <time>2017-07-20T10:34:57Z</time>
      </trkpt>
      <trkpt lat="60.115623656762" lon="21.533706105542">
        <ele>7</ele>
        <time>2017-07-20T10:34:58Z</time>
      </trkpt>
      <trkpt lat="60.115628266807" lon="21.533742399169">
        <ele>7</ele>
        <time>2017-07-20T10:34:59Z</time>
      </trkpt>
      <trkpt lat="60.115632122481" lon="21.533765114118">
        <ele>7</ele>
        <time>2017-07-20T10:35:00Z</time>
      </trkpt>
      <trkpt lat="60.115634469413" lon="21.533798557899">
        <ele>7</ele>
        <time>2017-07-20T10:35:01Z</time>
      </trkpt>
      <trkpt lat="60.115636983983" lon="21.533831750223">
        <ele>7</ele>
        <time>2017-07-20T10:35:02Z</time>
      </trkpt>
      <trkpt lat="60.115638241268" lon="21.533850106584">
        <ele>7</ele>
        <time>2017-07-20T10:35:03Z</time>
      </trkpt>
      <trkpt lat="60.115638744182" lon="21.533884472374">
        <ele>7</ele>
        <time>2017-07-20T10:35:04Z</time>
      </trkpt>
      <trkpt lat="60.115640085286" lon="21.533912300282">
        <ele>7</ele>
        <time>2017-07-20T10:35:05Z</time>
      </trkpt>
      <trkpt lat="60.115641174933" lon="21.533937278344">
        <ele>7</ele>
        <time>2017-07-20T10:35:06Z</time>
      </trkpt>
      <trkpt lat="60.115644108598" lon="21.533976757093">
        <ele>7</ele>
        <time>2017-07-20T10:35:07Z</time>
      </trkpt>
      <trkpt lat="60.115646204073" lon="21.53399544873">
        <ele>7</ele>
        <time>2017-07-20T10:35:08Z</time>
      </trkpt>
      <trkpt lat="60.115648215729" lon="21.534022186991">
        <ele>7</ele>
        <time>2017-07-20T10:35:09Z</time>
      </trkpt>
      <trkpt lat="60.115651736127" lon="21.53405998936">
        <ele>7</ele>
        <time>2017-07-20T10:35:10Z</time>
      </trkpt>
      <trkpt lat="60.115654502154" lon="21.534078932454">
        <ele>7</ele>
        <time>2017-07-20T10:35:11Z</time>
      </trkpt>
      <trkpt lat="60.115657016724" lon="21.534111705683">
        <ele>7</ele>
        <time>2017-07-20T10:35:12Z</time>
      </trkpt>
      <trkpt lat="60.115660872398" lon="21.534142467256">
        <ele>7</ele>
        <time>2017-07-20T10:35:13Z</time>
      </trkpt>
      <trkpt lat="60.115663554606" lon="21.534161075074">
        <ele>7</ele>
        <time>2017-07-20T10:35:14Z</time>
      </trkpt>
      <trkpt lat="60.115669841031" lon="21.534201224375">
        <ele>7</ele>
        <time>2017-07-20T10:35:15Z</time>
      </trkpt>
      <trkpt lat="60.115672607058" lon="21.534222765858">
        <ele>7</ele>
        <time>2017-07-20T10:35:16Z</time>
      </trkpt>
      <trkpt lat="60.115675037809" lon="21.534250426128">
        <ele>7</ele>
        <time>2017-07-20T10:35:17Z</time>
      </trkpt>
      <trkpt lat="60.11567914494" lon="21.534282696443">
        <ele>7</ele>
        <time>2017-07-20T10:35:18Z</time>
      </trkpt>
      <trkpt lat="60.11568165951" lon="21.534301052804">
        <ele>7</ele>
        <time>2017-07-20T10:35:19Z</time>
      </trkpt>
      <trkpt lat="60.115688029754" lon="21.534337597888">
        <ele>7</ele>
        <time>2017-07-20T10:35:20Z</time>
      </trkpt>
      <trkpt lat="60.115691633971" lon="21.534359055552">
        <ele>7</ele>
        <time>2017-07-20T10:35:21Z</time>
      </trkpt>
      <trkpt lat="60.115696327835" lon="21.534386129089">
        <ele>7</ele>
        <time>2017-07-20T10:35:22Z</time>
      </trkpt>
      <trkpt lat="60.115702781898" lon="21.534419824327">
        <ele>7</ele>
        <time>2017-07-20T10:35:23Z</time>
      </trkpt>
      <trkpt lat="60.115705883201" lon="21.534436085213">
        <ele>7</ele>
        <time>2017-07-20T10:35:24Z</time>
      </trkpt>
      <trkpt lat="60.115712421083" lon="21.534474390496">
        <ele>7</ele>
        <time>2017-07-20T10:35:25Z</time>
      </trkpt>
      <trkpt lat="60.115718120775" lon="21.534497608359">
        <ele>7</ele>
        <time>2017-07-20T10:35:26Z</time>
      </trkpt>
      <trkpt lat="60.115722227906" lon="21.534524095163">
        <ele>7</ele>
        <time>2017-07-20T10:35:27Z</time>
      </trkpt>
      <trkpt lat="60.115727424684" lon="21.534558293315">
        <ele>7</ele>
        <time>2017-07-20T10:35:28Z</time>
      </trkpt>
      <trkpt lat="60.115729771616" lon="21.534574889477">
        <ele>7</ele>
        <time>2017-07-20T10:35:29Z</time>
      </trkpt>
      <trkpt lat="60.115734884575" lon="21.534613362398">
        <ele>7</ele>
        <time>2017-07-20T10:35:30Z</time>
      </trkpt>
      <trkpt lat="60.115738824068" lon="21.534635406795">
        <ele>7</ele>
        <time>2017-07-20T10:35:31Z</time>
      </trkpt>
      <trkpt lat="60.115742176828" lon="21.534665497816">
        <ele>7</ele>
        <time>2017-07-20T10:35:32Z</time>
      </trkpt>
      <trkpt lat="60.115746786873" lon="21.534697432855">
        <ele>7</ele>
        <time>2017-07-20T10:35:33Z</time>
      </trkpt>
      <trkpt lat="60.115747457425" lon="21.534717717053">
        <ele>7</ele>
        <time>2017-07-20T10:35:34Z</time>
      </trkpt>
      <trkpt lat="60.115746786873" lon="21.534748897721">
        <ele>7</ele>
        <time>2017-07-20T10:35:35Z</time>
      </trkpt>
      <trkpt lat="60.11574703833" lon="21.534778821104">
        <ele>7</ele>
        <time>2017-07-20T10:35:36Z</time>
      </trkpt>
      <trkpt lat="60.115748966167" lon="21.534809750315">
        <ele>7</ele>
        <time>2017-07-20T10:35:37Z</time>
      </trkpt>
      <trkpt lat="60.115748379434" lon="21.534830705065">
        <ele>7</ele>
        <time>2017-07-20T10:35:38Z</time>
      </trkpt>
      <trkpt lat="60.115748966167" lon="21.534860879905">
        <ele>7</ele>
        <time>2017-07-20T10:35:39Z</time>
      </trkpt>
      <trkpt lat="60.115751648375" lon="21.534884684501">
        <ele>7</ele>
        <time>2017-07-20T10:35:40Z</time>
      </trkpt>
      <trkpt lat="60.115756761334" lon="21.534913937332">
        <ele>7</ele>
        <time>2017-07-20T10:35:41Z</time>
      </trkpt>
      <trkpt lat="60.11575877299" lon="21.534929360028">
        <ele>7</ele>
        <time>2017-07-20T10:35:42Z</time>
      </trkpt>
      <trkpt lat="60.115763550673" lon="21.534958696678">
        <ele>7</ele>
        <time>2017-07-20T10:35:43Z</time>
      </trkpt>
      <trkpt lat="60.115768747451" lon="21.534985099663">
        <ele>7</ele>
        <time>2017-07-20T10:35:44Z</time>
      </trkpt>
      <trkpt lat="60.115771848754" lon="21.535007227879">
        <ele>7</ele>
        <time>2017-07-20T10:35:45Z</time>
      </trkpt>
      <trkpt lat="60.115777716084" lon="21.53504067166">
        <ele>7</ele>
        <time>2017-07-20T10:35:46Z</time>
      </trkpt>
      <trkpt lat="60.115780398292" lon="21.53505827365">
        <ele>7</ele>
        <time>2017-07-20T10:35:47Z</time>
      </trkpt>
      <trkpt lat="60.115786852355" lon="21.535094818734">
        <ele>7</ele>
        <time>2017-07-20T10:35:48Z</time>
      </trkpt>
      <trkpt lat="60.115789953658" lon="21.535111750172">
        <ele>7</ele>
        <time>2017-07-20T10:35:49Z</time>
      </trkpt>
      <trkpt lat="60.115794982798" lon="21.535151480378">
        <ele>7</ele>
        <time>2017-07-20T10:35:50Z</time>
      </trkpt>
      <trkpt lat="60.115797748825" lon="21.535169920558">
        <ele>7</ele>
        <time>2017-07-20T10:35:51Z</time>
      </trkpt>
      <trkpt lat="60.115800347214" lon="21.535203029063">
        <ele>7</ele>
        <time>2017-07-20T10:35:52Z</time>
      </trkpt>
      <trkpt lat="60.115801855956" lon="21.535231192247">
        <ele>7</ele>
        <time>2017-07-20T10:35:53Z</time>
      </trkpt>
      <trkpt lat="60.115801772137" lon="21.535258014327">
        <ele>7</ele>
        <time>2017-07-20T10:35:54Z</time>
      </trkpt>
      <trkpt lat="60.115802107413" lon="21.535293385945">
        <ele>7</ele>
        <time>2017-07-20T10:35:55Z</time>
      </trkpt>
      <trkpt lat="60.115800850128" lon="21.535313670143">
        <ele>7</ele>
        <time>2017-07-20T10:35:56Z</time>
      </trkpt>
      <trkpt lat="60.115798251739" lon="21.535351472512">
        <ele>7</ele>
        <time>2017-07-20T10:35:57Z</time>
      </trkpt>
      <trkpt lat="60.115797162092" lon="21.535366308475">
        <ele>7</ele>
        <time>2017-07-20T10:35:58Z</time>
      </trkpt>
      <trkpt lat="60.115792635866" lon="21.535400758084">
        <ele>7</ele>
        <time>2017-07-20T10:35:59Z</time>
      </trkpt>
      <trkpt lat="60.115790540391" lon="21.535420455549">
        <ele>7</ele>
        <time>2017-07-20T10:36:00Z</time>
      </trkpt>
      <trkpt lat="60.115783583414" lon="21.535452558226">
        <ele>7</ele>
        <time>2017-07-20T10:36:01Z</time>
      </trkpt>
      <trkpt lat="60.115780398292" lon="21.535472674786">
        <ele>7</ele>
        <time>2017-07-20T10:36:02Z</time>
      </trkpt>
      <trkpt lat="60.115773944229" lon="21.53549413245">
        <ele>7</ele>
        <time>2017-07-20T10:36:03Z</time>
      </trkpt>
      <trkpt lat="60.115766484338" lon="21.53551089625">
        <ele>7</ele>
        <time>2017-07-20T10:36:04Z</time>
      </trkpt>
      <trkpt lat="60.115753492393" lon="21.535532018638">
        <ele>7</ele>
        <time>2017-07-20T10:36:05Z</time>
      </trkpt>
      <trkpt lat="60.115750558728" lon="21.535554146854">
        <ele>7</ele>
        <time>2017-07-20T10:36:06Z</time>
      </trkpt>
      <trkpt lat="60.115738069697" lon="21.535572838491">
        <ele>7</ele>
        <time>2017-07-20T10:36:07Z</time>
      </trkpt>
      <trkpt lat="60.115734046385" lon="21.535593374146">
        <ele>7</ele>
        <time>2017-07-20T10:36:08Z</time>
      </trkpt>
      <trkpt lat="60.115728765788" lon="21.535620112407">
        <ele>7</ele>
        <time>2017-07-20T10:36:09Z</time>
      </trkpt>
      <trkpt lat="60.115723149915" lon="21.535635451284">
        <ele>7</ele>
        <time>2017-07-20T10:36:10Z</time>
      </trkpt>
      <trkpt lat="60.115716192938" lon="21.53566931416">
        <ele>7</ele>
        <time>2017-07-20T10:36:11Z</time>
      </trkpt>
      <trkpt lat="60.115710744703" lon="21.535687670521">
        <ele>7</ele>
        <time>2017-07-20T10:36:12Z</time>
      </trkpt>
      <trkpt lat="60.115703368631" lon="21.53572631108">
        <ele>7</ele>
        <time>2017-07-20T10:36:13Z</time>
      </trkpt>
      <trkpt lat="60.115699177681" lon="21.535745170355">
        <ele>7</ele>
        <time>2017-07-20T10:36:14Z</time>
      </trkpt>
      <trkpt lat="60.115693226532" lon="21.53578749895">
        <ele>7</ele>
        <time>2017-07-20T10:36:15Z</time>
      </trkpt>
      <trkpt lat="60.115689622315" lon="21.535810297718">
        <ele>7</ele>
        <time>2017-07-20T10:36:16Z</time>
      </trkpt>
      <trkpt lat="60.115682581519" lon="21.53584868682">
        <ele>7</ele>
        <time>2017-07-20T10:36:17Z</time>
      </trkpt>
      <trkpt lat="60.115677971474" lon="21.53587299433">
        <ele>7</ele>
        <time>2017-07-20T10:36:18Z</time>
      </trkpt>
      <trkpt lat="60.115670092488" lon="21.535907946853">
        <ele>7</ele>
        <time>2017-07-20T10:36:19Z</time>
      </trkpt>
      <trkpt lat="60.115663554606" lon="21.535933427829">
        <ele>7</ele>
        <time>2017-07-20T10:36:20Z</time>
      </trkpt>
      <trkpt lat="60.115654083059" lon="21.535969134723">
        <ele>7</ele>
        <time>2017-07-20T10:36:21Z</time>
      </trkpt>
      <trkpt lat="60.115647126082" lon="21.535990843844">
        <ele>7</ele>
        <time>2017-07-20T10:36:22Z</time>
      </trkpt>
      <trkpt lat="60.115635475241" lon="21.536023784711">
        <ele>7</ele>
        <time>2017-07-20T10:36:23Z</time>
      </trkpt>
      <trkpt lat="60.11562801535" lon="21.536042811624">
        <ele>7</ele>
        <time>2017-07-20T10:36:24Z</time>
      </trkpt>
      <trkpt lat="60.115613347025" lon="21.53607415993">
        <ele>7</ele>
        <time>2017-07-20T10:36:25Z</time>
      </trkpt>
      <trkpt lat="60.115605132763" lon="21.536089163531">
        <ele>7</ele>
        <time>2017-07-20T10:36:26Z</time>
      </trkpt>
      <trkpt lat="60.115588452782" lon="21.536115985611">
        <ele>7</ele>
        <time>2017-07-20T10:36:27Z</time>
      </trkpt>
      <trkpt lat="60.115579484149" lon="21.536129815746">
        <ele>7</ele>
        <time>2017-07-20T10:36:28Z</time>
      </trkpt>
      <trkpt lat="60.115563977634" lon="21.536149429392">
        <ele>7</ele>
        <time>2017-07-20T10:36:29Z</time>
      </trkpt>
      <trkpt lat="60.115551069508" lon="21.536168623943">
        <ele>7</ele>
        <time>2017-07-20T10:36:30Z</time>
      </trkpt>
      <trkpt lat="60.11553665264" lon="21.536186058295">
        <ele>7</ele>
        <time>2017-07-20T10:36:31Z</time>
      </trkpt>
      <trkpt lat="60.115521900496" lon="21.536205504303">
        <ele>7</ele>
        <time>2017-07-20T10:36:32Z</time>
      </trkpt>
      <trkpt lat="60.115511004026" lon="21.536218580067">
        <ele>7</ele>
        <time>2017-07-20T10:36:33Z</time>
      </trkpt>
      <trkpt lat="60.115494910778" lon="21.536239702455">
        <ele>7</ele>
        <time>2017-07-20T10:36:34Z</time>
      </trkpt>
      <trkpt lat="60.115484098127" lon="21.536253700228">
        <ele>7</ele>
        <time>2017-07-20T10:36:35Z</time>
      </trkpt>
      <trkpt lat="60.115466579956" lon="21.536276247539">
        <ele>7</ele>
        <time>2017-07-20T10:36:36Z</time>
      </trkpt>
      <trkpt lat="60.115457108409" lon="21.536288401294">
        <ele>7</ele>
        <time>2017-07-20T10:36:37Z</time>
      </trkpt>
      <trkpt lat="60.115440009333" lon="21.536307847302">
        <ele>7</ele>
        <time>2017-07-20T10:36:38Z</time>
      </trkpt>
      <trkpt lat="60.115430705424" lon="21.536322347989">
        <ele>7</ele>
        <time>2017-07-20T10:36:39Z</time>
      </trkpt>
      <trkpt lat="60.115414947452" lon="21.536337183952">
        <ele>7</ele>
        <time>2017-07-20T10:36:40Z</time>
      </trkpt>
      <trkpt lat="60.115400614403" lon="21.536353696295">
        <ele>7</ele>
        <time>2017-07-20T10:36:41Z</time>
      </trkpt>
      <trkpt lat="60.115387203363" lon="21.53636501186">
        <ele>7</ele>
        <time>2017-07-20T10:36:42Z</time>
      </trkpt>
      <trkpt lat="60.11537152921" lon="21.536380602194">
        <ele>7</ele>
        <time>2017-07-20T10:36:43Z</time>
      </trkpt>
      <trkpt lat="60.115360800378" lon="21.536388397361">
        <ele>7</ele>
        <time>2017-07-20T10:36:44Z</time>
      </trkpt>
      <trkpt lat="60.11534219256" lon="21.536400970211">
        <ele>7</ele>
        <time>2017-07-20T10:36:45Z</time>
      </trkpt>
      <trkpt lat="60.115333475384" lon="21.536408765378">
        <ele>7</ele>
        <time>2017-07-20T10:36:46Z</time>
      </trkpt>
      <trkpt lat="60.115315873394" lon="21.536411531405">
        <ele>7</ele>
        <time>2017-07-20T10:36:47Z</time>
      </trkpt>
      <trkpt lat="60.115300534517" lon="21.536411196129">
        <ele>7</ele>
        <time>2017-07-20T10:36:48Z</time>
      </trkpt>
      <trkpt lat="60.115285698554" lon="21.536422427875">
        <ele>7</ele>
        <time>2017-07-20T10:36:49Z</time>
      </trkpt>
      <trkpt lat="60.115270778772" lon="21.536419745667">
        <ele>7</ele>
        <time>2017-07-20T10:36:50Z</time>
      </trkpt>
      <trkpt lat="60.115257032456" lon="21.536430893594">
        <ele>7</ele>
        <time>2017-07-20T10:36:51Z</time>
      </trkpt>
      <trkpt lat="60.11524580071" lon="21.536444975186">
        <ele>7</ele>
        <time>2017-07-20T10:36:52Z</time>
      </trkpt>
      <trkpt lat="60.115236999715" lon="21.53645553638">
        <ele>7</ele>
        <time>2017-07-20T10:36:53Z</time>
      </trkpt>
      <trkpt lat="60.115223840132" lon="21.536472383999">
        <ele>7</ele>
        <time>2017-07-20T10:36:54Z</time>
      </trkpt>
      <trkpt lat="60.11521394949" lon="21.536489231618">
        <ele>7</ele>
        <time>2017-07-20T10:36:55Z</time>
      </trkpt>
      <trkpt lat="60.115202633925" lon="21.536507001246">
        <ele>7</ele>
        <time>2017-07-20T10:36:56Z</time>
      </trkpt>
      <trkpt lat="60.11519131836" lon="21.53652845891">
        <ele>7</ele>
        <time>2017-07-20T10:36:57Z</time>
      </trkpt>
      <trkpt lat="60.115181930632" lon="21.536542121407">
        <ele>7</ele>
        <time>2017-07-20T10:36:58Z</time>
      </trkpt>
      <trkpt lat="60.115169190144" lon="21.536565087813">
        <ele>7</ele>
        <time>2017-07-20T10:36:59Z</time>
      </trkpt>
      <trkpt lat="60.115159886235" lon="21.536581348699">
        <ele>7</ele>
        <time>2017-07-20T10:37:00Z</time>
      </trkpt>
      <trkpt lat="60.115145134091" lon="21.536605237114">
        <ele>7</ele>
        <time>2017-07-20T10:37:01Z</time>
      </trkpt>
      <trkpt lat="60.115137003648" lon="21.536617809964">
        <ele>7</ele>
        <time>2017-07-20T10:37:02Z</time>
      </trkpt>
      <trkpt lat="60.115121580952" lon="21.536637842705">
        <ele>7</ele>
        <time>2017-07-20T10:37:03Z</time>
      </trkpt>
      <trkpt lat="60.115114372518" lon="21.536649325908">
        <ele>7</ele>
        <time>2017-07-20T10:37:04Z</time>
      </trkpt>
      <trkpt lat="60.11509827927" lon="21.536667179355">
        <ele>7</ele>
        <time>2017-07-20T10:37:05Z</time>
      </trkpt>
      <trkpt lat="60.115089394456" lon="21.536681260947">
        <ele>7</ele>
        <time>2017-07-20T10:37:06Z</time>
      </trkpt>
      <trkpt lat="60.115077408339" lon="21.536692827969">
        <ele>7</ele>
        <time>2017-07-20T10:37:07Z</time>
      </trkpt>
      <trkpt lat="60.115062991471" lon="21.536707747751">
        <ele>7</ele>
        <time>2017-07-20T10:37:08Z</time>
      </trkpt>
      <trkpt lat="60.115053771381" lon="21.536716884022">
        <ele>7</ele>
        <time>2017-07-20T10:37:09Z</time>
      </trkpt>
      <trkpt lat="60.115037259038" lon="21.536730378881">
        <ele>7</ele>
        <time>2017-07-20T10:37:10Z</time>
      </trkpt>
      <trkpt lat="60.115028374224" lon="21.536741191532">
        <ele>7</ele>
        <time>2017-07-20T10:37:11Z</time>
      </trkpt>
      <trkpt lat="60.115013454442" lon="21.536751752726">
        <ele>7</ele>
        <time>2017-07-20T10:37:12Z</time>
      </trkpt>
      <trkpt lat="60.11500021104" lon="21.536762733015">
        <ele>7</ele>
        <time>2017-07-20T10:37:13Z</time>
      </trkpt>
      <trkpt lat="60.114990488036" lon="21.536770947277">
        <ele>7</ele>
        <time>2017-07-20T10:37:14Z</time>
      </trkpt>
      <trkpt lat="60.114972215494" lon="21.536780586462">
        <ele>7</ele>
        <time>2017-07-20T10:37:15Z</time>
      </trkpt>
      <trkpt lat="60.114963163042" lon="21.536786537611">
        <ele>7</ele>
        <time>2017-07-20T10:37:16Z</time>
      </trkpt>
      <trkpt lat="60.114946734518" lon="21.536793159312">
        <ele>7</ele>
        <time>2017-07-20T10:37:17Z</time>
      </trkpt>
      <trkpt lat="60.114935418953" lon="21.536798691366">
        <ele>7</ele>
        <time>2017-07-20T10:37:18Z</time>
      </trkpt>
      <trkpt lat="60.114919996257" lon="21.536802630859">
        <ele>7</ele>
        <time>2017-07-20T10:37:19Z</time>
      </trkpt>
      <trkpt lat="60.11490214281" lon="21.536807492361">
        <ele>7</ele>
        <time>2017-07-20T10:37:20Z</time>
      </trkpt>
      <trkpt lat="60.114890575788" lon="21.536809671655">
        <ele>7</ele>
        <time>2017-07-20T10:37:21Z</time>
      </trkpt>
      <trkpt lat="60.114872889979" lon="21.536812772958">
        <ele>7</ele>
        <time>2017-07-20T10:37:22Z</time>
      </trkpt>
      <trkpt lat="60.114863250794" lon="21.53681511989">
        <ele>7</ele>
        <time>2017-07-20T10:37:23Z</time>
      </trkpt>
      <trkpt lat="60.114845313528" lon="21.536815706623">
        <ele>7</ele>
        <time>2017-07-20T10:37:24Z</time>
      </trkpt>
      <trkpt lat="60.114832070126" lon="21.536818053555">
        <ele>7</ele>
        <time>2017-07-20T10:37:25Z</time>
      </trkpt>
      <trkpt lat="60.114816479792" lon="21.5368142817">
        <ele>7</ele>
        <time>2017-07-20T10:37:26Z</time>
      </trkpt>
      <trkpt lat="60.114802482019" lon="21.536804391058">
        <ele>7</ele>
        <time>2017-07-20T10:37:27Z</time>
      </trkpt>
      <trkpt lat="60.114786640228" lon="21.53680003247">
        <ele>7</ele>
        <time>2017-07-20T10:37:28Z</time>
      </trkpt>
      <trkpt lat="60.114775324663" lon="21.5367975179">
        <ele>7</ele>
        <time>2017-07-20T10:37:29Z</time>
      </trkpt>
      <trkpt lat="60.114759147596" lon="21.536794416597">
        <ele>7</ele>
        <time>2017-07-20T10:37:30Z</time>
      </trkpt>
      <trkpt lat="60.114747664393" lon="21.536799278099">
        <ele>7</ele>
        <time>2017-07-20T10:37:31Z</time>
      </trkpt>
      <trkpt lat="60.114736432647" lon="21.536809336379">
        <ele>7</ele>
        <time>2017-07-20T10:37:32Z</time>
      </trkpt>
      <trkpt lat="60.114724865625" lon="21.536816628632">
        <ele>7</ele>
        <time>2017-07-20T10:37:33Z</time>
      </trkpt>
      <trkpt lat="60.114713466241" lon="21.536827441283">
        <ele>7</ele>
        <time>2017-07-20T10:37:34Z</time>
      </trkpt>
      <trkpt lat="60.114697205355" lon="21.536842947798">
        <ele>7</ele>
        <time>2017-07-20T10:37:35Z</time>
      </trkpt>
      <trkpt lat="60.114685638333" lon="21.536856694114">
        <ele>7</ele>
        <time>2017-07-20T10:37:36Z</time>
      </trkpt>
      <trkpt lat="60.114669377447" lon="21.536873374095">
        <ele>7</ele>
        <time>2017-07-20T10:37:37Z</time>
      </trkpt>
      <trkpt lat="60.114658480977" lon="21.536886449859">
        <ele>7</ele>
        <time>2017-07-20T10:37:38Z</time>
      </trkpt>
      <trkpt lat="60.114639621702" lon="21.536902626926">
        <ele>7</ele>
        <time>2017-07-20T10:37:39Z</time>
      </trkpt>
      <trkpt lat="60.114629479603" lon="21.536913607215">
        <ele>7</ele>
        <time>2017-07-20T10:37:40Z</time>
      </trkpt>
      <trkpt lat="60.114608357215" lon="21.536928024083">
        <ele>7</ele>
        <time>2017-07-20T10:37:41Z</time>
      </trkpt>
      <trkpt lat="60.114598215116" lon="21.536935148698">
        <ele>7</ele>
        <time>2017-07-20T10:37:42Z</time>
      </trkpt>
      <trkpt lat="60.114577092728" lon="21.536944033512">
        <ele>7</ele>
        <time>2017-07-20T10:37:43Z</time>
      </trkpt>
      <trkpt lat="60.114567369724" lon="21.536947805367">
        <ele>7</ele>
        <time>2017-07-20T10:37:44Z</time>
      </trkpt>
      <trkpt lat="60.114546666431" lon="21.536949649385">
        <ele>7</ele>
        <time>2017-07-20T10:37:45Z</time>
      </trkpt>
      <trkpt lat="60.114536608151" lon="21.536951996317">
        <ele>7</ele>
        <time>2017-07-20T10:37:46Z</time>
      </trkpt>
      <trkpt lat="60.114521856007" lon="21.536949817023">
        <ele>7</ele>
        <time>2017-07-20T10:37:47Z</time>
      </trkpt>
      <trkpt lat="60.114508612605" lon="21.536948475919">
        <ele>7</ele>
        <time>2017-07-20T10:37:48Z</time>
      </trkpt>
      <trkpt lat="60.11449142971" lon="21.536940345476">
        <ele>7</ele>
        <time>2017-07-20T10:37:49Z</time>
      </trkpt>
      <trkpt lat="60.114481036154" lon="21.53693665744">
        <ele>7</ele>
        <time>2017-07-20T10:37:50Z</time>
      </trkpt>
      <trkpt lat="60.114466954562" lon="21.536922659667">
        <ele>7</ele>
        <time>2017-07-20T10:37:51Z</time>
      </trkpt>
      <trkpt lat="60.114453459703" lon="21.536914529224">
        <ele>7</ele>
        <time>2017-07-20T10:37:52Z</time>
      </trkpt>
      <trkpt lat="60.114440216301" lon="21.536910254455">
        <ele>7</ele>
        <time>2017-07-20T10:37:53Z</time>
      </trkpt>
      <trkpt lat="60.114431331487" lon="21.536903381297">
        <ele>7</ele>
        <time>2017-07-20T10:37:54Z</time>
      </trkpt>
      <trkpt lat="60.114415908791" lon="21.536893323017">
        <ele>7</ele>
        <time>2017-07-20T10:37:55Z</time>
      </trkpt>
      <trkpt lat="60.114407694529" lon="21.536886617497">
        <ele>7</ele>
        <time>2017-07-20T10:37:56Z</time>
      </trkpt>
      <trkpt lat="60.114392439471" lon="21.536873625552">
        <ele>7</ele>
        <time>2017-07-20T10:37:57Z</time>
      </trkpt>
      <trkpt lat="60.114385314856" lon="21.536865159833">
        <ele>7</ele>
        <time>2017-07-20T10:37:58Z</time>
      </trkpt>
      <trkpt lat="60.114371652359" lon="21.53685032387">
        <ele>7</ele>
        <time>2017-07-20T10:37:59Z</time>
      </trkpt>
      <trkpt lat="60.114363019002" lon="21.536839678857">
        <ele>7</ele>
        <time>2017-07-20T10:38:00Z</time>
      </trkpt>
      <trkpt lat="60.114348602134" lon="21.536820819582">
        <ele>7</ele>
        <time>2017-07-20T10:38:01Z</time>
      </trkpt>
      <trkpt lat="60.114341980433" lon="21.536810342207">
        <ele>7</ele>
        <time>2017-07-20T10:38:02Z</time>
      </trkpt>
      <trkpt lat="60.114330413411" lon="21.536790728561">
        <ele>7</ele>
        <time>2017-07-20T10:38:03Z</time>
      </trkpt>
      <trkpt lat="60.114324210805" lon="21.536778742444">
        <ele>7</ele>
        <time>2017-07-20T10:38:04Z</time>
      </trkpt>
      <trkpt lat="60.114312559964" lon="21.536755105486">
        <ele>7</ele>
        <time>2017-07-20T10:38:05Z</time>
      </trkpt>
      <trkpt lat="60.114305938263" lon="21.53674135917">
        <ele>7</ele>
        <time>2017-07-20T10:38:06Z</time>
      </trkpt>
      <trkpt lat="60.114298562191" lon="21.536718895678">
        <ele>7</ele>
        <time>2017-07-20T10:38:07Z</time>
      </trkpt>
      <trkpt lat="60.114293113956" lon="21.536697605652">
        <ele>7</ele>
        <time>2017-07-20T10:38:08Z</time>
      </trkpt>
      <trkpt lat="60.114283307133" lon="21.536678662558">
        <ele>7</ele>
        <time>2017-07-20T10:38:09Z</time>
      </trkpt>
      <trkpt lat="60.114280122011" lon="21.536658462179">
        <ele>7</ele>
        <time>2017-07-20T10:38:10Z</time>
      </trkpt>
      <trkpt lat="60.114271572473" lon="21.536634657583">
        <ele>7</ele>
        <time>2017-07-20T10:38:11Z</time>
      </trkpt>
      <trkpt lat="60.114264196401" lon="21.536619402525">
        <ele>7</ele>
        <time>2017-07-20T10:38:12Z</time>
      </trkpt>
      <trkpt lat="60.114256065958" lon="21.536606494399">
        <ele>7</ele>
        <time>2017-07-20T10:38:13Z</time>
      </trkpt>
      <trkpt lat="60.114246175316" lon="21.536589395323">
        <ele>7</ele>
        <time>2017-07-20T10:38:14Z</time>
      </trkpt>
      <trkpt lat="60.114235446484" lon="21.53657372117">
        <ele>7</ele>
        <time>2017-07-20T10:38:15Z</time>
      </trkpt>
      <trkpt lat="60.114226058756" lon="21.536558969026">
        <ele>7</ele>
        <time>2017-07-20T10:38:16Z</time>
      </trkpt>
      <trkpt lat="60.114212899173" lon="21.536542624321">
        <ele>7</ele>
        <time>2017-07-20T10:38:17Z</time>
      </trkpt>
      <trkpt lat="60.114204014359" lon="21.53653013529">
        <ele>7</ele>
        <time>2017-07-20T10:38:18Z</time>
      </trkpt>
      <trkpt lat="60.11418968131" lon="21.536512700938">
        <ele>7</ele>
        <time>2017-07-20T10:38:19Z</time>
      </trkpt>
      <trkpt lat="60.114180125944" lon="21.536498870803">
        <ele>7</ele>
        <time>2017-07-20T10:38:20Z</time>
      </trkpt>
      <trkpt lat="60.114165038524" lon="21.536480430623">
        <ele>7</ele>
        <time>2017-07-20T10:38:21Z</time>
      </trkpt>
      <trkpt lat="60.114156908081" lon="21.53646643285">
        <ele>7</ele>
        <time>2017-07-20T10:38:22Z</time>
      </trkpt>
      <trkpt lat="60.114143077946" lon="21.536446567747">
        <ele>7</ele>
        <time>2017-07-20T10:38:23Z</time>
      </trkpt>
      <trkpt lat="60.114135115141" lon="21.536434078716">
        <ele>7</ele>
        <time>2017-07-20T10:38:24Z</time>
      </trkpt>
      <trkpt lat="60.114121033549" lon="21.536408513921">
        <ele>7</ele>
        <time>2017-07-20T10:38:25Z</time>
      </trkpt>
      <trkpt lat="60.114114914762" lon="21.536396695442">
        <ele>7</ele>
        <time>2017-07-20T10:38:26Z</time>
      </trkpt>
      <trkpt lat="60.114101252265" lon="21.536371298285">
        <ele>7</ele>
        <time>2017-07-20T10:38:27Z</time>
      </trkpt>
      <trkpt lat="60.114095720211" lon="21.536358725435">
        <ele>7</ele>
        <time>2017-07-20T10:38:28Z</time>
      </trkpt>
      <trkpt lat="60.11408406937" lon="21.536332070993">
        <ele>7</ele>
        <time>2017-07-20T10:38:29Z</time>
      </trkpt>
      <trkpt lat="60.114077028574" lon="21.53631472046">
        <ele>7</ele>
        <time>2017-07-20T10:38:30Z</time>
      </trkpt>
      <trkpt lat="60.114070574511" lon="21.536289407122">
        <ele>7</ele>
        <time>2017-07-20T10:38:31Z</time>
      </trkpt>
      <trkpt lat="60.114064791" lon="21.536264345241">
        <ele>7</ele>
        <time>2017-07-20T10:38:32Z</time>
      </trkpt>
      <trkpt lat="60.114056325281" lon="21.536248922545">
        <ele>7</ele>
        <time>2017-07-20T10:38:33Z</time>
      </trkpt>
      <trkpt lat="60.114053307797" lon="21.536225201768">
        <ele>7</ele>
        <time>2017-07-20T10:38:34Z</time>
      </trkpt>
      <trkpt lat="60.114046602277" lon="21.53620491757">
        <ele>7</ele>
        <time>2017-07-20T10:38:35Z</time>
      </trkpt>
      <trkpt lat="60.114038471834" lon="21.536180945336">
        <ele>7</ele>
        <time>2017-07-20T10:38:36Z</time>
      </trkpt>
      <trkpt lat="60.114036711635" lon="21.536168121029">
        <ele>7</ele>
        <time>2017-07-20T10:38:37Z</time>
      </trkpt>
      <trkpt lat="60.114028329735" lon="21.536139706388">
        <ele>7</ele>
        <time>2017-07-20T10:38:38Z</time>
      </trkpt>
      <trkpt lat="60.114024641699" lon="21.536127636452">
        <ele>7</ele>
        <time>2017-07-20T10:38:39Z</time>
      </trkpt>
      <trkpt lat="60.114016846532" lon="21.536100479096">
        <ele>7</ele>
        <time>2017-07-20T10:38:40Z</time>
      </trkpt>
      <trkpt lat="60.114011817392" lon="21.536086984237">
        <ele>7</ele>
        <time>2017-07-20T10:38:41Z</time>
      </trkpt>
      <trkpt lat="60.114004022225" lon="21.536057731406">
        <ele>7</ele>
        <time>2017-07-20T10:38:42Z</time>
      </trkpt>
      <trkpt lat="60.113999244542" lon="21.536042476348">
        <ele>7</ele>
        <time>2017-07-20T10:38:43Z</time>
      </trkpt>
      <trkpt lat="60.113993377212" lon="21.536017917381">
        <ele>7</ele>
        <time>2017-07-20T10:38:44Z</time>
      </trkpt>
      <trkpt lat="60.113986671692" lon="21.535997633183">
        <ele>7</ele>
        <time>2017-07-20T10:38:45Z</time>
      </trkpt>
      <trkpt lat="60.113981223457" lon="21.535973912406">
        <ele>7</ele>
        <time>2017-07-20T10:38:46Z</time>
      </trkpt>
      <trkpt lat="60.113975859041" lon="21.535952706199">
        <ele>7</ele>
        <time>2017-07-20T10:38:47Z</time>
      </trkpt>
      <trkpt lat="60.113971165177" lon="21.535930745621">
        <ele>7</ele>
        <time>2017-07-20T10:38:48Z</time>
      </trkpt>
      <trkpt lat="60.113963705286" lon="21.535904929369">
        <ele>7</ele>
        <time>2017-07-20T10:38:49Z</time>
      </trkpt>
      <trkpt lat="60.113959681974" lon="21.535884812809">
        <ele>7</ele>
        <time>2017-07-20T10:38:50Z</time>
      </trkpt>
      <trkpt lat="60.113952054445" lon="21.535855727616">
        <ele>7</ele>
        <time>2017-07-20T10:38:51Z</time>
      </trkpt>
      <trkpt lat="60.113948869323" lon="21.535840975472">
        <ele>7</ele>
        <time>2017-07-20T10:38:52Z</time>
      </trkpt>
      <trkpt lat="60.11394241526" lon="21.53581180646">
        <ele>7</ele>
        <time>2017-07-20T10:38:53Z</time>
      </trkpt>
      <trkpt lat="60.11393822431" lon="21.535795126479">
        <ele>7</ele>
        <time>2017-07-20T10:38:54Z</time>
      </trkpt>
      <trkpt lat="60.113932440799" lon="21.535768723494">
        <ele>7</ele>
        <time>2017-07-20T10:38:55Z</time>
      </trkpt>
      <trkpt lat="60.113926657288" lon="21.535745002717">
        <ele>7</ele>
        <time>2017-07-20T10:38:56Z</time>
      </trkpt>
      <trkpt lat="60.11392397508" lon="21.535727316908">
        <ele>7</ele>
        <time>2017-07-20T10:38:57Z</time>
      </trkpt>
      <trkpt lat="60.113919867949" lon="21.535702087389">
        <ele>7</ele>
        <time>2017-07-20T10:38:58Z</time>
      </trkpt>
      <trkpt lat="60.113918778302" lon="21.535677193146">
        <ele>7</ele>
        <time>2017-07-20T10:38:59Z</time>
      </trkpt>
      <trkpt lat="60.113914503533" lon="21.535652298903">
        <ele>7</ele>
        <time>2017-07-20T10:39:00Z</time>
      </trkpt>
      <trkpt lat="60.113906456909" lon="21.535632685257">
        <ele>7</ele>
        <time>2017-07-20T10:39:01Z</time>
      </trkpt>
      <trkpt lat="60.113901595407" lon="21.535612233421">
        <ele>7</ele>
        <time>2017-07-20T10:39:02Z</time>
      </trkpt>
      <trkpt lat="60.113898326466" lon="21.53559471525">
        <ele>7</ele>
        <time>2017-07-20T10:39:03Z</time>
      </trkpt>
      <trkpt lat="60.11389212386" lon="21.535571665025">
        <ele>7</ele>
        <time>2017-07-20T10:39:04Z</time>
      </trkpt>
      <trkpt lat="60.113888603462" lon="21.535553224845">
        <ele>7</ele>
        <time>2017-07-20T10:39:05Z</time>
      </trkpt>
      <trkpt lat="60.113879970105" lon="21.535523636738">
        <ele>7</ele>
        <time>2017-07-20T10:39:06Z</time>
      </trkpt>
      <trkpt lat="60.113875611517" lon="21.535508214042">
        <ele>7</ele>
        <time>2017-07-20T10:39:07Z</time>
      </trkpt>
      <trkpt lat="60.113868486902" lon="21.535481894876">
        <ele>7</ele>
        <time>2017-07-20T10:39:08Z</time>
      </trkpt>
      <trkpt lat="60.113863960676" lon="21.535466723637">
        <ele>7</ele>
        <time>2017-07-20T10:39:09Z</time>
      </trkpt>
      <trkpt lat="60.113858177165" lon="21.535440991204">
        <ele>7</ele>
        <time>2017-07-20T10:39:10Z</time>
      </trkpt>
      <trkpt lat="60.11385272893" lon="21.535420455549">
        <ele>7</ele>
        <time>2017-07-20T10:39:11Z</time>
      </trkpt>
      <trkpt lat="60.113848202704" lon="21.535395142211">
        <ele>7</ele>
        <time>2017-07-20T10:39:12Z</time>
      </trkpt>
      <trkpt lat="60.113846107229" lon="21.535373516909">
        <ele>7</ele>
        <time>2017-07-20T10:39:13Z</time>
      </trkpt>
      <trkpt lat="60.113842586831" lon="21.535346191915">
        <ele>7</ele>
        <time>2017-07-20T10:39:14Z</time>
      </trkpt>
      <trkpt lat="60.113840072261" lon="21.535325404803">
        <ele>7</ele>
        <time>2017-07-20T10:39:15Z</time>
      </trkpt>
      <trkpt lat="60.113837390053" lon="21.535300175284">
        <ele>7</ele>
        <time>2017-07-20T10:39:16Z</time>
      </trkpt>
      <trkpt lat="60.11383093599" lon="21.535279220534">
        <ele>7</ele>
        <time>2017-07-20T10:39:17Z</time>
      </trkpt>
      <trkpt lat="60.11382590685" lon="21.535265558037">
        <ele>7</ele>
        <time>2017-07-20T10:39:18Z</time>
      </trkpt>
      <trkpt lat="60.113818782235" lon="21.535243094545">
        <ele>7</ele>
        <time>2017-07-20T10:39:19Z</time>
      </trkpt>
      <trkpt lat="60.113811406163" lon="21.53522088251">
        <ele>7</ele>
        <time>2017-07-20T10:39:20Z</time>
      </trkpt>
      <trkpt lat="60.113806209385" lon="21.535201352683">
        <ele>7</ele>
        <time>2017-07-20T10:39:21Z</time>
      </trkpt>
      <trkpt lat="60.113797995123" lon="21.535179140648">
        <ele>7</ele>
        <time>2017-07-20T10:39:22Z</time>
      </trkpt>
      <trkpt lat="60.113791876336" lon="21.535161790115">
        <ele>7</ele>
        <time>2017-07-20T10:39:23Z</time>
      </trkpt>
      <trkpt lat="60.113780728409" lon="21.535138320795">
        <ele>7</ele>
        <time>2017-07-20T10:39:24Z</time>
      </trkpt>
      <trkpt lat="60.113773436156" lon="21.535122646642">
        <ele>7</ele>
        <time>2017-07-20T10:39:25Z</time>
      </trkpt>
      <trkpt lat="60.113762791143" lon="21.535096578933">
        <ele>7</ele>
        <time>2017-07-20T10:39:26Z</time>
      </trkpt>
      <trkpt lat="60.11375549889" lon="21.535077803477">
        <ele>7</ele>
        <time>2017-07-20T10:39:27Z</time>
      </trkpt>
      <trkpt lat="60.113745775886" lon="21.535053915062">
        <ele>7</ele>
        <time>2017-07-20T10:39:28Z</time>
      </trkpt>
      <trkpt lat="60.113737477805" lon="21.535033882321">
        <ele>7</ele>
        <time>2017-07-20T10:39:29Z</time>
      </trkpt>
      <trkpt lat="60.113728341534" lon="21.535010413001">
        <ele>7</ele>
        <time>2017-07-20T10:39:30Z</time>
      </trkpt>
      <trkpt lat="60.113720127272" lon="21.534989961165">
        <ele>7</ele>
        <time>2017-07-20T10:39:31Z</time>
      </trkpt>
      <trkpt lat="60.113712499743" lon="21.534966408026">
        <ele>7</ele>
        <time>2017-07-20T10:39:32Z</time>
      </trkpt>
      <trkpt lat="60.113706632413" lon="21.534944866543">
        <ele>7</ele>
        <time>2017-07-20T10:39:33Z</time>
      </trkpt>
      <trkpt lat="60.113702106187" lon="21.534923660336">
        <ele>7</ele>
        <time>2017-07-20T10:39:34Z</time>
      </trkpt>
      <trkpt lat="60.113700848902" lon="21.534898430817">
        <ele>7</ele>
        <time>2017-07-20T10:39:35Z</time>
      </trkpt>
      <trkpt lat="60.113701100359" lon="21.534873704212">
        <ele>7</ele>
        <time>2017-07-20T10:39:36Z</time>
      </trkpt>
      <trkpt lat="60.113697915237" lon="21.534848307055">
        <ele>7</ele>
        <time>2017-07-20T10:39:37Z</time>
      </trkpt>
      <trkpt lat="60.113699172522" lon="21.534827519943">
        <ele>7</ele>
        <time>2017-07-20T10:39:38Z</time>
      </trkpt>
      <trkpt lat="60.113698669608" lon="21.534802458062">
        <ele>7</ele>
        <time>2017-07-20T10:39:39Z</time>
      </trkpt>
      <trkpt lat="60.113700932721" lon="21.534785694262">
        <ele>7</ele>
        <time>2017-07-20T10:39:40Z</time>
      </trkpt>
      <trkpt lat="60.113702357644" lon="21.534755854698">
        <ele>7</ele>
        <time>2017-07-20T10:39:41Z</time>
      </trkpt>
      <trkpt lat="60.113706464775" lon="21.534736157233">
        <ele>7</ele>
        <time>2017-07-20T10:39:42Z</time>
      </trkpt>
      <trkpt lat="60.113705961861" lon="21.53470958661">
        <ele>7</ele>
        <time>2017-07-20T10:39:43Z</time>
      </trkpt>
      <trkpt lat="60.113709230802" lon="21.534691900801">
        <ele>7</ele>
        <time>2017-07-20T10:39:44Z</time>
      </trkpt>
      <trkpt lat="60.113707638241" lon="21.534665665454">
        <ele>7</ele>
        <time>2017-07-20T10:39:45Z</time>
      </trkpt>
      <trkpt lat="60.113711242458" lon="21.534645716532">
        <ele>7</ele>
        <time>2017-07-20T10:39:46Z</time>
      </trkpt>
      <trkpt lat="60.113710571906" lon="21.534623588316">
        <ele>7</ele>
        <time>2017-07-20T10:39:47Z</time>
      </trkpt>
      <trkpt lat="60.113706129499" lon="21.534604561403">
        <ele>7</ele>
        <time>2017-07-20T10:39:48Z</time>
      </trkpt>
      <trkpt lat="60.113702860558" lon="21.534588719612">
        <ele>7</ele>
        <time>2017-07-20T10:39:49Z</time>
      </trkpt>
      <trkpt lat="60.113700094531" lon="21.534570782346">
        <ele>7</ele>
        <time>2017-07-20T10:39:50Z</time>
      </trkpt>
      <trkpt lat="60.113692802278" lon="21.534548821768">
        <ele>7</ele>
        <time>2017-07-20T10:39:51Z</time>
      </trkpt>
      <trkpt lat="60.113689114242" lon="21.534534153443">
        <ele>7</ele>
        <time>2017-07-20T10:39:52Z</time>
      </trkpt>
      <trkpt lat="60.113680480885" lon="21.534513701607">
        <ele>7</ele>
        <time>2017-07-20T10:39:53Z</time>
      </trkpt>
      <trkpt lat="60.113676122297" lon="21.534498949463">
        <ele>7</ele>
        <time>2017-07-20T10:39:54Z</time>
      </trkpt>
      <trkpt lat="60.113666902207" lon="21.534478078532">
        <ele>7</ele>
        <time>2017-07-20T10:39:55Z</time>
      </trkpt>
      <trkpt lat="60.113661118696" lon="21.534461817646">
        <ele>7</ele>
        <time>2017-07-20T10:39:56Z</time>
      </trkpt>
      <trkpt lat="60.113651144235" lon="21.534439940887">
        <ele>7</ele>
        <time>2017-07-20T10:39:57Z</time>
      </trkpt>
      <trkpt lat="60.113647204742" lon="21.534427284218">
        <ele>7</ele>
        <time>2017-07-20T10:39:58Z</time>
      </trkpt>
      <trkpt lat="60.113637481738" lon="21.534404653088">
        <ele>7</ele>
        <time>2017-07-20T10:39:59Z</time>
      </trkpt>
      <trkpt lat="60.113632201141" lon="21.534391828781">
        <ele>7</ele>
        <time>2017-07-20T10:40:00Z</time>
      </trkpt>
      <trkpt lat="60.113622729594" lon="21.534367102176">
        <ele>7</ele>
        <time>2017-07-20T10:40:01Z</time>
      </trkpt>
      <trkpt lat="60.113618706282" lon="21.534356792439">
        <ele>7</ele>
        <time>2017-07-20T10:40:02Z</time>
      </trkpt>
      <trkpt lat="60.11360965383" lon="21.534330808549">
        <ele>7</ele>
        <time>2017-07-20T10:40:03Z</time>
      </trkpt>
      <trkpt lat="60.113605965794" lon="21.534321085545">
        <ele>7</ele>
        <time>2017-07-20T10:40:04Z</time>
      </trkpt>
      <trkpt lat="60.11359708098" lon="21.534294598741">
        <ele>7</ele>
        <time>2017-07-20T10:40:05Z</time>
      </trkpt>
      <trkpt lat="60.113592722392" lon="21.53428378609">
        <ele>7</ele>
        <time>2017-07-20T10:40:06Z</time>
      </trkpt>
      <trkpt lat="60.113585011044" lon="21.534257215467">
        <ele>7</ele>
        <time>2017-07-20T10:40:07Z</time>
      </trkpt>
      <trkpt lat="60.113580400999" lon="21.53424271478">
        <ele>7</ele>
        <time>2017-07-20T10:40:08Z</time>
      </trkpt>
      <trkpt lat="60.113575204221" lon="21.534221340935">
        <ele>7</ele>
        <time>2017-07-20T10:40:09Z</time>
      </trkpt>
      <trkpt lat="60.113570175081" lon="21.534202062565">
        <ele>7</ele>
        <time>2017-07-20T10:40:10Z</time>
      </trkpt>
      <trkpt lat="60.113566403226" lon="21.534183119471">
        <ele>7</ele>
        <time>2017-07-20T10:40:11Z</time>
      </trkpt>
      <trkpt lat="60.113563218104" lon="21.534164008739">
        <ele>7</ele>
        <time>2017-07-20T10:40:12Z</time>
      </trkpt>
      <trkpt lat="60.113562212276" lon="21.534140623238">
        <ele>7</ele>
        <time>2017-07-20T10:40:13Z</time>
      </trkpt>
      <trkpt lat="60.113557266955" lon="21.534118746479">
        <ele>7</ele>
        <time>2017-07-20T10:40:14Z</time>
      </trkpt>
      <trkpt lat="60.11355684786" lon="21.534102317955">
        <ele>7</ele>
        <time>2017-07-20T10:40:15Z</time>
      </trkpt>
      <trkpt lat="60.11355600967" lon="21.53408010592">
        <ele>7</ele>
        <time>2017-07-20T10:40:16Z</time>
      </trkpt>
      <trkpt lat="60.113554165652" lon="21.534061330464">
        <ele>7</ele>
        <time>2017-07-20T10:40:17Z</time>
      </trkpt>
      <trkpt lat="60.113549220331" lon="21.534039453705">
        <ele>7</ele>
        <time>2017-07-20T10:40:18Z</time>
      </trkpt>
      <trkpt lat="60.113547963046" lon="21.534021851715">
        <ele>7</ele>
        <time>2017-07-20T10:40:19Z</time>
      </trkpt>
      <trkpt lat="60.11354176044" lon="21.534001232241">
        <ele>7</ele>
        <time>2017-07-20T10:40:20Z</time>
      </trkpt>
      <trkpt lat="60.113533713816" lon="21.533991090142">
        <ele>7</ele>
        <time>2017-07-20T10:40:21Z</time>
      </trkpt>
      <trkpt lat="60.113525667192" lon="21.533982121509">
        <ele>7</ele>
        <time>2017-07-20T10:40:22Z</time>
      </trkpt>
      <trkpt lat="60.11351912931" lon="21.533969800116">
        <ele>7</ele>
        <time>2017-07-20T10:40:23Z</time>
      </trkpt>
      <trkpt lat="60.113508735754" lon="21.533957897818">
        <ele>7</ele>
        <time>2017-07-20T10:40:24Z</time>
      </trkpt>
      <trkpt lat="60.113498677474" lon="21.533945492606">
        <ele>7</ele>
        <time>2017-07-20T10:40:25Z</time>
      </trkpt>
      <trkpt lat="60.113488367737" lon="21.533934931412">
        <ele>7</ele>
        <time>2017-07-20T10:40:26Z</time>
      </trkpt>
      <trkpt lat="60.113475291973" lon="21.533921101277">
        <ele>7</ele>
        <time>2017-07-20T10:40:27Z</time>
      </trkpt>
      <trkpt lat="60.113466910073" lon="21.533913725205">
        <ele>7</ele>
        <time>2017-07-20T10:40:28Z</time>
      </trkpt>
      <trkpt lat="60.113452660843" lon="21.533898889242">
        <ele>7</ele>
        <time>2017-07-20T10:40:29Z</time>
      </trkpt>
      <trkpt lat="60.113445787685" lon="21.533892686636">
        <ele>7</ele>
        <time>2017-07-20T10:40:30Z</time>
      </trkpt>
      <trkpt lat="60.113435226491" lon="21.533878772682">
        <ele>7</ele>
        <time>2017-07-20T10:40:31Z</time>
      </trkpt>
      <trkpt lat="60.113430616446" lon="21.533876844845">
        <ele>7</ele>
        <time>2017-07-20T10:40:32Z</time>
      </trkpt>
      <trkpt lat="60.113429107704" lon="21.533872653895">
        <ele>7</ele>
        <time>2017-07-20T10:40:33Z</time>
      </trkpt>
      <trkpt lat="60.113429778256" lon="21.533872067162">
        <ele>7</ele>
        <time>2017-07-20T10:40:34Z</time>
      </trkpt>
      <trkpt lat="60.113431873731" lon="21.533856979742">
        <ele>7</ele>
        <time>2017-07-20T10:40:35Z</time>
      </trkpt>
      <trkpt lat="60.113422905098" lon="21.533855554819">
        <ele>7</ele>
        <time>2017-07-20T10:40:36Z</time>
      </trkpt>
      <trkpt lat="60.113424749116" lon="21.533858488484">
        <ele>7</ele>
        <time>2017-07-20T10:40:37Z</time>
      </trkpt>
      <trkpt lat="60.11342525203" lon="21.533843401064">
        <ele>7</ele>
        <time>2017-07-20T10:40:38Z</time>
      </trkpt>
      <trkpt lat="60.113428269514" lon="21.533832588413">
        <ele>7</ele>
        <time>2017-07-20T10:40:39Z</time>
      </trkpt>
      <trkpt lat="60.113432544283" lon="21.533826804902">
        <ele>7</ele>
        <time>2017-07-20T10:40:40Z</time>
      </trkpt>
      <trkpt lat="60.113437321966" lon="21.533813812957">
        <ele>7</ele>
        <time>2017-07-20T10:40:41Z</time>
      </trkpt>
      <trkpt lat="60.113441093821" lon="21.533804760505">
        <ele>7</ele>
        <time>2017-07-20T10:40:42Z</time>
      </trkpt>
      <trkpt lat="60.113444949495" lon="21.533800234279">
        <ele>7</ele>
        <time>2017-07-20T10:40:43Z</time>
      </trkpt>
      <trkpt lat="60.113449727178" lon="21.533786320325">
        <ele>7</ele>
        <time>2017-07-20T10:40:44Z</time>
      </trkpt>
      <trkpt lat="60.113452493205" lon="21.533775675312">
        <ele>7</ele>
        <time>2017-07-20T10:40:45Z</time>
      </trkpt>
      <trkpt lat="60.113461126562" lon="21.533767209593">
        <ele>7</ele>
        <time>2017-07-20T10:40:46Z</time>
      </trkpt>
      <trkpt lat="60.113464479322" lon="21.533756816037">
        <ele>7</ele>
        <time>2017-07-20T10:40:47Z</time>
      </trkpt>
      <trkpt lat="60.113470262833" lon="21.53374902087">
        <ele>7</ele>
        <time>2017-07-20T10:40:48Z</time>
      </trkpt>
      <trkpt lat="60.113478058" lon="21.533733849631">
        <ele>7</ele>
        <time>2017-07-20T10:40:49Z</time>
      </trkpt>
      <trkpt lat="60.113483254778" lon="21.53372387517">
        <ele>7</ele>
        <time>2017-07-20T10:40:50Z</time>
      </trkpt>
      <trkpt lat="60.113490714669" lon="21.533709877397">
        <ele>7</ele>
        <time>2017-07-20T10:40:51Z</time>
      </trkpt>
      <trkpt lat="60.113497420189" lon="21.533701076402">
        <ele>7</ele>
        <time>2017-07-20T10:40:52Z</time>
      </trkpt>
      <trkpt lat="60.113504712442" lon="21.533689006466">
        <ele>7</ele>
        <time>2017-07-20T10:40:53Z</time>
      </trkpt>
      <trkpt lat="60.113508400478" lon="21.533685486068">
        <ele>7</ele>
        <time>2017-07-20T10:40:54Z</time>
      </trkpt>
      <trkpt lat="60.113513178161" lon="21.533668806087">
        <ele>7</ele>
        <time>2017-07-20T10:40:55Z</time>
      </trkpt>
      <trkpt lat="60.113515441274" lon="21.533669895734">
        <ele>7</ele>
        <time>2017-07-20T10:40:56Z</time>
      </trkpt>
      <trkpt lat="60.113518374939" lon="21.533643576568">
        <ele>7</ele>
        <time>2017-07-20T10:40:57Z</time>
      </trkpt>
      <trkpt lat="60.113519883681" lon="21.533645001491">
        <ele>7</ele>
        <time>2017-07-20T10:40:58Z</time>
      </trkpt>
      <trkpt lat="60.113517620568" lon="21.533625136388">
        <ele>7</ele>
        <time>2017-07-20T10:40:59Z</time>
      </trkpt>
      <trkpt lat="60.113518207301" lon="21.533625471664">
        <ele>7</ele>
        <time>2017-07-20T10:41:00Z</time>
      </trkpt>
      <trkpt lat="60.113511501781" lon="21.533610216606">
        <ele>7</ele>
        <time>2017-07-20T10:41:01Z</time>
      </trkpt>
      <trkpt lat="60.113509406306" lon="21.533613737004">
        <ele>7</ele>
        <time>2017-07-20T10:41:02Z</time>
      </trkpt>
      <trkpt lat="60.113501778777" lon="21.533604936009">
        <ele>7</ele>
        <time>2017-07-20T10:41:03Z</time>
      </trkpt>
      <trkpt lat="60.113497168732" lon="21.533608959321">
        <ele>7</ele>
        <time>2017-07-20T10:41:04Z</time>
      </trkpt>
      <trkpt lat="60.113490211755" lon="21.53360988133">
        <ele>7.2</ele>
        <time>2017-07-20T10:41:05Z</time>
      </trkpt>
      <trkpt lat="60.113483506235" lon="21.533616335393">
        <ele>8</ele>
        <time>2017-07-20T10:41:06Z</time>
      </trkpt>
      <trkpt lat="60.113476633077" lon="21.533620526343">
        <ele>8.8</ele>
        <time>2017-07-20T10:41:07Z</time>
      </trkpt>
      <trkpt lat="60.113472358308" lon="21.53363418884">
        <ele>10</ele>
        <time>2017-07-20T10:41:08Z</time>
      </trkpt>
      <trkpt lat="60.113468167358" lon="21.53364508531">
        <ele>10</ele>
        <time>2017-07-20T10:41:09Z</time>
      </trkpt>
      <trkpt lat="60.113466407159" lon="21.533652545201">
        <ele>10</ele>
        <time>2017-07-20T10:41:10Z</time>
      </trkpt>
      <trkpt lat="60.113466407159" lon="21.533646929328">
        <ele>10</ele>
        <time>2017-07-20T10:41:11Z</time>
      </trkpt>
      <trkpt lat="60.113470011376" lon="21.533662268205">
        <ele>10</ele>
        <time>2017-07-20T10:41:12Z</time>
      </trkpt>
      <trkpt lat="60.113473364136" lon="21.533655311228">
        <ele>10</ele>
        <time>2017-07-20T10:41:13Z</time>
      </trkpt>
      <trkpt lat="60.113481243122" lon="21.533662184386">
        <ele>10</ele>
        <time>2017-07-20T10:41:14Z</time>
      </trkpt>
      <trkpt lat="60.11348392533" lon="21.533654808314">
        <ele>10</ele>
        <time>2017-07-20T10:41:15Z</time>
      </trkpt>
      <trkpt lat="60.11349398361" lon="21.533654473038">
        <ele>10</ele>
        <time>2017-07-20T10:41:16Z</time>
      </trkpt>
      <trkpt lat="60.113500521492" lon="21.53364843807">
        <ele>10</ele>
        <time>2017-07-20T10:41:17Z</time>
      </trkpt>
      <trkpt lat="60.113512591428" lon="21.533640307627">
        <ele>10</ele>
        <time>2017-07-20T10:41:18Z</time>
      </trkpt>
      <trkpt lat="60.113519296948" lon="21.533635613763">
        <ele>10</ele>
        <time>2017-07-20T10:41:19Z</time>
      </trkpt>
      <trkpt lat="60.113527427391" lon="21.533634524116">
        <ele>10</ele>
        <time>2017-07-20T10:41:20Z</time>
      </trkpt>
      <trkpt lat="60.113537234214" lon="21.533631758089">
        <ele>10</ele>
        <time>2017-07-20T10:41:21Z</time>
      </trkpt>
      <trkpt lat="60.113547460132" lon="21.533630919899">
        <ele>10</ele>
        <time>2017-07-20T10:41:22Z</time>
      </trkpt>
      <trkpt lat="60.113557015498" lon="21.533630919899">
        <ele>10</ele>
        <time>2017-07-20T10:41:23Z</time>
      </trkpt>
      <trkpt lat="60.113564894484" lon="21.533631590451">
        <ele>10</ele>
        <time>2017-07-20T10:41:24Z</time>
      </trkpt>
      <trkpt lat="60.113570342719" lon="21.533638547428">
        <ele>10</ele>
        <time>2017-07-20T10:41:25Z</time>
      </trkpt>
      <trkpt lat="60.113574617488" lon="21.533648270432">
        <ele>10</ele>
        <time>2017-07-20T10:41:26Z</time>
      </trkpt>
      <trkpt lat="60.11358031718" lon="21.533646342595">
        <ele>10</ele>
        <time>2017-07-20T10:41:27Z</time>
      </trkpt>
      <trkpt lat="60.113587274157" lon="21.533653551029">
        <ele>10</ele>
        <time>2017-07-20T10:41:28Z</time>
      </trkpt>
      <trkpt lat="60.11359205184" lon="21.533663776947">
        <ele>10</ele>
        <time>2017-07-20T10:41:29Z</time>
      </trkpt>
      <trkpt lat="60.113598924998" lon="21.533666794431">
        <ele>10</ele>
        <time>2017-07-20T10:41:30Z</time>
      </trkpt>
      <trkpt lat="60.113590626917" lon="21.533669644277">
        <ele>10</ele>
        <time>2017-07-20T10:41:31Z</time>
      </trkpt>
      <trkpt lat="60.113601607206" lon="21.533667800259">
        <ele>10</ele>
        <time>2017-07-20T10:41:32Z</time>
      </trkpt>
      <trkpt lat="60.113596494247" lon="21.533662268205">
        <ele>10</ele>
        <time>2017-07-20T10:41:33Z</time>
      </trkpt>
      <trkpt lat="60.113606468708" lon="21.533652712839">
        <ele>10</ele>
        <time>2017-07-20T10:41:34Z</time>
      </trkpt>
      <trkpt lat="60.113602361577" lon="21.533647348423">
        <ele>10</ele>
        <time>2017-07-20T10:41:35Z</time>
      </trkpt>
      <trkpt lat="60.113610072925" lon="21.533627399501">
        <ele>10</ele>
        <time>2017-07-20T10:41:36Z</time>
      </trkpt>
      <trkpt lat="60.113608228907" lon="21.533619604334">
        <ele>10</ele>
        <time>2017-07-20T10:41:37Z</time>
      </trkpt>
      <trkpt lat="60.113608731821" lon="21.533598314308">
        <ele>10</ele>
        <time>2017-07-20T10:41:38Z</time>
      </trkpt>
      <trkpt lat="60.11360546288" lon="21.533589178037">
        <ele>10</ele>
        <time>2017-07-20T10:41:39Z</time>
      </trkpt>
      <trkpt lat="60.113600098464" lon="21.533579790309">
        <ele>10</ele>
        <time>2017-07-20T10:41:40Z</time>
      </trkpt>
      <trkpt lat="60.113593560582" lon="21.533569815848">
        <ele>10</ele>
        <time>2017-07-20T10:41:41Z</time>
      </trkpt>
      <trkpt lat="60.113585011044" lon="21.533561769224">
        <ele>10</ele>
        <time>2017-07-20T10:41:42Z</time>
      </trkpt>
      <trkpt lat="60.11357947899" lon="21.533554644609">
        <ele>10</ele>
        <time>2017-07-20T10:41:43Z</time>
      </trkpt>
      <trkpt lat="60.113563721018" lon="21.533545424519">
        <ele>10</ele>
        <time>2017-07-20T10:41:44Z</time>
      </trkpt>
      <trkpt lat="60.113555758213" lon="21.533541904121">
        <ele>10</ele>
        <time>2017-07-20T10:41:45Z</time>
      </trkpt>
      <trkpt lat="60.113541089888" lon="21.533534947144">
        <ele>10</ele>
        <time>2017-07-20T10:41:46Z</time>
      </trkpt>
      <trkpt lat="60.113526086287" lon="21.533529247452">
        <ele>10</ele>
        <time>2017-07-20T10:41:47Z</time>
      </trkpt>
      <trkpt lat="60.113515441274" lon="21.533524888864">
        <ele>10</ele>
        <time>2017-07-20T10:41:48Z</time>
      </trkpt>
      <trkpt lat="60.113498593655" lon="21.533514411489">
        <ele>10</ele>
        <time>2017-07-20T10:41:49Z</time>
      </trkpt>
      <trkpt lat="60.113488703013" lon="21.533510639634">
        <ele>10</ele>
        <time>2017-07-20T10:41:50Z</time>
      </trkpt>
      <trkpt lat="60.113470262833" lon="21.533500413716">
        <ele>10</ele>
        <time>2017-07-20T10:41:51Z</time>
      </trkpt>
      <trkpt lat="60.113460958924" lon="21.533494378748">
        <ele>10</ele>
        <time>2017-07-20T10:41:52Z</time>
      </trkpt>
      <trkpt lat="60.113445787685" lon="21.533484404287">
        <ele>10.6</ele>
        <time>2017-07-20T10:41:53Z</time>
      </trkpt>
      <trkpt lat="60.113434136844" lon="21.533475100378">
        <ele>10.6</ele>
        <time>2017-07-20T10:41:54Z</time>
      </trkpt>
      <trkpt lat="60.113421815451" lon="21.533466383202">
        <ele>10.6</ele>
        <time>2017-07-20T10:41:55Z</time>
      </trkpt>
      <trkpt lat="60.11340513547" lon="21.533453894171">
        <ele>10.6</ele>
        <time>2017-07-20T10:41:56Z</time>
      </trkpt>
      <trkpt lat="60.113396418294" lon="21.533447691565">
        <ele>10.6</ele>
        <time>2017-07-20T10:41:57Z</time>
      </trkpt>
      <trkpt lat="60.113378648666" lon="21.53343218505">
        <ele>10.6</ele>
        <time>2017-07-20T10:41:58Z</time>
      </trkpt>
      <trkpt lat="60.113370518223" lon="21.533425730987">
        <ele>10.6</ele>
        <time>2017-07-20T10:41:59Z</time>
      </trkpt>
      <trkpt lat="60.113353000052" lon="21.533407709902">
        <ele>10.6</ele>
        <time>2017-07-20T10:42:00Z</time>
      </trkpt>
      <trkpt lat="60.113345204885" lon="21.533399914735">
        <ele>10.6</ele>
        <time>2017-07-20T10:42:01Z</time>
      </trkpt>
      <trkpt lat="60.113328692542" lon="21.53338105546">
        <ele>10.6</ele>
        <time>2017-07-20T10:42:02Z</time>
      </trkpt>
      <trkpt lat="60.113321400289" lon="21.53337183537">
        <ele>10.4</ele>
        <time>2017-07-20T10:42:03Z</time>
      </trkpt>
      <trkpt lat="60.113306815783" lon="21.533352389362">
        <ele>10.2</ele>
        <time>2017-07-20T10:42:04Z</time>
      </trkpt>
      <trkpt lat="60.113298936797" lon="21.533340738521">
        <ele>9.8</ele>
        <time>2017-07-20T10:42:05Z</time>
      </trkpt>
      <trkpt lat="60.113283933196" lon="21.533316347192">
        <ele>9.2</ele>
        <time>2017-07-20T10:42:06Z</time>
      </trkpt>
      <trkpt lat="60.113277562952" lon="21.533305115446">
        <ele>8.8</ele>
        <time>2017-07-20T10:42:07Z</time>
      </trkpt>
      <trkpt lat="60.113263397541" lon="21.533281143212">
        <ele>8.4</ele>
        <time>2017-07-20T10:42:08Z</time>
      </trkpt>
      <trkpt lat="60.113258619858" lon="21.533269743828">
        <ele>8.4</ele>
        <time>2017-07-20T10:42:09Z</time>
      </trkpt>
      <trkpt lat="60.113245208818" lon="21.533245939232">
        <ele>8.4</ele>
        <time>2017-07-20T10:42:10Z</time>
      </trkpt>
      <trkpt lat="60.113238838574" lon="21.533231187088">
        <ele>8.4</ele>
        <time>2017-07-20T10:42:11Z</time>
      </trkpt>
      <trkpt lat="60.11322492462" lon="21.533204616465">
        <ele>8.4</ele>
        <time>2017-07-20T10:42:12Z</time>
      </trkpt>
      <trkpt lat="60.113218722014" lon="21.533191540701">
        <ele>8.4</ele>
        <time>2017-07-20T10:42:13Z</time>
      </trkpt>
      <trkpt lat="60.113205730069" lon="21.533166562639">
        <ele>8.4</ele>
        <time>2017-07-20T10:42:14Z</time>
      </trkpt>
      <trkpt lat="60.11319894073" lon="21.533152564866">
        <ele>8.4</ele>
        <time>2017-07-20T10:42:15Z</time>
      </trkpt>
      <trkpt lat="60.11318552969" lon="21.533124904596">
        <ele>8.4</ele>
        <time>2017-07-20T10:42:16Z</time>
      </trkpt>
      <trkpt lat="60.113179913817" lon="21.533111409737">
        <ele>8.4</ele>
        <time>2017-07-20T10:42:17Z</time>
      </trkpt>
      <trkpt lat="60.113166502777" lon="21.533084084743">
        <ele>8.4</ele>
        <time>2017-07-20T10:42:18Z</time>
      </trkpt>
      <trkpt lat="60.113160551628" lon="21.533071511893">
        <ele>8.4</ele>
        <time>2017-07-20T10:42:19Z</time>
      </trkpt>
      <trkpt lat="60.113149319882" lon="21.533043851623">
        <ele>8.4</ele>
        <time>2017-07-20T10:42:20Z</time>
      </trkpt>
      <trkpt lat="60.113142865819" lon="21.53302901566">
        <ele>8.4</ele>
        <time>2017-07-20T10:42:21Z</time>
      </trkpt>
      <trkpt lat="60.113133394272" lon="21.533001942123">
        <ele>8.4</ele>
        <time>2017-07-20T10:42:22Z</time>
      </trkpt>
      <trkpt lat="60.113125682924" lon="21.532982412296">
        <ele>8.4</ele>
        <time>2017-07-20T10:42:23Z</time>
      </trkpt>
      <trkpt lat="60.113118809766" lon="21.532957853329">
        <ele>8.4</ele>
        <time>2017-07-20T10:42:24Z</time>
      </trkpt>
      <trkpt lat="60.113112774798" lon="21.532937233855">
        <ele>8.4</ele>
        <time>2017-07-20T10:42:25Z</time>
      </trkpt>
      <trkpt lat="60.113110595504" lon="21.532915105639">
        <ele>8.4</ele>
        <time>2017-07-20T10:42:26Z</time>
      </trkpt>
      <trkpt lat="60.113106069278" lon="21.532891301043">
        <ele>8.4</ele>
        <time>2017-07-20T10:42:27Z</time>
      </trkpt>
      <trkpt lat="60.113102716518" lon="21.532867999361">
        <ele>8.4</ele>
        <time>2017-07-20T10:42:28Z</time>
      </trkpt>
      <trkpt lat="60.113097016826" lon="21.532843440394">
        <ele>8.4</ele>
        <time>2017-07-20T10:42:29Z</time>
      </trkpt>
      <trkpt lat="60.113094921351" lon="21.53281946816">
        <ele>8.4</ele>
        <time>2017-07-20T10:42:30Z</time>
      </trkpt>
      <trkpt lat="60.113089054021" lon="21.532791975528">
        <ele>8.4</ele>
        <time>2017-07-20T10:42:31Z</time>
      </trkpt>
      <trkpt lat="60.113087293822" lon="21.532769595855">
        <ele>8.4</ele>
        <time>2017-07-20T10:42:32Z</time>
      </trkpt>
      <trkpt lat="60.113084024881" lon="21.532737660816">
        <ele>8.4</ele>
        <time>2017-07-20T10:42:33Z</time>
      </trkpt>
      <trkpt lat="60.113083438148" lon="21.532719472093">
        <ele>8.4</ele>
        <time>2017-07-20T10:42:34Z</time>
      </trkpt>
      <trkpt lat="60.11308075594" lon="21.532686447407">
        <ele>8.4</ele>
        <time>2017-07-20T10:42:35Z</time>
      </trkpt>
      <trkpt lat="60.113081007397" lon="21.532667504313">
        <ele>8.4</ele>
        <time>2017-07-20T10:42:36Z</time>
      </trkpt>
      <trkpt lat="60.113080672121" lon="21.532632384152">
        <ele>8.4</ele>
        <time>2017-07-20T10:42:37Z</time>
      </trkpt>
      <trkpt lat="60.11308159413" lon="21.53261411161">
        <ele>8.4</ele>
        <time>2017-07-20T10:42:38Z</time>
      </trkpt>
      <trkpt lat="60.11308746146" lon="21.532590139376">
        <ele>8.4</ele>
        <time>2017-07-20T10:42:39Z</time>
      </trkpt>
      <trkpt lat="60.113092574419" lon="21.53256801116">
        <ele>8.4</ele>
        <time>2017-07-20T10:42:40Z</time>
      </trkpt>
      <trkpt lat="60.113096178636" lon="21.53254035089">
        <ele>8.4</ele>
        <time>2017-07-20T10:42:41Z</time>
      </trkpt>
      <trkpt lat="60.113104309079" lon="21.532522832719">
        <ele>8.4</ele>
        <time>2017-07-20T10:42:42Z</time>
      </trkpt>
      <trkpt lat="60.113110260228" lon="21.532498273752">
        <ele>8.4</ele>
        <time>2017-07-20T10:42:43Z</time>
      </trkpt>
      <trkpt lat="60.113117301024" lon="21.532483689246">
        <ele>8.4</ele>
        <time>2017-07-20T10:42:44Z</time>
      </trkpt>
      <trkpt lat="60.113125012372" lon="21.532459130279">
        <ele>8.4</ele>
        <time>2017-07-20T10:42:45Z</time>
      </trkpt>
      <trkpt lat="60.113133310453" lon="21.532444964868">
        <ele>8.4</ele>
        <time>2017-07-20T10:42:46Z</time>
      </trkpt>
      <trkpt lat="60.113138758688" lon="21.53242048972">
        <ele>8.4</ele>
        <time>2017-07-20T10:42:47Z</time>
      </trkpt>
      <trkpt lat="60.113149152244" lon="21.532405234662">
        <ele>8.4</ele>
        <time>2017-07-20T10:42:48Z</time>
      </trkpt>
      <trkpt lat="60.113151415357" lon="21.532382352075">
        <ele>8.4</ele>
        <time>2017-07-20T10:42:49Z</time>
      </trkpt>
      <trkpt lat="60.113161389818" lon="21.532362403153">
        <ele>8.4</ele>
        <time>2017-07-20T10:42:50Z</time>
      </trkpt>
      <trkpt lat="60.113162144189" lon="21.532340610213">
        <ele>8.4</ele>
        <time>2017-07-20T10:42:51Z</time>
      </trkpt>
      <trkpt lat="60.113170945184" lon="21.532320074558">
        <ele>8.4</ele>
        <time>2017-07-20T10:42:52Z</time>
      </trkpt>
      <trkpt lat="60.113170106994" lon="21.532301885835">
        <ele>8.4</ele>
        <time>2017-07-20T10:42:53Z</time>
      </trkpt>
      <trkpt lat="60.113177399247" lon="21.532279506162">
        <ele>8.4</ele>
        <time>2017-07-20T10:42:54Z</time>
      </trkpt>
      <trkpt lat="60.113175303772" lon="21.532262742362">
        <ele>8.4</ele>
        <time>2017-07-20T10:42:55Z</time>
      </trkpt>
      <trkpt lat="60.113180668188" lon="21.532237093748">
        <ele>8.4</ele>
        <time>2017-07-20T10:42:56Z</time>
      </trkpt>
      <trkpt lat="60.113177818342" lon="21.532219156482">
        <ele>8.4</ele>
        <time>2017-07-20T10:42:57Z</time>
      </trkpt>
      <trkpt lat="60.113173962668" lon="21.532199961931">
        <ele>8.4</ele>
        <time>2017-07-20T10:42:58Z</time>
      </trkpt>
      <trkpt lat="60.113173459754" lon="21.532189652194">
        <ele>8.4</ele>
        <time>2017-07-20T10:42:59Z</time>
      </trkpt>
      <trkpt lat="60.113167508605" lon="21.532163919761">
        <ele>8.4</ele>
        <time>2017-07-20T10:43:00Z</time>
      </trkpt>
      <trkpt lat="60.11316457494" lon="21.532150508721">
        <ele>8.4</ele>
        <time>2017-07-20T10:43:01Z</time>
      </trkpt>
      <trkpt lat="60.113157701782" lon="21.53212293227">
        <ele>8.4</ele>
        <time>2017-07-20T10:43:02Z</time>
      </trkpt>
      <trkpt lat="60.113153007918" lon="21.53210700666">
        <ele>8.4</ele>
        <time>2017-07-20T10:43:03Z</time>
      </trkpt>
      <trkpt lat="60.11314697295" lon="21.532082615331">
        <ele>8.4</ele>
        <time>2017-07-20T10:43:04Z</time>
      </trkpt>
      <trkpt lat="60.113140015973" lon="21.532061241486">
        <ele>8.4</ele>
        <time>2017-07-20T10:43:05Z</time>
      </trkpt>
      <trkpt lat="60.113134567738" lon="21.532035592872">
        <ele>8.4</ele>
        <time>2017-07-20T10:43:06Z</time>
      </trkpt>
      <trkpt lat="60.113128616589" lon="21.532012710285">
        <ele>8.4</ele>
        <time>2017-07-20T10:43:07Z</time>
      </trkpt>
      <trkpt lat="60.113123838906" lon="21.531990917345">
        <ele>8.4</ele>
        <time>2017-07-20T10:43:08Z</time>
      </trkpt>
      <trkpt lat="60.113116965748" lon="21.531963927627">
        <ele>8.4</ele>
        <time>2017-07-20T10:43:09Z</time>
      </trkpt>
      <trkpt lat="60.113115289368" lon="21.531945990361">
        <ele>8.4</ele>
        <time>2017-07-20T10:43:10Z</time>
      </trkpt>
      <trkpt lat="60.113110008771" lon="21.531913133313">
        <ele>8.4</ele>
        <time>2017-07-20T10:43:11Z</time>
      </trkpt>
      <trkpt lat="60.113107410382" lon="21.531898464988">
        <ele>8.4</ele>
        <time>2017-07-20T10:43:12Z</time>
      </trkpt>
      <trkpt lat="60.113106153097" lon="21.531871391451">
        <ele>8.4</ele>
        <time>2017-07-20T10:43:13Z</time>
      </trkpt>
      <trkpt lat="60.113105398726" lon="21.531853118909">
        <ele>8.4</ele>
        <time>2017-07-20T10:43:14Z</time>
      </trkpt>
      <trkpt lat="60.113109002943" lon="21.531828559942">
        <ele>8.2</ele>
        <time>2017-07-20T10:43:15Z</time>
      </trkpt>
      <trkpt lat="60.113102716518" lon="21.531809784486">
        <ele>7.4</ele>
        <time>2017-07-20T10:43:16Z</time>
      </trkpt>
      <trkpt lat="60.113107494201" lon="21.531787237175">
        <ele>7.4</ele>
        <time>2017-07-20T10:43:17Z</time>
      </trkpt>
      <trkpt lat="60.113103806165" lon="21.531766869158">
        <ele>7.6</ele>
        <time>2017-07-20T10:43:18Z</time>
      </trkpt>
      <trkpt lat="60.113109170581" lon="21.531746082046">
        <ele>7.6</ele>
        <time>2017-07-20T10:43:19Z</time>
      </trkpt>
      <trkpt lat="60.113106069278" lon="21.531723786192">
        <ele>7.6</ele>
        <time>2017-07-20T10:43:20Z</time>
      </trkpt>
      <trkpt lat="60.113108080934" lon="21.531701490338">
        <ele>7.8</ele>
        <time>2017-07-20T10:43:21Z</time>
      </trkpt>
      <trkpt lat="60.113106907468" lon="21.531682966339">
        <ele>7.8</ele>
        <time>2017-07-20T10:43:22Z</time>
      </trkpt>
      <trkpt lat="60.113106656011" lon="21.531662849779">
        <ele>7.8</ele>
        <time>2017-07-20T10:43:23Z</time>
      </trkpt>
      <trkpt lat="60.113104476717" lon="21.531636530613">
        <ele>7.8</ele>
        <time>2017-07-20T10:43:24Z</time>
      </trkpt>
      <trkpt lat="60.113104476717" lon="21.53162253284">
        <ele>7.8</ele>
        <time>2017-07-20T10:43:25Z</time>
      </trkpt>
      <trkpt lat="60.1131008725" lon="21.531592860914">
        <ele>7.8</ele>
        <time>2017-07-20T10:43:26Z</time>
      </trkpt>
      <trkpt lat="60.113099531396" lon="21.531578779322">
        <ele>7.8</ele>
        <time>2017-07-20T10:43:27Z</time>
      </trkpt>
      <trkpt lat="60.113097184464" lon="21.531558411305">
        <ele>7.8</ele>
        <time>2017-07-20T10:43:28Z</time>
      </trkpt>
      <trkpt lat="60.113091903867" lon="21.531531337768">
        <ele>7.8</ele>
        <time>2017-07-20T10:43:29Z</time>
      </trkpt>
      <trkpt lat="60.113089473116" lon="21.531518764918">
        <ele>7.8</ele>
        <time>2017-07-20T10:43:30Z</time>
      </trkpt>
      <trkpt lat="60.1130841087" lon="21.531490853191">
        <ele>7.8</ele>
        <time>2017-07-20T10:43:31Z</time>
      </trkpt>
      <trkpt lat="60.113078492827" lon="21.531467551509">
        <ele>7.8</ele>
        <time>2017-07-20T10:43:32Z</time>
      </trkpt>
      <trkpt lat="60.113076397352" lon="21.531454978659">
        <ele>7.8</ele>
        <time>2017-07-20T10:43:33Z</time>
      </trkpt>
      <trkpt lat="60.113073798963" lon="21.531430000597">
        <ele>7.8</ele>
        <time>2017-07-20T10:43:34Z</time>
      </trkpt>
      <trkpt lat="60.113069356556" lon="21.531410973684">
        <ele>7.8</ele>
        <time>2017-07-20T10:43:35Z</time>
      </trkpt>
      <trkpt lat="60.113067093443" lon="21.531382056129">
        <ele>7.8</ele>
        <time>2017-07-20T10:43:36Z</time>
      </trkpt>
      <trkpt lat="60.113062567217" lon="21.53137023765">
        <ele>7.8</ele>
        <time>2017-07-20T10:43:37Z</time>
      </trkpt>
      <trkpt lat="60.113054939688" lon="21.531349785814">
        <ele>7.8</ele>
        <time>2017-07-20T10:43:38Z</time>
      </trkpt>
      <trkpt lat="60.113052508937" lon="21.531337883516">
        <ele>7.8</ele>
        <time>2017-07-20T10:43:39Z</time>
      </trkpt>
      <trkpt lat="60.113045719598" lon="21.531320532983">
        <ele>7.8</ele>
        <time>2017-07-20T10:43:40Z</time>
      </trkpt>
      <trkpt lat="60.113038678802" lon="21.531300416423">
        <ele>7.8</ele>
        <time>2017-07-20T10:43:41Z</time>
      </trkpt>
      <trkpt lat="60.113026776504" lon="21.531272672334">
        <ele>7.8</ele>
        <time>2017-07-20T10:43:42Z</time>
      </trkpt>
      <trkpt lat="60.113022334097" lon="21.531263200787">
        <ele>7.8</ele>
        <time>2017-07-20T10:43:43Z</time>
      </trkpt>
      <trkpt lat="60.113009928885" lon="21.531238809458">
        <ele>7.8</ele>
        <time>2017-07-20T10:43:44Z</time>
      </trkpt>
      <trkpt lat="60.113003391003" lon="21.531226571884">
        <ele>7.8</ele>
        <time>2017-07-20T10:43:45Z</time>
      </trkpt>
      <trkpt lat="60.112990566696" lon="21.531201593822">
        <ele>7.8</ele>
        <time>2017-07-20T10:43:46Z</time>
      </trkpt>
      <trkpt lat="60.112983944995" lon="21.531187847506">
        <ele>7.8</ele>
        <time>2017-07-20T10:43:47Z</time>
      </trkpt>
      <trkpt lat="60.112973216163" lon="21.531165384014">
        <ele>7.8</ele>
        <time>2017-07-20T10:43:48Z</time>
      </trkpt>
      <trkpt lat="60.112965169539" lon="21.53115063187">
        <ele>7.8</ele>
        <time>2017-07-20T10:43:49Z</time>
      </trkpt>
      <trkpt lat="60.112952093775" lon="21.531120876125">
        <ele>7.8</ele>
        <time>2017-07-20T10:43:50Z</time>
      </trkpt>
      <trkpt lat="60.112944550065" lon="21.531109309103">
        <ele>7.8</ele>
        <time>2017-07-20T10:43:51Z</time>
      </trkpt>
      <trkpt lat="60.112935497613" lon="21.531088186715">
        <ele>7.8</ele>
        <time>2017-07-20T10:43:52Z</time>
      </trkpt>
      <trkpt lat="60.112925439333" lon="21.531064968852">
        <ele>7.8</ele>
        <time>2017-07-20T10:43:53Z</time>
      </trkpt>
      <trkpt lat="60.112919655822" lon="21.531051473993">
        <ele>7.8</ele>
        <time>2017-07-20T10:43:54Z</time>
      </trkpt>
      <trkpt lat="60.112908759352" lon="21.531023478447">
        <ele>7.8</ele>
        <time>2017-07-20T10:43:55Z</time>
      </trkpt>
      <trkpt lat="60.112904065488" lon="21.531013336348">
        <ele>7.8</ele>
        <time>2017-07-20T10:43:56Z</time>
      </trkpt>
      <trkpt lat="60.112894761579" lon="21.53098467025">
        <ele>7.8</ele>
        <time>2017-07-20T10:43:57Z</time>
      </trkpt>
      <trkpt lat="60.112889564801" lon="21.530973187047">
        <ele>7.8</ele>
        <time>2017-07-20T10:43:58Z</time>
      </trkpt>
      <trkpt lat="60.112884870937" lon="21.530952651392">
        <ele>7.8</ele>
        <time>2017-07-20T10:43:59Z</time>
      </trkpt>
      <trkpt lat="60.11288042853" lon="21.530935552316">
        <ele>7.8</ele>
        <time>2017-07-20T10:44:00Z</time>
      </trkpt>
      <trkpt lat="60.112876824313" lon="21.53091510048">
        <ele>7.8</ele>
        <time>2017-07-20T10:44:01Z</time>
      </trkpt>
      <trkpt lat="60.112875650847" lon="21.530892217893">
        <ele>7.8</ele>
        <time>2017-07-20T10:44:02Z</time>
      </trkpt>
      <trkpt lat="60.112870118793" lon="21.530880483233">
        <ele>7.8</ele>
        <time>2017-07-20T10:44:03Z</time>
      </trkpt>
      <trkpt lat="60.112871292259" lon="21.530858019741">
        <ele>7.8</ele>
        <time>2017-07-20T10:44:04Z</time>
      </trkpt>
      <trkpt lat="60.112866682214" lon="21.530840082475">
        <ele>7.8</ele>
        <time>2017-07-20T10:44:05Z</time>
      </trkpt>
      <trkpt lat="60.112860563427" lon="21.530816948431">
        <ele>7.8</ele>
        <time>2017-07-20T10:44:06Z</time>
      </trkpt>
      <trkpt lat="60.112859306142" lon="21.530807895979">
        <ele>7.8</ele>
        <time>2017-07-20T10:44:07Z</time>
      </trkpt>
      <trkpt lat="60.112852432984" lon="21.530780738623">
        <ele>7.8</ele>
        <time>2017-07-20T10:44:08Z</time>
      </trkpt>
      <trkpt lat="60.112849331681" lon="21.530769506877">
        <ele>7.8</ele>
        <time>2017-07-20T10:44:09Z</time>
      </trkpt>
      <trkpt lat="60.11284522455" lon="21.530750647602">
        <ele>7.8</ele>
        <time>2017-07-20T10:44:10Z</time>
      </trkpt>
      <trkpt lat="60.112838770487" lon="21.530729273757">
        <ele>7.8</ele>
        <time>2017-07-20T10:44:11Z</time>
      </trkpt>
      <trkpt lat="60.112835836822" lon="21.530715192165">
        <ele>7.8</ele>
        <time>2017-07-20T10:44:12Z</time>
      </trkpt>
      <trkpt lat="60.112828376931" lon="21.530689292094">
        <ele>7.8</ele>
        <time>2017-07-20T10:44:13Z</time>
      </trkpt>
      <trkpt lat="60.112825610904" lon="21.530678982357">
        <ele>7.8</ele>
        <time>2017-07-20T10:44:14Z</time>
      </trkpt>
      <trkpt lat="60.112818486289" lon="21.530648053146">
        <ele>7.8</ele>
        <time>2017-07-20T10:44:15Z</time>
      </trkpt>
      <trkpt lat="60.112815804081" lon="21.530638162504">
        <ele>7.8</ele>
        <time>2017-07-20T10:44:16Z</time>
      </trkpt>
      <trkpt lat="60.112811026398" lon="21.530611759519">
        <ele>7.8</ele>
        <time>2017-07-20T10:44:17Z</time>
      </trkpt>
      <trkpt lat="60.112807506" lon="21.530595163357">
        <ele>7.8</ele>
        <time>2017-07-20T10:44:18Z</time>
      </trkpt>
      <trkpt lat="60.112808260371" lon="21.530574543883">
        <ele>7.8</ele>
        <time>2017-07-20T10:44:19Z</time>
      </trkpt>
      <trkpt lat="60.112808092733" lon="21.530551828934">
        <ele>7.8</ele>
        <time>2017-07-20T10:44:20Z</time>
      </trkpt>
      <trkpt lat="60.112806751629" lon="21.530528191976">
        <ele>7.2</ele>
        <time>2017-07-20T10:44:21Z</time>
      </trkpt>
      <trkpt lat="60.112804237059" lon="21.530516708773">
        <ele>7.2</ele>
        <time>2017-07-20T10:44:22Z</time>
      </trkpt>
      <trkpt lat="60.112807422181" lon="21.530491730711">
        <ele>7.2</ele>
        <time>2017-07-20T10:44:23Z</time>
      </trkpt>
      <trkpt lat="60.112812283683" lon="21.530473793445">
        <ele>7.2</ele>
        <time>2017-07-20T10:44:24Z</time>
      </trkpt>
      <trkpt lat="60.112810188208" lon="21.530457700197">
        <ele>7.2</ele>
        <time>2017-07-20T10:44:25Z</time>
      </trkpt>
      <trkpt lat="60.112814546796" lon="21.530433895601">
        <ele>7.2</ele>
        <time>2017-07-20T10:44:26Z</time>
      </trkpt>
      <trkpt lat="60.112813624787" lon="21.530419646371">
        <ele>7.2</ele>
        <time>2017-07-20T10:44:27Z</time>
      </trkpt>
      <trkpt lat="60.11281085876" lon="21.530399697449">
        <ele>7.2</ele>
        <time>2017-07-20T10:44:28Z</time>
      </trkpt>
      <trkpt lat="60.112811613131" lon="21.530390225902">
        <ele>7.2</ele>
        <time>2017-07-20T10:44:29Z</time>
      </trkpt>
      <trkpt lat="60.112807589819" lon="21.53036105689">
        <ele>7.2</ele>
        <time>2017-07-20T10:44:30Z</time>
      </trkpt>
      <trkpt lat="60.112805997258" lon="21.530349238411">
        <ele>7.2</ele>
        <time>2017-07-20T10:44:31Z</time>
      </trkpt>
      <trkpt lat="60.112800465204" lon="21.53031914739">
        <ele>7.2</ele>
        <time>2017-07-20T10:44:32Z</time>
      </trkpt>
      <trkpt lat="60.11279744772" lon="21.530305484893">
        <ele>7.2</ele>
        <time>2017-07-20T10:44:33Z</time>
      </trkpt>
      <trkpt lat="60.112792753856" lon="21.530277154071">
        <ele>7.2</ele>
        <time>2017-07-20T10:44:34Z</time>
      </trkpt>
      <trkpt lat="60.112788982001" lon="21.5302596359">
        <ele>7.2</ele>
        <time>2017-07-20T10:44:35Z</time>
      </trkpt>
      <trkpt lat="60.112784288137" lon="21.530232143268">
        <ele>7.2</ele>
        <time>2017-07-20T10:44:36Z</time>
      </trkpt>
      <trkpt lat="60.112777750255" lon="21.530211942889">
        <ele>7.2</ele>
        <time>2017-07-20T10:44:37Z</time>
      </trkpt>
      <trkpt lat="60.112772721115" lon="21.530188222112">
        <ele>7.2</ele>
        <time>2017-07-20T10:44:38Z</time>
      </trkpt>
      <trkpt lat="60.112766769966" lon="21.530168859923">
        <ele>7.2</ele>
        <time>2017-07-20T10:44:39Z</time>
      </trkpt>
      <trkpt lat="60.112760148265" lon="21.530146983164">
        <ele>7.2</ele>
        <time>2017-07-20T10:44:40Z</time>
      </trkpt>
      <trkpt lat="60.112751766365" lon="21.530126698966">
        <ele>7.2</ele>
        <time>2017-07-20T10:44:41Z</time>
      </trkpt>
      <trkpt lat="60.112742546275" lon="21.530104319293">
        <ele>7.2</ele>
        <time>2017-07-20T10:44:42Z</time>
      </trkpt>
      <trkpt lat="60.112734834927" lon="21.530088896597">
        <ele>7.2</ele>
        <time>2017-07-20T10:44:43Z</time>
      </trkpt>
      <trkpt lat="60.112724189914" lon="21.53006517582">
        <ele>7.2</ele>
        <time>2017-07-20T10:44:44Z</time>
      </trkpt>
      <trkpt lat="60.112716646204" lon="21.530051429504">
        <ele>7.2</ele>
        <time>2017-07-20T10:44:45Z</time>
      </trkpt>
      <trkpt lat="60.112704743906" lon="21.530023433958">
        <ele>7.2</ele>
        <time>2017-07-20T10:44:46Z</time>
      </trkpt>
      <trkpt lat="60.1126985413" lon="21.530012118393">
        <ele>7.2</ele>
        <time>2017-07-20T10:44:47Z</time>
      </trkpt>
      <trkpt lat="60.112685297898" lon="21.529980770087">
        <ele>7.2</ele>
        <time>2017-07-20T10:44:48Z</time>
      </trkpt>
      <trkpt lat="60.112679346749" lon="21.529971633816">
        <ele>7.2</ele>
        <time>2017-07-20T10:44:49Z</time>
      </trkpt>
      <trkpt lat="60.112666773899" lon="21.529939782596">
        <ele>7.2</ele>
        <time>2017-07-20T10:44:50Z</time>
      </trkpt>
      <trkpt lat="60.112661074207" lon="21.529928802307">
        <ele>7.2</ele>
        <time>2017-07-20T10:44:51Z</time>
      </trkpt>
      <trkpt lat="60.11264992628" lon="21.529899465657">
        <ele>7.2</ele>
        <time>2017-07-20T10:44:52Z</time>
      </trkpt>
      <trkpt lat="60.112643472217" lon="21.529888066273">
        <ele>7.2</ele>
        <time>2017-07-20T10:44:53Z</time>
      </trkpt>
      <trkpt lat="60.112633246299" lon="21.529859148718">
        <ele>7.2</ele>
        <time>2017-07-20T10:44:54Z</time>
      </trkpt>
      <trkpt lat="60.112627127512" lon="21.529843642203">
        <ele>7.2</ele>
        <time>2017-07-20T10:44:55Z</time>
      </trkpt>
      <trkpt lat="60.11261807506" lon="21.529812293897">
        <ele>7.2</ele>
        <time>2017-07-20T10:44:56Z</time>
      </trkpt>
      <trkpt lat="60.112612626825" lon="21.529799804866">
        <ele>7.2</ele>
        <time>2017-07-20T10:44:57Z</time>
      </trkpt>
      <trkpt lat="60.112604161106" lon="21.529767534551">
        <ele>7.2</ele>
        <time>2017-07-20T10:44:58Z</time>
      </trkpt>
      <trkpt lat="60.112599215785" lon="21.529752614769">
        <ele>7.2</ele>
        <time>2017-07-20T10:44:59Z</time>
      </trkpt>
      <trkpt lat="60.112592174989" lon="21.52971900335">
        <ele>7.2</ele>
        <time>2017-07-20T10:45:00Z</time>
      </trkpt>
      <trkpt lat="60.112587564944" lon="21.529703329197">
        <ele>7.2</ele>
        <time>2017-07-20T10:45:01Z</time>
      </trkpt>
      <trkpt lat="60.112582535804" lon="21.529671394158">
        <ele>7.2</ele>
        <time>2017-07-20T10:45:02Z</time>
      </trkpt>
      <trkpt lat="60.112578931587" lon="21.529653456892">
        <ele>7.2</ele>
        <time>2017-07-20T10:45:03Z</time>
      </trkpt>
      <trkpt lat="60.112575997922" lon="21.529624371699">
        <ele>7.2</ele>
        <time>2017-07-20T10:45:04Z</time>
      </trkpt>
      <trkpt lat="60.112573064257" lon="21.529605093329">
        <ele>7.2</ele>
        <time>2017-07-20T10:45:05Z</time>
      </trkpt>
      <trkpt lat="60.112572393705" lon="21.52957651105">
        <ele>7.2</ele>
        <time>2017-07-20T10:45:06Z</time>
      </trkpt>
      <trkpt lat="60.112569627678" lon="21.529557065042">
        <ele>7.2</ele>
        <time>2017-07-20T10:45:07Z</time>
      </trkpt>
      <trkpt lat="60.112569124764" lon="21.5295304106">
        <ele>6.6</ele>
        <time>2017-07-20T10:45:08Z</time>
      </trkpt>
      <trkpt lat="60.112567867479" lon="21.529509791126">
        <ele>6.6</ele>
        <time>2017-07-20T10:45:09Z</time>
      </trkpt>
      <trkpt lat="60.112569795316" lon="21.529486405625">
        <ele>6.6</ele>
        <time>2017-07-20T10:45:10Z</time>
      </trkpt>
      <trkpt lat="60.1125728128" lon="21.529463690676">
        <ele>6.6</ele>
        <time>2017-07-20T10:45:11Z</time>
      </trkpt>
      <trkpt lat="60.112577171388" lon="21.529437120053">
        <ele>6.6</ele>
        <time>2017-07-20T10:45:12Z</time>
      </trkpt>
      <trkpt lat="60.112579015406" lon="21.529421194443">
        <ele>6.6</ele>
        <time>2017-07-20T10:45:13Z</time>
      </trkpt>
      <trkpt lat="60.112582535804" lon="21.529397725123">
        <ele>6.6</ele>
        <time>2017-07-20T10:45:14Z</time>
      </trkpt>
      <trkpt lat="60.112587564944" lon="21.529379955495">
        <ele>6.6</ele>
        <time>2017-07-20T10:45:15Z</time>
      </trkpt>
      <trkpt lat="60.112590917704" lon="21.529356737632">
        <ele>6.6</ele>
        <time>2017-07-20T10:45:16Z</time>
      </trkpt>
      <trkpt lat="60.112594019007" lon="21.529337207805">
        <ele>6.6</ele>
        <time>2017-07-20T10:45:17Z</time>
      </trkpt>
      <trkpt lat="60.112596449758" lon="21.529316588331">
        <ele>6</ele>
        <time>2017-07-20T10:45:18Z</time>
      </trkpt>
      <trkpt lat="60.112600724527" lon="21.529298399608">
        <ele>5.6</ele>
        <time>2017-07-20T10:45:19Z</time>
      </trkpt>
      <trkpt lat="60.112602568545" lon="21.529274678831">
        <ele>6</ele>
        <time>2017-07-20T10:45:20Z</time>
      </trkpt>
      <trkpt lat="60.112608519694" lon="21.529255232823">
        <ele>6.4</ele>
        <time>2017-07-20T10:45:21Z</time>
      </trkpt>
      <trkpt lat="60.112615141395" lon="21.529237630833">
        <ele>6.6</ele>
        <time>2017-07-20T10:45:22Z</time>
      </trkpt>
      <trkpt lat="60.11261807506" lon="21.529213323323">
        <ele>7.4</ele>
        <time>2017-07-20T10:45:23Z</time>
      </trkpt>
      <trkpt lat="60.11262561877" lon="21.529197313894">
        <ele>7.4</ele>
        <time>2017-07-20T10:45:24Z</time>
      </trkpt>
      <trkpt lat="60.112629977358" lon="21.529173844574">
        <ele>7.4</ele>
        <time>2017-07-20T10:45:25Z</time>
      </trkpt>
      <trkpt lat="60.112641879656" lon="21.52915825424">
        <ele>7.4</ele>
        <time>2017-07-20T10:45:26Z</time>
      </trkpt>
      <trkpt lat="60.112645651511" lon="21.529139897879">
        <ele>7.4</ele>
        <time>2017-07-20T10:45:27Z</time>
      </trkpt>
      <trkpt lat="60.112656967076" lon="21.529124894278">
        <ele>7.4</ele>
        <time>2017-07-20T10:45:28Z</time>
      </trkpt>
      <trkpt lat="60.112660319836" lon="21.529104945356">
        <ele>7.4</ele>
        <time>2017-07-20T10:45:29Z</time>
      </trkpt>
      <trkpt lat="60.112671803039" lon="21.529084828796">
        <ele>7.4</ele>
        <time>2017-07-20T10:45:30Z</time>
      </trkpt>
      <trkpt lat="60.112673563238" lon="21.529066304797">
        <ele>7.4</ele>
        <time>2017-07-20T10:45:31Z</time>
      </trkpt>
      <trkpt lat="60.112682699509" lon="21.529047864617">
        <ele>7.4</ele>
        <time>2017-07-20T10:45:32Z</time>
      </trkpt>
      <trkpt lat="60.112683118604" lon="21.529023640926">
        <ele>7.4</ele>
        <time>2017-07-20T10:45:33Z</time>
      </trkpt>
      <trkpt lat="60.112685214079" lon="21.529002769995">
        <ele>7.4</ele>
        <time>2017-07-20T10:45:34Z</time>
      </trkpt>
      <trkpt lat="60.112687309554" lon="21.528985335643">
        <ele>7.4</ele>
        <time>2017-07-20T10:45:35Z</time>
      </trkpt>
      <trkpt lat="60.112689488848" lon="21.528964967626">
        <ele>7.4</ele>
        <time>2017-07-20T10:45:36Z</time>
      </trkpt>
      <trkpt lat="60.112690829952" lon="21.528943929057">
        <ele>7.4</ele>
        <time>2017-07-20T10:45:37Z</time>
      </trkpt>
      <trkpt lat="60.112694098893" lon="21.528922052298">
        <ele>7.4</ele>
        <time>2017-07-20T10:45:38Z</time>
      </trkpt>
      <trkpt lat="60.112695523816" lon="21.52889925353">
        <ele>7.4</ele>
        <time>2017-07-20T10:45:39Z</time>
      </trkpt>
      <trkpt lat="60.112698792757" lon="21.528877544409">
        <ele>7.4</ele>
        <time>2017-07-20T10:45:40Z</time>
      </trkpt>
      <trkpt lat="60.112702145517" lon="21.528859607143">
        <ele>7.4</ele>
        <time>2017-07-20T10:45:41Z</time>
      </trkpt>
      <trkpt lat="60.112711365607" lon="21.528836054004">
        <ele>7.4</ele>
        <time>2017-07-20T10:45:42Z</time>
      </trkpt>
      <trkpt lat="60.112711868521" lon="21.528818368195">
        <ele>7.4</ele>
        <time>2017-07-20T10:45:43Z</time>
      </trkpt>
      <trkpt lat="60.11272201062" lon="21.528798251635">
        <ele>7.4</ele>
        <time>2017-07-20T10:45:44Z</time>
      </trkpt>
      <trkpt lat="60.112724776647" lon="21.528780565826">
        <ele>7.4</ele>
        <time>2017-07-20T10:45:45Z</time>
      </trkpt>
      <trkpt lat="60.112734751108" lon="21.528759778714">
        <ele>7.4</ele>
        <time>2017-07-20T10:45:46Z</time>
      </trkpt>
      <trkpt lat="60.112737768592" lon="21.528744020742">
        <ele>7.4</ele>
        <time>2017-07-20T10:45:47Z</time>
      </trkpt>
      <trkpt lat="60.112747575415" lon="21.528720383784">
        <ele>7.4</ele>
        <time>2017-07-20T10:45:48Z</time>
      </trkpt>
      <trkpt lat="60.112748748881" lon="21.528703787622">
        <ele>7.4</ele>
        <time>2017-07-20T10:45:49Z</time>
      </trkpt>
      <trkpt lat="60.112756292591" lon="21.528677049361">
        <ele>7.4</ele>
        <time>2017-07-20T10:45:50Z</time>
      </trkpt>
      <trkpt lat="60.112756041134" lon="21.528660201742">
        <ele>7.4</ele>
        <time>2017-07-20T10:45:51Z</time>
      </trkpt>
      <trkpt lat="60.112759226256" lon="21.528633044386">
        <ele>7.4</ele>
        <time>2017-07-20T10:45:52Z</time>
      </trkpt>
      <trkpt lat="60.11275889098" lon="21.528617873147">
        <ele>7.4</ele>
        <time>2017-07-20T10:45:53Z</time>
      </trkpt>
      <trkpt lat="60.112755789677" lon="21.528592895085">
        <ele>7.4</ele>
        <time>2017-07-20T10:45:54Z</time>
      </trkpt>
      <trkpt lat="60.112756460229" lon="21.528579400226">
        <ele>7.4</ele>
        <time>2017-07-20T10:45:55Z</time>
      </trkpt>
      <trkpt lat="60.112751095813" lon="21.52854889011">
        <ele>7.4</ele>
        <time>2017-07-20T10:45:56Z</time>
      </trkpt>
      <trkpt lat="60.112749503252" lon="21.528535981984">
        <ele>7.4</ele>
        <time>2017-07-20T10:45:57Z</time>
      </trkpt>
      <trkpt lat="60.112743552103" lon="21.528506729153">
        <ele>7.4</ele>
        <time>2017-07-20T10:45:58Z</time>
      </trkpt>
      <trkpt lat="60.112741959542" lon="21.528491557914">
        <ele>7.4</ele>
        <time>2017-07-20T10:45:59Z</time>
      </trkpt>
      <trkpt lat="60.112734918746" lon="21.528461550712">
        <ele>7.4</ele>
        <time>2017-07-20T10:46:00Z</time>
      </trkpt>
      <trkpt lat="60.11273290709" lon="21.528447133844">
        <ele>7.4</ele>
        <time>2017-07-20T10:46:01Z</time>
      </trkpt>
      <trkpt lat="60.112725698656" lon="21.528418216289">
        <ele>7.4</ele>
        <time>2017-07-20T10:46:02Z</time>
      </trkpt>
      <trkpt lat="60.112723184086" lon="21.528401955403">
        <ele>7.4</ele>
        <time>2017-07-20T10:46:03Z</time>
      </trkpt>
      <trkpt lat="60.112716394747" lon="21.528375887694">
        <ele>7.4</ele>
        <time>2017-07-20T10:46:04Z</time>
      </trkpt>
      <trkpt lat="60.112712455254" lon="21.528357112238">
        <ele>7.4</ele>
        <time>2017-07-20T10:46:05Z</time>
      </trkpt>
      <trkpt lat="60.11270357044" lon="21.528326099208">
        <ele>7.4</ele>
        <time>2017-07-20T10:46:06Z</time>
      </trkpt>
      <trkpt lat="60.112700133861" lon="21.528309083951">
        <ele>7.4</ele>
        <time>2017-07-20T10:46:07Z</time>
      </trkpt>
      <trkpt lat="60.112693176884" lon="21.528278070921">
        <ele>7.4</ele>
        <time>2017-07-20T10:46:08Z</time>
      </trkpt>
      <trkpt lat="60.112690578495" lon="21.528261893854">
        <ele>7.4</ele>
        <time>2017-07-20T10:46:09Z</time>
      </trkpt>
      <trkpt lat="60.112686890459" lon="21.528229455901">
        <ele>7.4</ele>
        <time>2017-07-20T10:46:10Z</time>
      </trkpt>
      <trkpt lat="60.112682950966" lon="21.528209004065">
        <ele>7.4</ele>
        <time>2017-07-20T10:46:11Z</time>
      </trkpt>
      <trkpt lat="60.112681274586" lon="21.528176901388">
        <ele>7.4</ele>
        <time>2017-07-20T10:46:12Z</time>
      </trkpt>
      <trkpt lat="60.112679430568" lon="21.52815745538">
        <ele>7.4</ele>
        <time>2017-07-20T10:46:13Z</time>
      </trkpt>
      <trkpt lat="60.112678843835" lon="21.528128789282">
        <ele>7.4</ele>
        <time>2017-07-20T10:46:14Z</time>
      </trkpt>
      <trkpt lat="60.112677921826" lon="21.528099955546">
        <ele>7.4</ele>
        <time>2017-07-20T10:46:15Z</time>
      </trkpt>
      <trkpt lat="60.112679849663" lon="21.528077659692">
        <ele>7.4</ele>
        <time>2017-07-20T10:46:16Z</time>
      </trkpt>
      <trkpt lat="60.112680017301" lon="21.528046479024">
        <ele>7.4</ele>
        <time>2017-07-20T10:46:17Z</time>
      </trkpt>
      <trkpt lat="60.112681609862" lon="21.528027452111">
        <ele>7.4</ele>
        <time>2017-07-20T10:46:18Z</time>
      </trkpt>
      <trkpt lat="60.112687393373" lon="21.528004150429">
        <ele>7.4</ele>
        <time>2017-07-20T10:46:19Z</time>
      </trkpt>
      <trkpt lat="60.112695775273" lon="21.527978837091">
        <ele>7.4</ele>
        <time>2017-07-20T10:46:20Z</time>
      </trkpt>
      <trkpt lat="60.112697535472" lon="21.527957882341">
        <ele>7.4</ele>
        <time>2017-07-20T10:46:21Z</time>
      </trkpt>
      <trkpt lat="60.112709773046" lon="21.527941118541">
        <ele>7.4</ele>
        <time>2017-07-20T10:46:22Z</time>
      </trkpt>
      <trkpt lat="60.112715975652" lon="21.52792192399">
        <ele>7.4</ele>
        <time>2017-07-20T10:46:23Z</time>
      </trkpt>
      <trkpt lat="60.112727626493" lon="21.527903399991">
        <ele>7.4</ele>
        <time>2017-07-20T10:46:24Z</time>
      </trkpt>
      <trkpt lat="60.11273793623" lon="21.527885798001">
        <ele>7.4</ele>
        <time>2017-07-20T10:46:25Z</time>
      </trkpt>
      <trkpt lat="60.11274967089" lon="21.527864591794">
        <ele>7.4</ele>
        <time>2017-07-20T10:46:26Z</time>
      </trkpt>
      <trkpt lat="60.112760818817" lon="21.527853779143">
        <ele>7.4</ele>
        <time>2017-07-20T10:46:27Z</time>
      </trkpt>
      <trkpt lat="60.112769368355" lon="21.527834081678">
        <ele>7.4</ele>
        <time>2017-07-20T10:46:28Z</time>
      </trkpt>
      <trkpt lat="60.112783366128" lon="21.52782301757">
        <ele>7.4</ele>
        <time>2017-07-20T10:46:29Z</time>
      </trkpt>
      <trkpt lat="60.112790323105" lon="21.527803403924">
        <ele>7.4</ele>
        <time>2017-07-20T10:46:30Z</time>
      </trkpt>
      <trkpt lat="60.112805997258" lon="21.527786723943">
        <ele>7.4</ele>
        <time>2017-07-20T10:46:31Z</time>
      </trkpt>
      <trkpt lat="60.112811026398" lon="21.527772055618">
        <ele>7.4</ele>
        <time>2017-07-20T10:46:32Z</time>
      </trkpt>
      <trkpt lat="60.112824437438" lon="21.52775177142">
        <ele>7.4</ele>
        <time>2017-07-20T10:46:33Z</time>
      </trkpt>
      <trkpt lat="60.112828796026" lon="21.52773836038">
        <ele>7.4</ele>
        <time>2017-07-20T10:46:34Z</time>
      </trkpt>
      <trkpt lat="60.112837932297" lon="21.527713382318">
        <ele>7.4</ele>
        <time>2017-07-20T10:46:35Z</time>
      </trkpt>
      <trkpt lat="60.112844889274" lon="21.52769728907">
        <ele>7.4</ele>
        <time>2017-07-20T10:46:36Z</time>
      </trkpt>
      <trkpt lat="60.112851008061" lon="21.527672394827">
        <ele>7.4</ele>
        <time>2017-07-20T10:46:37Z</time>
      </trkpt>
      <trkpt lat="60.112856623934" lon="21.527655966303">
        <ele>7.4</ele>
        <time>2017-07-20T10:46:38Z</time>
      </trkpt>
      <trkpt lat="60.112858719409" lon="21.527634173363">
        <ele>7.4</ele>
        <time>2017-07-20T10:46:39Z</time>
      </trkpt>
      <trkpt lat="60.112862742721" lon="21.527614727355">
        <ele>7.4</ele>
        <time>2017-07-20T10:46:40Z</time>
      </trkpt>
      <trkpt lat="60.11286366473" lon="21.527593437329">
        <ele>7.4</ele>
        <time>2017-07-20T10:46:41Z</time>
      </trkpt>
      <trkpt lat="60.112859306142" lon="21.527573991321">
        <ele>7.4</ele>
        <time>2017-07-20T10:46:42Z</time>
      </trkpt>
      <trkpt lat="60.112858048857" lon="21.527557562797">
        <ele>7.4</ele>
        <time>2017-07-20T10:46:43Z</time>
      </trkpt>
      <trkpt lat="60.112854779916" lon="21.527536775685">
        <ele>7.4</ele>
        <time>2017-07-20T10:46:44Z</time>
      </trkpt>
      <trkpt lat="60.112850672785" lon="21.527518335505">
        <ele>7.4</ele>
        <time>2017-07-20T10:46:45Z</time>
      </trkpt>
      <trkpt lat="60.112844889274" lon="21.527498554221">
        <ele>7.4</ele>
        <time>2017-07-20T10:46:46Z</time>
      </trkpt>
      <trkpt lat="60.112838602849" lon="21.527481538964">
        <ele>7.4</ele>
        <time>2017-07-20T10:46:47Z</time>
      </trkpt>
      <trkpt lat="60.112829466578" lon="21.527459410748">
        <ele>7.4</ele>
        <time>2017-07-20T10:46:48Z</time>
      </trkpt>
      <trkpt lat="60.112823515429" lon="21.527447089355">
        <ele>7.4</ele>
        <time>2017-07-20T10:46:49Z</time>
      </trkpt>
      <trkpt lat="60.11281169695" lon="21.527421859836">
        <ele>7.4</ele>
        <time>2017-07-20T10:46:50Z</time>
      </trkpt>
      <trkpt lat="60.112803063593" lon="21.527405934226">
        <ele>7.4</ele>
        <time>2017-07-20T10:46:51Z</time>
      </trkpt>
      <trkpt lat="60.112792837675" lon="21.527386991132">
        <ele>7.4</ele>
        <time>2017-07-20T10:46:52Z</time>
      </trkpt>
      <trkpt lat="60.112784455775" lon="21.527372155169">
        <ele>7.4</ele>
        <time>2017-07-20T10:46:53Z</time>
      </trkpt>
      <trkpt lat="60.112774648952" lon="21.527354636998">
        <ele>7.4</ele>
        <time>2017-07-20T10:46:54Z</time>
      </trkpt>
      <trkpt lat="60.112764423034" lon="21.527337286465">
        <ele>7.4</ele>
        <time>2017-07-20T10:46:55Z</time>
      </trkpt>
      <trkpt lat="60.112753191288" lon="21.527316331715">
        <ele>7.4</ele>
        <time>2017-07-20T10:46:56Z</time>
      </trkpt>
      <trkpt lat="60.112744809388" lon="21.527302585399">
        <ele>7.4</ele>
        <time>2017-07-20T10:46:57Z</time>
      </trkpt>
      <trkpt lat="60.112734080556" lon="21.527282133563">
        <ele>7.4</ele>
        <time>2017-07-20T10:46:58Z</time>
      </trkpt>
      <trkpt lat="60.112725866294" lon="21.527267381419">
        <ele>7.4</ele>
        <time>2017-07-20T10:46:59Z</time>
      </trkpt>
      <trkpt lat="60.112715472738" lon="21.527251623447">
        <ele>7.4</ele>
        <time>2017-07-20T10:47:00Z</time>
      </trkpt>
      <trkpt lat="60.11270608501" lon="21.527225807195">
        <ele>7.4</ele>
        <time>2017-07-20T10:47:01Z</time>
      </trkpt>
      <trkpt lat="60.112700972051" lon="21.527212731431">
        <ele>7.4</ele>
        <time>2017-07-20T10:47:02Z</time>
      </trkpt>
      <trkpt lat="60.112690075581" lon="21.527190938491">
        <ele>7.4</ele>
        <time>2017-07-20T10:47:03Z</time>
      </trkpt>
      <trkpt lat="60.112679430568" lon="21.527169732284">
        <ele>7.4</ele>
        <time>2017-07-20T10:47:04Z</time>
      </trkpt>
      <trkpt lat="60.112678257102" lon="21.52716168566">
        <ele>7.4</ele>
        <time>2017-07-20T10:47:05Z</time>
      </trkpt>
      <trkpt lat="60.112672473591" lon="21.527142826385">
        <ele>7.4</ele>
        <time>2017-07-20T10:47:06Z</time>
      </trkpt>
      <trkpt lat="60.112665516614" lon="21.527120865807">
        <ele>7.4</ele>
        <time>2017-07-20T10:47:07Z</time>
      </trkpt>
      <trkpt lat="60.112660403655" lon="21.527102677084">
        <ele>7.4</ele>
        <time>2017-07-20T10:47:08Z</time>
      </trkpt>
      <trkpt lat="60.112656883257" lon="21.527082141429">
        <ele>7.4</ele>
        <time>2017-07-20T10:47:09Z</time>
      </trkpt>
      <trkpt lat="60.112653195221" lon="21.527063952706">
        <ele>7.4</ele>
        <time>2017-07-20T10:47:10Z</time>
      </trkpt>
      <trkpt lat="60.112651770298" lon="21.527039812834">
        <ele>7.4</ele>
        <time>2017-07-20T10:47:11Z</time>
      </trkpt>
      <trkpt lat="60.112650680651" lon="21.527020283007">
        <ele>7.4</ele>
        <time>2017-07-20T10:47:12Z</time>
      </trkpt>
      <trkpt lat="60.112653446678" lon="21.526995388764">
        <ele>7.4</ele>
        <time>2017-07-20T10:47:13Z</time>
      </trkpt>
      <trkpt lat="60.112650177737" lon="21.526979714611">
        <ele>7.4</ele>
        <time>2017-07-20T10:47:14Z</time>
      </trkpt>
      <trkpt lat="60.112655709791" lon="21.526953060169">
        <ele>7.4</ele>
        <time>2017-07-20T10:47:15Z</time>
      </trkpt>
      <trkpt lat="60.112652776126" lon="21.526938056568">
        <ele>7.4</ele>
        <time>2017-07-20T10:47:16Z</time>
      </trkpt>
      <trkpt lat="60.11265495542" lon="21.526908887556">
        <ele>7.4</ele>
        <time>2017-07-20T10:47:17Z</time>
      </trkpt>
      <trkpt lat="60.112652692307" lon="21.526890447376">
        <ele>7.4</ele>
        <time>2017-07-20T10:47:18Z</time>
      </trkpt>
      <trkpt lat="60.112649423366" lon="21.526868654436">
        <ele>7.4</ele>
        <time>2017-07-20T10:47:19Z</time>
      </trkpt>
      <trkpt lat="60.112649758642" lon="21.526854740482">
        <ele>7.4</ele>
        <time>2017-07-20T10:47:20Z</time>
      </trkpt>
      <trkpt lat="60.112643388398" lon="21.526827666945">
        <ele>7.4</ele>
        <time>2017-07-20T10:47:21Z</time>
      </trkpt>
      <trkpt lat="60.112641879656" lon="21.526814255905">
        <ele>7.4</ele>
        <time>2017-07-20T10:47:22Z</time>
      </trkpt>
      <trkpt lat="60.112634419765" lon="21.526788439653">
        <ele>7.4</ele>
        <time>2017-07-20T10:47:23Z</time>
      </trkpt>
      <trkpt lat="60.112631402281" lon="21.526772430224">
        <ele>7.4</ele>
        <time>2017-07-20T10:47:24Z</time>
      </trkpt>
      <trkpt lat="60.112624026209" lon="21.52674510523">
        <ele>7.4</ele>
        <time>2017-07-20T10:47:25Z</time>
      </trkpt>
      <trkpt lat="60.112621008725" lon="21.526729011982">
        <ele>7.4</ele>
        <time>2017-07-20T10:47:26Z</time>
      </trkpt>
      <trkpt lat="60.11261388411" lon="21.526706883766">
        <ele>7.4</ele>
        <time>2017-07-20T10:47:27Z</time>
      </trkpt>
      <trkpt lat="60.112610028436" lon="21.526691712527">
        <ele>7.4</ele>
        <time>2017-07-20T10:47:28Z</time>
      </trkpt>
      <trkpt lat="60.112602233269" lon="21.526672853252">
        <ele>7.4</ele>
        <time>2017-07-20T10:47:29Z</time>
      </trkpt>
      <trkpt lat="60.112595527749" lon="21.526654245434">
        <ele>7.4</ele>
        <time>2017-07-20T10:47:30Z</time>
      </trkpt>
      <trkpt lat="60.112587397306" lon="21.526636894901">
        <ele>7.4</ele>
        <time>2017-07-20T10:47:31Z</time>
      </trkpt>
      <trkpt lat="60.112578093397" lon="21.526617197436">
        <ele>7.4</ele>
        <time>2017-07-20T10:47:32Z</time>
      </trkpt>
      <trkpt lat="60.112571052601" lon="21.526604708405">
        <ele>7.4</ele>
        <time>2017-07-20T10:47:33Z</time>
      </trkpt>
      <trkpt lat="60.112564263262" lon="21.52659255465">
        <ele>7.4</ele>
        <time>2017-07-20T10:47:34Z</time>
      </trkpt>
      <trkpt lat="60.112555294629" lon="21.52656908533">
        <ele>7.4</ele>
        <time>2017-07-20T10:47:35Z</time>
      </trkpt>
      <trkpt lat="60.112543811426" lon="21.526538575214">
        <ele>7.4</ele>
        <time>2017-07-20T10:47:36Z</time>
      </trkpt>
      <trkpt lat="60.112538866105" lon="21.526525583269">
        <ele>7.4</ele>
        <time>2017-07-20T10:47:37Z</time>
      </trkpt>
      <trkpt lat="60.11252922692" lon="21.526496917171">
        <ele>7.4</ele>
        <time>2017-07-20T10:47:38Z</time>
      </trkpt>
      <trkpt lat="60.112526628531" lon="21.526483338493">
        <ele>7.4</ele>
        <time>2017-07-20T10:47:39Z</time>
      </trkpt>
      <trkpt lat="60.112518917183" lon="21.526452828377">
        <ele>7.4</ele>
        <time>2017-07-20T10:47:40Z</time>
      </trkpt>
      <trkpt lat="60.112516067337" lon="21.526437238043">
        <ele>7.4</ele>
        <time>2017-07-20T10:47:41Z</time>
      </trkpt>
      <trkpt lat="60.112511289654" lon="21.526405805918">
        <ele>7.4</ele>
        <time>2017-07-20T10:47:42Z</time>
      </trkpt>
      <trkpt lat="60.112510870559" lon="21.52638971267">
        <ele>7.4</ele>
        <time>2017-07-20T10:47:43Z</time>
      </trkpt>
      <trkpt lat="60.112512127844" lon="21.526372529775">
        <ele>7.4</ele>
        <time>2017-07-20T10:47:44Z</time>
      </trkpt>
      <trkpt lat="60.112513720405" lon="21.526354843966">
        <ele>7.4</ele>
        <time>2017-07-20T10:47:45Z</time>
      </trkpt>
      <trkpt lat="60.112513552767" lon="21.526329865904">
        <ele>7.4</ele>
        <time>2017-07-20T10:47:46Z</time>
      </trkpt>
      <trkpt lat="60.112521012658" lon="21.526306480403">
        <ele>7.4</ele>
        <time>2017-07-20T10:47:47Z</time>
      </trkpt>
      <trkpt lat="60.112520509744" lon="21.526288207861">
        <ele>7.4</ele>
        <time>2017-07-20T10:47:48Z</time>
      </trkpt>
      <trkpt lat="60.112526125617" lon="21.526263397437">
        <ele>7.4</ele>
        <time>2017-07-20T10:47:49Z</time>
      </trkpt>
      <trkpt lat="60.112528221092" lon="21.526245963085">
        <ele>7.4</ele>
        <time>2017-07-20T10:47:50Z</time>
      </trkpt>
      <trkpt lat="60.112530232748" lon="21.526219727738">
        <ele>7.4</ele>
        <time>2017-07-20T10:47:51Z</time>
      </trkpt>
      <trkpt lat="60.11253174149" lon="21.526204137404">
        <ele>7.4</ele>
        <time>2017-07-20T10:47:52Z</time>
      </trkpt>
      <trkpt lat="60.112530232748" lon="21.526182260645">
        <ele>7.4</ele>
        <time>2017-07-20T10:47:53Z</time>
      </trkpt>
      <trkpt lat="60.112531154757" lon="21.526168933424">
        <ele>7.4</ele>
        <time>2017-07-20T10:47:54Z</time>
      </trkpt>
      <trkpt lat="60.112528724006" lon="21.526140686421">
        <ele>7.4</ele>
        <time>2017-07-20T10:47:55Z</time>
      </trkpt>
      <trkpt lat="60.112529646015" lon="21.526126772467">
        <ele>7.4</ele>
        <time>2017-07-20T10:47:56Z</time>
      </trkpt>
      <trkpt lat="60.112525957979" lon="21.526096262351">
        <ele>7.4</ele>
        <time>2017-07-20T10:47:57Z</time>
      </trkpt>
      <trkpt lat="60.112525957979" lon="21.526077654533">
        <ele>7.4</ele>
        <time>2017-07-20T10:47:58Z</time>
      </trkpt>
      <trkpt lat="60.112522353762" lon="21.526053011747">
        <ele>7.4</ele>
        <time>2017-07-20T10:47:59Z</time>
      </trkpt>
      <trkpt lat="60.1125225214" lon="21.52602929097">
        <ele>7.4</ele>
        <time>2017-07-20T10:48:00Z</time>
      </trkpt>
      <trkpt lat="60.112520425925" lon="21.52599743975">
        <ele>7.4</ele>
        <time>2017-07-20T10:48:01Z</time>
      </trkpt>
      <trkpt lat="60.11252084502" lon="21.525977909923">
        <ele>7.4</ele>
        <time>2017-07-20T10:48:02Z</time>
      </trkpt>
      <trkpt lat="60.112523191952" lon="21.525950249653">
        <ele>7.4</ele>
        <time>2017-07-20T10:48:03Z</time>
      </trkpt>
      <trkpt lat="60.112524449237" lon="21.525931390378">
        <ele>7.4</ele>
        <time>2017-07-20T10:48:04Z</time>
      </trkpt>
      <trkpt lat="60.112530735662" lon="21.525906579954">
        <ele>7.4</ele>
        <time>2017-07-20T10:48:05Z</time>
      </trkpt>
      <trkpt lat="60.112530316567" lon="21.52588596048">
        <ele>7.4</ele>
        <time>2017-07-20T10:48:06Z</time>
      </trkpt>
      <trkpt lat="60.112539536657" lon="21.525860647142">
        <ele>7.4</ele>
        <time>2017-07-20T10:48:07Z</time>
      </trkpt>
      <trkpt lat="60.11254012339" lon="21.525841368772">
        <ele>7.4</ele>
        <time>2017-07-20T10:48:08Z</time>
      </trkpt>
      <trkpt lat="60.112541715951" lon="21.5258172289">
        <ele>7.4</ele>
        <time>2017-07-20T10:48:09Z</time>
      </trkpt>
      <trkpt lat="60.112544398159" lon="21.525799459272">
        <ele>7.4</ele>
        <time>2017-07-20T10:48:10Z</time>
      </trkpt>
      <trkpt lat="60.11254682891" lon="21.525773559201">
        <ele>7.4</ele>
        <time>2017-07-20T10:48:11Z</time>
      </trkpt>
      <trkpt lat="60.112548840566" lon="21.525751430985">
        <ele>7.4</ele>
        <time>2017-07-20T10:48:12Z</time>
      </trkpt>
      <trkpt lat="60.112553115335" lon="21.525726369104">
        <ele>7.4</ele>
        <time>2017-07-20T10:48:13Z</time>
      </trkpt>
      <trkpt lat="60.112554121163" lon="21.525700888128">
        <ele>7.4</ele>
        <time>2017-07-20T10:48:14Z</time>
      </trkpt>
      <trkpt lat="60.112557893018" lon="21.525678256998">
        <ele>7.4</ele>
        <time>2017-07-20T10:48:15Z</time>
      </trkpt>
      <trkpt lat="60.112561245778" lon="21.525657637524">
        <ele>7.4</ele>
        <time>2017-07-20T10:48:16Z</time>
      </trkpt>
      <trkpt lat="60.112570884963" lon="21.525632994738">
        <ele>7.4</ele>
        <time>2017-07-20T10:48:17Z</time>
      </trkpt>
      <trkpt lat="60.112572561343" lon="21.525606507934">
        <ele>7.4</ele>
        <time>2017-07-20T10:48:18Z</time>
      </trkpt>
      <trkpt lat="60.112584044546" lon="21.525588989763">
        <ele>7.4</ele>
        <time>2017-07-20T10:48:19Z</time>
      </trkpt>
      <trkpt lat="60.112585218012" lon="21.525564011701">
        <ele>7.4</ele>
        <time>2017-07-20T10:48:20Z</time>
      </trkpt>
      <trkpt lat="60.112596030663" lon="21.525540207105">
        <ele>7.4</ele>
        <time>2017-07-20T10:48:21Z</time>
      </trkpt>
      <trkpt lat="60.112597455586" lon="21.525522102201">
        <ele>7.4</ele>
        <time>2017-07-20T10:48:22Z</time>
      </trkpt>
      <trkpt lat="60.112606424219" lon="21.52549704032">
        <ele>7.4</ele>
        <time>2017-07-20T10:48:23Z</time>
      </trkpt>
      <trkpt lat="60.112606759495" lon="21.525478264864">
        <ele>7.4</ele>
        <time>2017-07-20T10:48:24Z</time>
      </trkpt>
      <trkpt lat="60.112612375368" lon="21.525452029517">
        <ele>7.4</ele>
        <time>2017-07-20T10:48:25Z</time>
      </trkpt>
      <trkpt lat="60.112613213558" lon="21.525434427527">
        <ele>7.4</ele>
        <time>2017-07-20T10:48:26Z</time>
      </trkpt>
      <trkpt lat="60.112611872454" lon="21.525412886044">
        <ele>7.4</ele>
        <time>2017-07-20T10:48:27Z</time>
      </trkpt>
      <trkpt lat="60.112613297377" lon="21.525399139728">
        <ele>7.4</ele>
        <time>2017-07-20T10:48:28Z</time>
      </trkpt>
      <trkpt lat="60.112609190246" lon="21.525375083675">
        <ele>7.4</ele>
        <time>2017-07-20T10:48:29Z</time>
      </trkpt>
      <trkpt lat="60.112608268237" lon="21.525357649323">
        <ele>7.4</ele>
        <time>2017-07-20T10:48:30Z</time>
      </trkpt>
      <trkpt lat="60.112600305432" lon="21.525329653777">
        <ele>7.4</ele>
        <time>2017-07-20T10:48:31Z</time>
      </trkpt>
      <trkpt lat="60.112596533577" lon="21.52531515309">
        <ele>7.4</ele>
        <time>2017-07-20T10:48:32Z</time>
      </trkpt>
      <trkpt lat="60.112586475297" lon="21.525288750105">
        <ele>7.4</ele>
        <time>2017-07-20T10:48:33Z</time>
      </trkpt>
      <trkpt lat="60.112580691786" lon="21.525273327409">
        <ele>7.4</ele>
        <time>2017-07-20T10:48:34Z</time>
      </trkpt>
      <trkpt lat="60.112571220239" lon="21.525247846433">
        <ele>7.4</ele>
        <time>2017-07-20T10:48:35Z</time>
      </trkpt>
      <trkpt lat="60.112563844167" lon="21.525226975502">
        <ele>7.4</ele>
        <time>2017-07-20T10:48:36Z</time>
      </trkpt>
      <trkpt lat="60.11255688719" lon="21.525203003268">
        <ele>7.4</ele>
        <time>2017-07-20T10:48:37Z</time>
      </trkpt>
      <trkpt lat="60.112552528602" lon="21.525180791233">
        <ele>7.4</ele>
        <time>2017-07-20T10:48:38Z</time>
      </trkpt>
      <trkpt lat="60.112545068711" lon="21.525155980809">
        <ele>7.4</ele>
        <time>2017-07-20T10:48:39Z</time>
      </trkpt>
      <trkpt lat="60.112542470322" lon="21.525135277516">
        <ele>7.4</ele>
        <time>2017-07-20T10:48:40Z</time>
      </trkpt>
      <trkpt lat="60.112537692639" lon="21.525106946694">
        <ele>7.4</ele>
        <time>2017-07-20T10:48:41Z</time>
      </trkpt>
      <trkpt lat="60.112536351535" lon="21.525086830134">
        <ele>7.4</ele>
        <time>2017-07-20T10:48:42Z</time>
      </trkpt>
      <trkpt lat="60.11253593244" lon="21.525063193176">
        <ele>7.4</ele>
        <time>2017-07-20T10:48:43Z</time>
      </trkpt>
      <trkpt lat="60.112540039571" lon="21.525040562046">
        <ele>7.4</ele>
        <time>2017-07-20T10:48:44Z</time>
      </trkpt>
      <trkpt lat="60.112537944096" lon="21.525014913432">
        <ele>7.4</ele>
        <time>2017-07-20T10:48:45Z</time>
      </trkpt>
      <trkpt lat="60.112545906901" lon="21.524996892347">
        <ele>7.4</ele>
        <time>2017-07-20T10:48:46Z</time>
      </trkpt>
      <trkpt lat="60.112548086195" lon="21.524976272873">
        <ele>7.4</ele>
        <time>2017-07-20T10:48:47Z</time>
      </trkpt>
      <trkpt lat="60.112557138647" lon="21.524950288983">
        <ele>7.4</ele>
        <time>2017-07-20T10:48:48Z</time>
      </trkpt>
      <trkpt lat="60.112562335425" lon="21.524934028097">
        <ele>7.4</ele>
        <time>2017-07-20T10:48:49Z</time>
      </trkpt>
      <trkpt lat="60.11256862185" lon="21.524907457474">
        <ele>7.4</ele>
        <time>2017-07-20T10:48:50Z</time>
      </trkpt>
      <trkpt lat="60.112579266863" lon="21.524889520208">
        <ele>7.4</ele>
        <time>2017-07-20T10:48:51Z</time>
      </trkpt>
      <trkpt lat="60.112582787261" lon="21.524868984553">
        <ele>7.4</ele>
        <time>2017-07-20T10:48:52Z</time>
      </trkpt>
      <trkpt lat="60.112594941016" lon="21.524848448898">
        <ele>7.4</ele>
        <time>2017-07-20T10:48:53Z</time>
      </trkpt>
      <trkpt lat="60.112599299604" lon="21.524829086709">
        <ele>7.4</ele>
        <time>2017-07-20T10:48:54Z</time>
      </trkpt>
      <trkpt lat="60.11260717859" lon="21.524803941009">
        <ele>7.4</ele>
        <time>2017-07-20T10:48:55Z</time>
      </trkpt>
      <trkpt lat="60.112612040092" lon="21.524783489173">
        <ele>7.4</ele>
        <time>2017-07-20T10:48:56Z</time>
      </trkpt>
      <trkpt lat="60.112619667621" lon="21.52476697683">
        <ele>7.4</ele>
        <time>2017-07-20T10:48:57Z</time>
      </trkpt>
      <trkpt lat="60.11262729515" lon="21.524740573845">
        <ele>7.4</ele>
        <time>2017-07-20T10:48:58Z</time>
      </trkpt>
      <trkpt lat="60.112633497756" lon="21.524727665719">
        <ele>7.4</ele>
        <time>2017-07-20T10:48:59Z</time>
      </trkpt>
      <trkpt lat="60.112644226588" lon="21.524700256906">
        <ele>7.4</ele>
        <time>2017-07-20T10:49:00Z</time>
      </trkpt>
      <trkpt lat="60.112650513013" lon="21.524691120635">
        <ele>7.4</ele>
        <time>2017-07-20T10:49:01Z</time>
      </trkpt>
      <trkpt lat="60.112663924053" lon="21.524667316039">
        <ele>7.4</ele>
        <time>2017-07-20T10:49:02Z</time>
      </trkpt>
      <trkpt lat="60.112672054496" lon="21.524657257759">
        <ele>7.4</ele>
        <time>2017-07-20T10:49:03Z</time>
      </trkpt>
      <trkpt lat="60.112686471364" lon="21.524641835063">
        <ele>7.4</ele>
        <time>2017-07-20T10:49:04Z</time>
      </trkpt>
      <trkpt lat="60.112697619291" lon="21.52463202824">
        <ele>7.4</ele>
        <time>2017-07-20T10:49:05Z</time>
      </trkpt>
      <trkpt lat="60.112713712539" lon="21.524622389055">
        <ele>7.4</ele>
        <time>2017-07-20T10:49:06Z</time>
      </trkpt>
      <trkpt lat="60.11272703976" lon="21.524616521725">
        <ele>7.4</ele>
        <time>2017-07-20T10:49:07Z</time>
      </trkpt>
      <trkpt lat="60.112740534619" lon="21.524615515897">
        <ele>7.4</ele>
        <time>2017-07-20T10:49:08Z</time>
      </trkpt>
      <trkpt lat="60.112753526564" lon="21.524612079318">
        <ele>7.4</ele>
        <time>2017-07-20T10:49:09Z</time>
      </trkpt>
      <trkpt lat="60.112767775794" lon="21.524618114286">
        <ele>7.4</ele>
        <time>2017-07-20T10:49:10Z</time>
      </trkpt>
      <trkpt lat="60.112779678092" lon="21.524608810377">
        <ele>7.4</ele>
        <time>2017-07-20T10:49:11Z</time>
      </trkpt>
      <trkpt lat="60.11279493315" lon="21.52462280815">
        <ele>7.4</ele>
        <time>2017-07-20T10:49:12Z</time>
      </trkpt>
      <trkpt lat="60.112807506" lon="21.5246186172">
        <ele>7.4</ele>
        <time>2017-07-20T10:49:13Z</time>
      </trkpt>
      <trkpt lat="60.112820246488" lon="21.524618281924">
        <ele>7.4</ele>
        <time>2017-07-20T10:49:14Z</time>
      </trkpt>
      <trkpt lat="60.11283600446" lon="21.52461694082">
        <ele>7.4</ele>
        <time>2017-07-20T10:49:15Z</time>
      </trkpt>
      <trkpt lat="60.112845476007" lon="21.524619371571">
        <ele>7.4</ele>
        <time>2017-07-20T10:49:16Z</time>
      </trkpt>
      <trkpt lat="60.112865173472" lon="21.524619287752">
        <ele>7.4</ele>
        <time>2017-07-20T10:49:17Z</time>
      </trkpt>
      <trkpt lat="60.112874393562" lon="21.524620712675">
        <ele>7.4</ele>
        <time>2017-07-20T10:49:18Z</time>
      </trkpt>
      <trkpt lat="60.112889564801" lon="21.524625909453">
        <ele>7.4</ele>
        <time>2017-07-20T10:49:19Z</time>
      </trkpt>
      <trkpt lat="60.112901634737" lon="21.524624316892">
        <ele>7.4</ele>
        <time>2017-07-20T10:49:20Z</time>
      </trkpt>
      <trkpt lat="60.112919488184" lon="21.524632363516">
        <ele>7.4</ele>
        <time>2017-07-20T10:49:21Z</time>
      </trkpt>
      <trkpt lat="60.112930300835" lon="21.524629262213">
        <ele>7.4</ele>
        <time>2017-07-20T10:49:22Z</time>
      </trkpt>
      <trkpt lat="60.112948238101" lon="21.524630519498">
        <ele>7.4</ele>
        <time>2017-07-20T10:49:23Z</time>
      </trkpt>
      <trkpt lat="60.112957793467" lon="21.524630854774">
        <ele>7.4</ele>
        <time>2017-07-20T10:49:24Z</time>
      </trkpt>
      <trkpt lat="60.112974976362" lon="21.524628424023">
        <ele>7.4</ele>
        <time>2017-07-20T10:49:25Z</time>
      </trkpt>
      <trkpt lat="60.112986124289" lon="21.524626412367">
        <ele>7.4</ele>
        <time>2017-07-20T10:49:26Z</time>
      </trkpt>
      <trkpt lat="60.112999367691" lon="21.524626496186">
        <ele>7.4</ele>
        <time>2017-07-20T10:49:27Z</time>
      </trkpt>
      <trkpt lat="60.11301286255" lon="21.524621886141">
        <ele>7.4</ele>
        <time>2017-07-20T10:49:28Z</time>
      </trkpt>
      <trkpt lat="60.113025267762" lon="21.524620545037">
        <ele>7.4</ele>
        <time>2017-07-20T10:49:29Z</time>
      </trkpt>
      <trkpt lat="60.1130421992" lon="21.524616018811">
        <ele>7.4</ele>
        <time>2017-07-20T10:49:30Z</time>
      </trkpt>
      <trkpt lat="60.113053263308" lon="21.524616270268">
        <ele>7.4</ele>
        <time>2017-07-20T10:49:31Z</time>
      </trkpt>
      <trkpt lat="60.113072876954" lon="21.524611827861">
        <ele>7.4</ele>
        <time>2017-07-20T10:49:32Z</time>
      </trkpt>
      <trkpt lat="60.113084695433" lon="21.524612498413">
        <ele>7.4</ele>
        <time>2017-07-20T10:49:33Z</time>
      </trkpt>
      <trkpt lat="60.113099866672" lon="21.524608978015">
        <ele>7.4</ele>
        <time>2017-07-20T10:49:34Z</time>
      </trkpt>
      <trkpt lat="60.113113612988" lon="21.524610989671">
        <ele>7.4</ele>
        <time>2017-07-20T10:49:35Z</time>
      </trkpt>
      <trkpt lat="60.113132472263" lon="21.524609061834">
        <ele>7.4</ele>
        <time>2017-07-20T10:49:36Z</time>
      </trkpt>
      <trkpt lat="60.113143704009" lon="21.524610067662">
        <ele>7.4</ele>
        <time>2017-07-20T10:49:37Z</time>
      </trkpt>
      <trkpt lat="60.113163485293" lon="21.524610151481">
        <ele>7.4</ele>
        <time>2017-07-20T10:49:38Z</time>
      </trkpt>
      <trkpt lat="60.113174465582" lon="21.524612666051">
        <ele>7.4</ele>
        <time>2017-07-20T10:49:39Z</time>
      </trkpt>
      <trkpt lat="60.113193827771" lon="21.524615180621">
        <ele>7.4</ele>
        <time>2017-07-20T10:49:40Z</time>
      </trkpt>
      <trkpt lat="60.113205897707" lon="21.5246186172">
        <ele>7.4</ele>
        <time>2017-07-20T10:49:41Z</time>
      </trkpt>
      <trkpt lat="60.113225343715" lon="21.524622891969">
        <ele>7.4</ele>
        <time>2017-07-20T10:49:42Z</time>
      </trkpt>
      <trkpt lat="60.113235904909" lon="21.524625406539">
        <ele>7.4</ele>
        <time>2017-07-20T10:49:43Z</time>
      </trkpt>
      <trkpt lat="60.113253506899" lon="21.524632531154">
        <ele>7.4</ele>
        <time>2017-07-20T10:49:44Z</time>
      </trkpt>
      <trkpt lat="60.113266917939" lon="21.524637141199">
        <ele>7.4</ele>
        <time>2017-07-20T10:49:45Z</time>
      </trkpt>
      <trkpt lat="60.113280999531" lon="21.52464879204">
        <ele>7.4</ele>
        <time>2017-07-20T10:49:46Z</time>
      </trkpt>
      <trkpt lat="60.113294075295" lon="21.524659856148">
        <ele>7.4</ele>
        <time>2017-07-20T10:49:47Z</time>
      </trkpt>
      <trkpt lat="60.113310671457" lon="21.524667399858">
        <ele>7.4</ele>
        <time>2017-07-20T10:49:48Z</time>
      </trkpt>
      <trkpt lat="60.113321065013" lon="21.524682990192">
        <ele>7.4</ele>
        <time>2017-07-20T10:49:49Z</time>
      </trkpt>
      <trkpt lat="60.113334559872" lon="21.524686426771">
        <ele>7.4</ele>
        <time>2017-07-20T10:49:50Z</time>
      </trkpt>
      <trkpt lat="60.113348222369" lon="21.524700089268">
        <ele>7.4</ele>
        <time>2017-07-20T10:49:51Z</time>
      </trkpt>
      <trkpt lat="60.113362974513" lon="21.524703358209">
        <ele>7.4</ele>
        <time>2017-07-20T10:49:52Z</time>
      </trkpt>
      <trkpt lat="60.113375212087" lon="21.524716433973">
        <ele>7.4</ele>
        <time>2017-07-20T10:49:53Z</time>
      </trkpt>
      <trkpt lat="60.113389796593" lon="21.524718445629">
        <ele>7.4</ele>
        <time>2017-07-20T10:49:54Z</time>
      </trkpt>
      <trkpt lat="60.113402369443" lon="21.524720373466">
        <ele>7.4</ele>
        <time>2017-07-20T10:49:55Z</time>
      </trkpt>
      <trkpt lat="60.113417205406" lon="21.524716936887">
        <ele>7.4</ele>
        <time>2017-07-20T10:49:56Z</time>
      </trkpt>
      <trkpt lat="60.11342692841" lon="21.524719786733">
        <ele>7.4</ele>
        <time>2017-07-20T10:49:57Z</time>
      </trkpt>
      <trkpt lat="60.113443356934" lon="21.524713835584">
        <ele>7.4</ele>
        <time>2017-07-20T10:49:58Z</time>
      </trkpt>
      <trkpt lat="60.113451906472" lon="21.524712578299">
        <ele>7.4</ele>
        <time>2017-07-20T10:49:59Z</time>
      </trkpt>
      <trkpt lat="60.113469843738" lon="21.524706794788">
        <ele>7.4</ele>
        <time>2017-07-20T10:50:00Z</time>
      </trkpt>
      <trkpt lat="60.11347889619" lon="21.52470411258">
        <ele>7.4</ele>
        <time>2017-07-20T10:50:01Z</time>
      </trkpt>
      <trkpt lat="60.113495995266" lon="21.524701430372">
        <ele>7.4</ele>
        <time>2017-07-20T10:50:02Z</time>
      </trkpt>
      <trkpt lat="60.113506724098" lon="21.524697574698">
        <ele>7.4</ele>
        <time>2017-07-20T10:50:03Z</time>
      </trkpt>
      <trkpt lat="60.113521392423" lon="21.5246940543">
        <ele>7.4</ele>
        <time>2017-07-20T10:50:04Z</time>
      </trkpt>
      <trkpt lat="60.113534552006" lon="21.52469070154">
        <ele>7.4</ele>
        <time>2017-07-20T10:50:05Z</time>
      </trkpt>
      <trkpt lat="60.113550477616" lon="21.524692042644">
        <ele>7.4</ele>
        <time>2017-07-20T10:50:06Z</time>
      </trkpt>
      <trkpt lat="60.113564223932" lon="21.524689360436">
        <ele>7.4</ele>
        <time>2017-07-20T10:50:07Z</time>
      </trkpt>
      <trkpt lat="60.11357780261" lon="21.524694389576">
        <ele>7.4</ele>
        <time>2017-07-20T10:50:08Z</time>
      </trkpt>
      <trkpt lat="60.113589034356" lon="21.524699418716">
        <ele>7.4</ele>
        <time>2017-07-20T10:50:09Z</time>
      </trkpt>
      <trkpt lat="60.113600349921" lon="21.524706962426">
        <ele>7.4</ele>
        <time>2017-07-20T10:50:10Z</time>
      </trkpt>
      <trkpt lat="60.113615772617" lon="21.524712829756">
        <ele>7.4</ele>
        <time>2017-07-20T10:50:11Z</time>
      </trkpt>
      <trkpt lat="60.11362474125" lon="21.52472255276">
        <ele>7.4</ele>
        <time>2017-07-20T10:50:12Z</time>
      </trkpt>
      <trkpt lat="60.113640331584" lon="21.524728336271">
        <ele>7.4</ele>
        <time>2017-07-20T10:50:13Z</time>
      </trkpt>
      <trkpt lat="60.113649803131" lon="21.52473931656">
        <ele>7.4</ele>
        <time>2017-07-20T10:50:14Z</time>
      </trkpt>
      <trkpt lat="60.113664722913" lon="21.524745686804">
        <ele>7.4</ele>
        <time>2017-07-20T10:50:15Z</time>
      </trkpt>
      <trkpt lat="60.113673691546" lon="21.524753649609">
        <ele>7.4</ele>
        <time>2017-07-20T10:50:16Z</time>
      </trkpt>
      <trkpt lat="60.113687102586" lon="21.524755828903">
        <ele>7.4</ele>
        <time>2017-07-20T10:50:17Z</time>
      </trkpt>
      <trkpt lat="60.113697412323" lon="21.52475775674">
        <ele>7.4</ele>
        <time>2017-07-20T10:50:18Z</time>
      </trkpt>
      <trkpt lat="60.113710404268" lon="21.52476194769">
        <ele>7.4</ele>
        <time>2017-07-20T10:50:19Z</time>
      </trkpt>
      <trkpt lat="60.113724988774" lon="21.524761612414">
        <ele>7.4</ele>
        <time>2017-07-20T10:50:20Z</time>
      </trkpt>
      <trkpt lat="60.11373538233" lon="21.524765216631">
        <ele>7.4</ele>
        <time>2017-07-20T10:50:21Z</time>
      </trkpt>
      <trkpt lat="60.113751224121" lon="21.524766473916">
        <ele>7.4</ele>
        <time>2017-07-20T10:50:22Z</time>
      </trkpt>
      <trkpt lat="60.113761952953" lon="21.524766725373">
        <ele>7.4</ele>
        <time>2017-07-20T10:50:23Z</time>
      </trkpt>
      <trkpt lat="60.113776369821" lon="21.524768820848">
        <ele>7.4</ele>
        <time>2017-07-20T10:50:24Z</time>
      </trkpt>
      <trkpt lat="60.113790619051" lon="21.52477032959">
        <ele>7.4</ele>
        <time>2017-07-20T10:50:25Z</time>
      </trkpt>
      <trkpt lat="60.113801347883" lon="21.524776783653">
        <ele>7.4</ele>
        <time>2017-07-20T10:50:26Z</time>
      </trkpt>
      <trkpt lat="60.113812579629" lon="21.524780806965">
        <ele>7.4</ele>
        <time>2017-07-20T10:50:27Z</time>
      </trkpt>
      <trkpt lat="60.113823727556" lon="21.524789272684">
        <ele>7.4</ele>
        <time>2017-07-20T10:50:28Z</time>
      </trkpt>
      <trkpt lat="60.113837473872" lon="21.524793295996">
        <ele>7.4</ele>
        <time>2017-07-20T10:50:29Z</time>
      </trkpt>
      <trkpt lat="60.113849208532" lon="21.524803102819">
        <ele>7.4</ele>
        <time>2017-07-20T10:50:30Z</time>
      </trkpt>
      <trkpt lat="60.113863122486" lon="21.524808802511">
        <ele>7.4</ele>
        <time>2017-07-20T10:50:31Z</time>
      </trkpt>
      <trkpt lat="60.113874018956" lon="21.52480972452">
        <ele>7.4</ele>
        <time>2017-07-20T10:50:32Z</time>
      </trkpt>
      <trkpt lat="60.113885502159" lon="21.524816932954">
        <ele>7.4</ele>
        <time>2017-07-20T10:50:33Z</time>
      </trkpt>
      <trkpt lat="60.113895895715" lon="21.52482397375">
        <ele>7.4</ele>
        <time>2017-07-20T10:50:34Z</time>
      </trkpt>
      <trkpt lat="60.113906456909" lon="21.52483151746">
        <ele>7.4</ele>
        <time>2017-07-20T10:50:35Z</time>
      </trkpt>
      <trkpt lat="60.113919951768" lon="21.524835792229">
        <ele>7.4</ele>
        <time>2017-07-20T10:50:36Z</time>
      </trkpt>
      <trkpt lat="60.113926992564" lon="21.524841072826">
        <ele>7.4</ele>
        <time>2017-07-20T10:50:37Z</time>
      </trkpt>
      <trkpt lat="60.113937805215" lon="21.524851550201">
        <ele>7.4</ele>
        <time>2017-07-20T10:50:38Z</time>
      </trkpt>
      <trkpt lat="60.11394828259" lon="21.524863201042">
        <ele>7.4</ele>
        <time>2017-07-20T10:50:39Z</time>
      </trkpt>
      <trkpt lat="60.113961861268" lon="21.524864709784">
        <ele>7.4</ele>
        <time>2017-07-20T10:50:40Z</time>
      </trkpt>
      <trkpt lat="60.113970243168" lon="21.524876444444">
        <ele>7.4</ele>
        <time>2017-07-20T10:50:41Z</time>
      </trkpt>
      <trkpt lat="60.113983821846" lon="21.52487761791">
        <ele>7.4</ele>
        <time>2017-07-20T10:50:42Z</time>
      </trkpt>
      <trkpt lat="60.113993880126" lon="21.524890442217">
        <ele>7.4</ele>
        <time>2017-07-20T10:50:43Z</time>
      </trkpt>
      <trkpt lat="60.11400695589" lon="21.524893711158">
        <ele>7.4</ele>
        <time>2017-07-20T10:50:44Z</time>
      </trkpt>
      <trkpt lat="60.114015253971" lon="21.524899578488">
        <ele>7.4</ele>
        <time>2017-07-20T10:50:45Z</time>
      </trkpt>
      <trkpt lat="60.11402623426" lon="21.524910558777">
        <ele>7.4</ele>
        <time>2017-07-20T10:50:46Z</time>
      </trkpt>
      <trkpt lat="60.114037801282" lon="21.524920281781">
        <ele>7.4</ele>
        <time>2017-07-20T10:50:47Z</time>
      </trkpt>
      <trkpt lat="60.11404970358" lon="21.524926484387">
        <ele>7.4</ele>
        <time>2017-07-20T10:50:48Z</time>
      </trkpt>
      <trkpt lat="60.114057079652" lon="21.524931429708">
        <ele>7.4</ele>
        <time>2017-07-20T10:50:49Z</time>
      </trkpt>
      <trkpt lat="60.114066048285" lon="21.524939308694">
        <ele>7.4</ele>
        <time>2017-07-20T10:50:50Z</time>
      </trkpt>
      <trkpt lat="60.114075771289" lon="21.52494802587">
        <ele>7.4</ele>
        <time>2017-07-20T10:50:51Z</time>
      </trkpt>
      <trkpt lat="60.114083398818" lon="21.524963448566">
        <ele>7.4</ele>
        <time>2017-07-20T10:50:52Z</time>
      </trkpt>
      <trkpt lat="60.114095887849" lon="21.524967136602">
        <ele>7.4</ele>
        <time>2017-07-20T10:50:53Z</time>
      </trkpt>
      <trkpt lat="60.114102928645" lon="21.524974428855">
        <ele>7.4</ele>
        <time>2017-07-20T10:50:54Z</time>
      </trkpt>
      <trkpt lat="60.114115250038" lon="21.524977278701">
        <ele>7.4</ele>
        <time>2017-07-20T10:50:55Z</time>
      </trkpt>
      <trkpt lat="60.114122709929" lon="21.52498071528">
        <ele>7.4</ele>
        <time>2017-07-20T10:50:56Z</time>
      </trkpt>
      <trkpt lat="60.114133354942" lon="21.524987253162">
        <ele>7.4</ele>
        <time>2017-07-20T10:50:57Z</time>
      </trkpt>
      <trkpt lat="60.114146179249" lon="21.524991779388">
        <ele>7.4</ele>
        <time>2017-07-20T10:50:58Z</time>
      </trkpt>
      <trkpt lat="60.114154058235" lon="21.524997059985">
        <ele>7.4</ele>
        <time>2017-07-20T10:50:59Z</time>
      </trkpt>
      <trkpt lat="60.114169480931" lon="21.525001586211">
        <ele>7.4</ele>
        <time>2017-07-20T10:51:00Z</time>
      </trkpt>
      <trkpt lat="60.114178365745" lon="21.525006280075">
        <ele>7.4</ele>
        <time>2017-07-20T10:51:01Z</time>
      </trkpt>
      <trkpt lat="60.114195297183" lon="21.52500921374">
        <ele>7.4</ele>
        <time>2017-07-20T10:51:02Z</time>
      </trkpt>
      <trkpt lat="60.114205439282" lon="21.525013320871">
        <ele>7.4</ele>
        <time>2017-07-20T10:51:03Z</time>
      </trkpt>
      <trkpt lat="60.11421901796" lon="21.525018350011">
        <ele>7.4</ele>
        <time>2017-07-20T10:51:04Z</time>
      </trkpt>
      <trkpt lat="60.114231674629" lon="21.525022960056">
        <ele>7.4</ele>
        <time>2017-07-20T10:51:05Z</time>
      </trkpt>
      <trkpt lat="60.114246426773" lon="21.525031174318">
        <ele>7.4</ele>
        <time>2017-07-20T10:51:06Z</time>
      </trkpt>
      <trkpt lat="60.114258999623" lon="21.525035616725">
        <ele>7.4</ele>
        <time>2017-07-20T10:51:07Z</time>
      </trkpt>
      <trkpt lat="60.114272997396" lon="21.525045507367">
        <ele>7.4</ele>
        <time>2017-07-20T10:51:08Z</time>
      </trkpt>
      <trkpt lat="60.114284564418" lon="21.525054643638">
        <ele>7.4</ele>
        <time>2017-07-20T10:51:09Z</time>
      </trkpt>
      <trkpt lat="60.114297304906" lon="21.525073838189">
        <ele>7.4</ele>
        <time>2017-07-20T10:51:10Z</time>
      </trkpt>
      <trkpt lat="60.114307530824" lon="21.525077610044">
        <ele>7.4</ele>
        <time>2017-07-20T10:51:11Z</time>
      </trkpt>
      <trkpt lat="60.114318594932" lon="21.525102336649">
        <ele>7.6</ele>
        <time>2017-07-20T10:51:12Z</time>
      </trkpt>
      <trkpt lat="60.114328737031" lon="21.525109712721">
        <ele>8</ele>
        <time>2017-07-20T10:51:13Z</time>
      </trkpt>
      <trkpt lat="60.114340052596" lon="21.525133852593">
        <ele>8.4</ele>
        <time>2017-07-20T10:51:14Z</time>
      </trkpt>
      <trkpt lat="60.114349440324" lon="21.525151454583">
        <ele>9</ele>
        <time>2017-07-20T10:51:15Z</time>
      </trkpt>
      <trkpt lat="60.114361174984" lon="21.525169978582">
        <ele>9.2</ele>
        <time>2017-07-20T10:51:16Z</time>
      </trkpt>
      <trkpt lat="60.114370143617" lon="21.525192609712">
        <ele>9.6</ele>
        <time>2017-07-20T10:51:17Z</time>
      </trkpt>
      <trkpt lat="60.114383387019" lon="21.525210044064">
        <ele>9.6</ele>
        <time>2017-07-20T10:51:18Z</time>
      </trkpt>
      <trkpt lat="60.114391601281" lon="21.525230663538">
        <ele>9.6</ele>
        <time>2017-07-20T10:51:19Z</time>
      </trkpt>
      <trkpt lat="60.114405599054" lon="21.525243739302">
        <ele>9.6</ele>
        <time>2017-07-20T10:51:20Z</time>
      </trkpt>
      <trkpt lat="60.114414148592" lon="21.525265532242">
        <ele>9.6</ele>
        <time>2017-07-20T10:51:21Z</time>
      </trkpt>
      <trkpt lat="60.114427308175" lon="21.525274333237">
        <ele>9.6</ele>
        <time>2017-07-20T10:51:22Z</time>
      </trkpt>
      <trkpt lat="60.114437701731" lon="21.52529168377">
        <ele>9.6</ele>
        <time>2017-07-20T10:51:23Z</time>
      </trkpt>
      <trkpt lat="60.114450861314" lon="21.525298305471">
        <ele>9.6</ele>
        <time>2017-07-20T10:51:24Z</time>
      </trkpt>
      <trkpt lat="60.114461590146" lon="21.525312135606">
        <ele>9.6</ele>
        <time>2017-07-20T10:51:25Z</time>
      </trkpt>
      <trkpt lat="60.114475923195" lon="21.525318841126">
        <ele>9.6</ele>
        <time>2017-07-20T10:51:26Z</time>
      </trkpt>
      <trkpt lat="60.114484556552" lon="21.525327306845">
        <ele>9.6</ele>
        <time>2017-07-20T10:51:27Z</time>
      </trkpt>
      <trkpt lat="60.114497799954" lon="21.525330408148">
        <ele>9.6</ele>
        <time>2017-07-20T10:51:28Z</time>
      </trkpt>
      <trkpt lat="60.114505762759" lon="21.525335604926">
        <ele>9.6</ele>
        <time>2017-07-20T10:51:29Z</time>
      </trkpt>
      <trkpt lat="60.114520514903" lon="21.525344154464">
        <ele>9.6</ele>
        <time>2017-07-20T10:51:30Z</time>
      </trkpt>
      <trkpt lat="60.114530237907" lon="21.525348345414">
        <ele>9.6</ele>
        <time>2017-07-20T10:51:31Z</time>
      </trkpt>
      <trkpt lat="60.114542643119" lon="21.525359325703">
        <ele>9.6</ele>
        <time>2017-07-20T10:51:32Z</time>
      </trkpt>
      <trkpt lat="60.114553120494" lon="21.525367456146">
        <ele>9.6</ele>
        <time>2017-07-20T10:51:33Z</time>
      </trkpt>
      <trkpt lat="60.114565693344" lon="21.525374413123">
        <ele>9.6</ele>
        <time>2017-07-20T10:51:34Z</time>
      </trkpt>
      <trkpt lat="60.11457776328" lon="21.525386566878">
        <ele>9.6</ele>
        <time>2017-07-20T10:51:35Z</time>
      </trkpt>
      <trkpt lat="60.114592347786" lon="21.525391344561">
        <ele>9.6</ele>
        <time>2017-07-20T10:51:36Z</time>
      </trkpt>
      <trkpt lat="60.114602322247" lon="21.525402911583">
        <ele>9.6</ele>
        <time>2017-07-20T10:51:37Z</time>
      </trkpt>
      <trkpt lat="60.114617577305" lon="21.525411964035">
        <ele>9.6</ele>
        <time>2017-07-20T10:51:38Z</time>
      </trkpt>
      <trkpt lat="60.114625959205" lon="21.525421351763">
        <ele>9.6</ele>
        <time>2017-07-20T10:51:39Z</time>
      </trkpt>
      <trkpt lat="60.114640543711" lon="21.525430907129">
        <ele>9.6</ele>
        <time>2017-07-20T10:51:40Z</time>
      </trkpt>
      <trkpt lat="60.114650518172" lon="21.525438031744">
        <ele>9.6</ele>
        <time>2017-07-20T10:51:41Z</time>
      </trkpt>
      <trkpt lat="60.114665605592" lon="21.525445156359">
        <ele>9.6</ele>
        <time>2017-07-20T10:51:42Z</time>
      </trkpt>
      <trkpt lat="60.114674490406" lon="21.525450353137">
        <ele>9.6</ele>
        <time>2017-07-20T10:51:43Z</time>
      </trkpt>
      <trkpt lat="60.114687482351" lon="21.525456974838">
        <ele>9.6</ele>
        <time>2017-07-20T10:51:44Z</time>
      </trkpt>
      <trkpt lat="60.11469762445" lon="21.525458148304">
        <ele>9.6</ele>
        <time>2017-07-20T10:51:45Z</time>
      </trkpt>
      <trkpt lat="60.114711622223" lon="21.525465440557">
        <ele>9.6</ele>
        <time>2017-07-20T10:51:46Z</time>
      </trkpt>
      <trkpt lat="60.114719501209" lon="21.525461501064">
        <ele>9.6</ele>
        <time>2017-07-20T10:51:47Z</time>
      </trkpt>
      <trkpt lat="60.114734588629" lon="21.525469128593">
        <ele>9.6</ele>
        <time>2017-07-20T10:51:48Z</time>
      </trkpt>
      <trkpt lat="60.114741713244" lon="21.525461333426">
        <ele>9.6</ele>
        <time>2017-07-20T10:51:49Z</time>
      </trkpt>
      <trkpt lat="60.114757638854" lon="21.525468122765">
        <ele>9.6</ele>
        <time>2017-07-20T10:51:50Z</time>
      </trkpt>
      <trkpt lat="60.114765685478" lon="21.525457561571">
        <ele>9.6</ele>
        <time>2017-07-20T10:51:51Z</time>
      </trkpt>
      <trkpt lat="60.114779599432" lon="21.525463764177">
        <ele>9.6</ele>
        <time>2017-07-20T10:51:52Z</time>
      </trkpt>
      <trkpt lat="60.11478898716" lon="21.52545345444">
        <ele>9.6</ele>
        <time>2017-07-20T10:51:53Z</time>
      </trkpt>
      <trkpt lat="60.114802482019" lon="21.525460411417">
        <ele>9.6</ele>
        <time>2017-07-20T10:51:54Z</time>
      </trkpt>
      <trkpt lat="60.114812121204" lon="21.525448173843">
        <ele>9.6</ele>
        <time>2017-07-20T10:51:55Z</time>
      </trkpt>
      <trkpt lat="60.11482502933" lon="21.525453035345">
        <ele>9.6</ele>
        <time>2017-07-20T10:51:56Z</time>
      </trkpt>
      <trkpt lat="60.114836093438" lon="21.525444485807">
        <ele>9.6</ele>
        <time>2017-07-20T10:51:57Z</time>
      </trkpt>
      <trkpt lat="60.114845900261" lon="21.525439540486">
        <ele>9.6</ele>
        <time>2017-07-20T10:51:58Z</time>
      </trkpt>
      <trkpt lat="60.114855036532" lon="21.52543920521">
        <ele>9.6</ele>
        <time>2017-07-20T10:51:59Z</time>
      </trkpt>
      <trkpt lat="60.114865430088" lon="21.525441635961">
        <ele>9.6</ele>
        <time>2017-07-20T10:52:00Z</time>
      </trkpt>
      <trkpt lat="60.114879260223" lon="21.525447000377">
        <ele>9.6</ele>
        <time>2017-07-20T10:52:01Z</time>
      </trkpt>
      <trkpt lat="60.114888145037" lon="21.52544255797">
        <ele>9.6</ele>
        <time>2017-07-20T10:52:02Z</time>
      </trkpt>
      <trkpt lat="60.11490214281" lon="21.525456891019">
        <ele>9.6</ele>
        <time>2017-07-20T10:52:03Z</time>
      </trkpt>
      <trkpt lat="60.114910105615" lon="21.525454627906">
        <ele>9.6</ele>
        <time>2017-07-20T10:52:04Z</time>
      </trkpt>
      <trkpt lat="60.114925695949" lon="21.525471224068">
        <ele>9.6</ele>
        <time>2017-07-20T10:52:05Z</time>
      </trkpt>
      <trkpt lat="60.114934999858" lon="21.525470553516">
        <ele>9.6</ele>
        <time>2017-07-20T10:52:06Z</time>
      </trkpt>
      <trkpt lat="60.114950590192" lon="21.52548614385">
        <ele>9.6</ele>
        <time>2017-07-20T10:52:07Z</time>
      </trkpt>
      <trkpt lat="60.114959475006" lon="21.525486646764">
        <ele>9.6</ele>
        <time>2017-07-20T10:52:08Z</time>
      </trkpt>
      <trkpt lat="60.114973808055" lon="21.525500560718">
        <ele>9.6</ele>
        <time>2017-07-20T10:52:09Z</time>
      </trkpt>
      <trkpt lat="60.114982944326" lon="21.525499973985">
        <ele>9.6</ele>
        <time>2017-07-20T10:52:10Z</time>
      </trkpt>
      <trkpt lat="60.114999875764" lon="21.525510870455">
        <ele>9.6</ele>
        <time>2017-07-20T10:52:11Z</time>
      </trkpt>
      <trkpt lat="60.115008844397" lon="21.525508020609">
        <ele>9.6</ele>
        <time>2017-07-20T10:52:12Z</time>
      </trkpt>
      <trkpt lat="60.115025021464" lon="21.525513552663">
        <ele>9.6</ele>
        <time>2017-07-20T10:52:13Z</time>
      </trkpt>
      <trkpt lat="60.115034660649" lon="21.525515061405">
        <ele>9.6</ele>
        <time>2017-07-20T10:52:14Z</time>
      </trkpt>
      <trkpt lat="60.115048574603" lon="21.525508691161">
        <ele>9.6</ele>
        <time>2017-07-20T10:52:15Z</time>
      </trkpt>
      <trkpt lat="60.115055866856" lon="21.525511541007">
        <ele>9.6</ele>
        <time>2017-07-20T10:52:16Z</time>
      </trkpt>
      <trkpt lat="60.115071792466" lon="21.525507014781">
        <ele>9.6</ele>
        <time>2017-07-20T10:52:17Z</time>
      </trkpt>
      <trkpt lat="60.115081012556" lon="21.525508355885">
        <ele>9.6</ele>
        <time>2017-07-20T10:52:18Z</time>
      </trkpt>
      <trkpt lat="60.115097860175" lon="21.525503494383">
        <ele>9.6</ele>
        <time>2017-07-20T10:52:19Z</time>
      </trkpt>
      <trkpt lat="60.115109427197" lon="21.525503578202">
        <ele>9.6</ele>
        <time>2017-07-20T10:52:20Z</time>
      </trkpt>
      <trkpt lat="60.115127783558" lon="21.525502823831">
        <ele>9.6</ele>
        <time>2017-07-20T10:52:21Z</time>
      </trkpt>
      <trkpt lat="60.115139685856" lon="21.525504667849">
        <ele>9.6</ele>
        <time>2017-07-20T10:52:22Z</time>
      </trkpt>
      <trkpt lat="60.115158126036" lon="21.525510702817">
        <ele>9.6</ele>
        <time>2017-07-20T10:52:23Z</time>
      </trkpt>
      <trkpt lat="60.115170866524" lon="21.52551799507">
        <ele>9.6</ele>
        <time>2017-07-20T10:52:24Z</time>
      </trkpt>
      <trkpt lat="60.115188971428" lon="21.525529645911">
        <ele>9.6</ele>
        <time>2017-07-20T10:52:25Z</time>
      </trkpt>
      <trkpt lat="60.115200873726" lon="21.525542470218">
        <ele>9.6</ele>
        <time>2017-07-20T10:52:26Z</time>
      </trkpt>
      <trkpt lat="60.11521478768" lon="21.525556803267">
        <ele>9.6</ele>
        <time>2017-07-20T10:52:27Z</time>
      </trkpt>
      <trkpt lat="60.115223001942" lon="21.525571974506">
        <ele>9.6</ele>
        <time>2017-07-20T10:52:28Z</time>
      </trkpt>
      <trkpt lat="60.115232808765" lon="21.525589157401">
        <ele>9.6</ele>
        <time>2017-07-20T10:52:29Z</time>
      </trkpt>
      <trkpt lat="60.115246722719" lon="21.525611369436">
        <ele>9.6</ele>
        <time>2017-07-20T10:52:30Z</time>
      </trkpt>
      <trkpt lat="60.115253176782" lon="21.525624026105">
        <ele>9.6</ele>
        <time>2017-07-20T10:52:31Z</time>
      </trkpt>
      <trkpt lat="60.115266001089" lon="21.525644477941">
        <ele>9.6</ele>
        <time>2017-07-20T10:52:32Z</time>
      </trkpt>
      <trkpt lat="60.115272455152" lon="21.525654787678">
        <ele>9.6</ele>
        <time>2017-07-20T10:52:33Z</time>
      </trkpt>
      <trkpt lat="60.115283267803" lon="21.525678005541">
        <ele>9.6</ele>
        <time>2017-07-20T10:52:34Z</time>
      </trkpt>
      <trkpt lat="60.11529022478" lon="21.52569569135">
        <ele>9.6</ele>
        <time>2017-07-20T10:52:35Z</time>
      </trkpt>
      <trkpt lat="60.115298019947" lon="21.525722429611">
        <ele>9.6</ele>
        <time>2017-07-20T10:52:36Z</time>
      </trkpt>
      <trkpt lat="60.115304306372" lon="21.525746066569">
        <ele>9.6</ele>
        <time>2017-07-20T10:52:37Z</time>
      </trkpt>
      <trkpt lat="60.115315035204" lon="21.525763333283">
        <ele>9.6</ele>
        <time>2017-07-20T10:52:38Z</time>
      </trkpt>
      <trkpt lat="60.115317549774" lon="21.525789903906">
        <ele>9.6</ele>
        <time>2017-07-20T10:52:39Z</time>
      </trkpt>
      <trkpt lat="60.115327775692" lon="21.525807002982">
        <ele>9.6</ele>
        <time>2017-07-20T10:52:40Z</time>
      </trkpt>
      <trkpt lat="60.115332050461" lon="21.52583818365">
        <ele>9.6</ele>
        <time>2017-07-20T10:52:41Z</time>
      </trkpt>
      <trkpt lat="60.115341605827" lon="21.525853187251">
        <ele>9.6</ele>
        <time>2017-07-20T10:52:42Z</time>
      </trkpt>
      <trkpt lat="60.115346215872" lon="21.525877410942">
        <ele>9.6</ele>
        <time>2017-07-20T10:52:43Z</time>
      </trkpt>
      <trkpt lat="60.115355938876" lon="21.525897443683">
        <ele>9.6</ele>
        <time>2017-07-20T10:52:44Z</time>
      </trkpt>
      <trkpt lat="60.115361722387" lon="21.525913704569">
        <ele>9.6</ele>
        <time>2017-07-20T10:52:45Z</time>
      </trkpt>
      <trkpt lat="60.115373037952" lon="21.525937760622">
        <ele>9.6</ele>
        <time>2017-07-20T10:52:46Z</time>
      </trkpt>
      <trkpt lat="60.115379492015" lon="21.525951926033">
        <ele>9.6</ele>
        <time>2017-07-20T10:52:47Z</time>
      </trkpt>
      <trkpt lat="60.115392819236" lon="21.525977490828">
        <ele>9.6</ele>
        <time>2017-07-20T10:52:48Z</time>
      </trkpt>
      <trkpt lat="60.115398686566" lon="21.525990147497">
        <ele>9.6</ele>
        <time>2017-07-20T10:52:49Z</time>
      </trkpt>
      <trkpt lat="60.115409750674" lon="21.526012862446">
        <ele>9.6</ele>
        <time>2017-07-20T10:52:50Z</time>
      </trkpt>
      <trkpt lat="60.115418216393" lon="21.526033062825">
        <ele>9.6</ele>
        <time>2017-07-20T10:52:51Z</time>
      </trkpt>
      <trkpt lat="60.115425424827" lon="21.526058962896">
        <ele>9.6</ele>
        <time>2017-07-20T10:52:52Z</time>
      </trkpt>
      <trkpt lat="60.115433219994" lon="21.52608461151">
        <ele>9.6</ele>
        <time>2017-07-20T10:52:53Z</time>
      </trkpt>
      <trkpt lat="60.115444032645" lon="21.526097435817">
        <ele>9.6</ele>
        <time>2017-07-20T10:52:54Z</time>
      </trkpt>
      <trkpt lat="60.115448391233" lon="21.526132555978">
        <ele>9.6</ele>
        <time>2017-07-20T10:52:55Z</time>
      </trkpt>
      <trkpt lat="60.115458198056" lon="21.526145296466">
        <ele>9.6</ele>
        <time>2017-07-20T10:52:56Z</time>
      </trkpt>
      <trkpt lat="60.115467250508" lon="21.526177902057">
        <ele>9.6</ele>
        <time>2017-07-20T10:52:57Z</time>
      </trkpt>
      <trkpt lat="60.115474961856" lon="21.526190558726">
        <ele>9.6</ele>
        <time>2017-07-20T10:52:58Z</time>
      </trkpt>
      <trkpt lat="60.115486109783" lon="21.5262111782">
        <ele>9.6</ele>
        <time>2017-07-20T10:52:59Z</time>
      </trkpt>
      <trkpt lat="60.115492144751" lon="21.526226097982">
        <ele>9.6</ele>
        <time>2017-07-20T10:53:00Z</time>
      </trkpt>
      <trkpt lat="60.115506813076" lon="21.526251746596">
        <ele>9.6</ele>
        <time>2017-07-20T10:53:01Z</time>
      </trkpt>
      <trkpt lat="60.115512428949" lon="21.526264989998">
        <ele>9.6</ele>
        <time>2017-07-20T10:53:02Z</time>
      </trkpt>
      <trkpt lat="60.115525504713" lon="21.526291728259">
        <ele>9.6</ele>
        <time>2017-07-20T10:53:03Z</time>
      </trkpt>
      <trkpt lat="60.115530282396" lon="21.526304804023">
        <ele>9.6</ele>
        <time>2017-07-20T10:53:04Z</time>
      </trkpt>
      <trkpt lat="60.115538748115" lon="21.526330452637">
        <ele>9.6</ele>
        <time>2017-07-20T10:53:05Z</time>
      </trkpt>
      <trkpt lat="60.115546878558" lon="21.526361298029">
        <ele>9.6</ele>
        <time>2017-07-20T10:53:06Z</time>
      </trkpt>
      <trkpt lat="60.115554170811" lon="21.526372278318">
        <ele>9.6</ele>
        <time>2017-07-20T10:53:07Z</time>
      </trkpt>
      <trkpt lat="60.115561630702" lon="21.526402788434">
        <ele>9.6</ele>
        <time>2017-07-20T10:53:08Z</time>
      </trkpt>
      <trkpt lat="60.115570012602" lon="21.526419300777">
        <ele>9.6</ele>
        <time>2017-07-20T10:53:09Z</time>
      </trkpt>
      <trkpt lat="60.115582166357" lon="21.52644335683">
        <ele>9.6</ele>
        <time>2017-07-20T10:53:10Z</time>
      </trkpt>
      <trkpt lat="60.115588033687" lon="21.526468334892">
        <ele>9.6</ele>
        <time>2017-07-20T10:53:11Z</time>
      </trkpt>
      <trkpt lat="60.115600941813" lon="21.526482835579">
        <ele>9.6</ele>
        <time>2017-07-20T10:53:12Z</time>
      </trkpt>
      <trkpt lat="60.115608653161" lon="21.526511417858">
        <ele>9.6</ele>
        <time>2017-07-20T10:53:13Z</time>
      </trkpt>
      <trkpt lat="60.115619046717" lon="21.526517033731">
        <ele>9.6</ele>
        <time>2017-07-20T10:53:14Z</time>
      </trkpt>
      <trkpt lat="60.115631032834" lon="21.526547040933">
        <ele>9.6</ele>
        <time>2017-07-20T10:53:15Z</time>
      </trkpt>
      <trkpt lat="60.115639498553" lon="21.526552572987">
        <ele>9.6</ele>
        <time>2017-07-20T10:53:16Z</time>
      </trkpt>
      <trkpt lat="60.115653244869" lon="21.52656154162">
        <ele>9.6</ele>
        <time>2017-07-20T10:53:17Z</time>
      </trkpt>
      <trkpt lat="60.115663135511" lon="21.52658417275">
        <ele>9.6</ele>
        <time>2017-07-20T10:53:18Z</time>
      </trkpt>
      <trkpt lat="60.115674283438" lon="21.526585346216">
        <ele>9.6</ele>
        <time>2017-07-20T10:53:19Z</time>
      </trkpt>
      <trkpt lat="60.115690292867" lon="21.526592387012">
        <ele>9.6</ele>
        <time>2017-07-20T10:53:20Z</time>
      </trkpt>
      <trkpt lat="60.115697668939" lon="21.526596913238">
        <ele>9.6</ele>
        <time>2017-07-20T10:53:21Z</time>
      </trkpt>
      <trkpt lat="60.115708565409" lon="21.526599595446">
        <ele>9.6</ele>
        <time>2017-07-20T10:53:22Z</time>
      </trkpt>
      <trkpt lat="60.115718120775" lon="21.52660261293">
        <ele>9.6</ele>
        <time>2017-07-20T10:53:23Z</time>
      </trkpt>
      <trkpt lat="60.115731447996" lon="21.526606049509">
        <ele>9.6</ele>
        <time>2017-07-20T10:53:24Z</time>
      </trkpt>
    </trkseg>
  </trk>
</gpx>